[[{"header":{"parameterUnit":"m.s-1","parameterCategory":1,"la1":31.0,"la2":29.5877,"lo1":-88.7671,"lo2":-86.6584,"dy":0.0162,"dx":0.0185,"nx":115,"ny":88,"refTime":"2024-07-20T00:00:00:Z","depth":0,"parameterNumber":2,"parameterNumberName":"U-component_of_WINDS"},"data":[0.0,0.0,0.0,0.0,0.0,0.0,0.0,0.0,0.0,0.0,0.0,0.0,0.0,0.0,0.0,0.0,0.0,0.0,0.0,0.0,0.0,0.0,0.0,0.0,0.0,0.0,0.0,0.0,0.0,0.0,0.0,0.0,0.0,0.0,0.0,0.0,0.0,0.0,0.0,0.0,0.0,0.0,0.0,0.0,0.0,0.0,0.0,0.0,0.0,0.0,0.0,0.0,0.0,0.0,0.0,0.0,0.0,0.0,0.0,0.0,0.0,0.0,0.0,0.0,0.0,0.0,0.0,0.0,0.0,0.0,0.0,0.0,0.0,0.0,0.0,0.0,0.0,0.0,0.0,0.0,0.0,0.0,0.0,0.0,0.0,0.0,0.0,0.0,0.0,0.0,0.0,0.0,0.0,0.0,0.0,0.0,0.0,0.0,0.0,0.0,0.0,0.0,0.0,0.0,0.0,0.0,0.0,0.0,0.0,0.0,0.0,0.0,0.0,0.0,0.0,0.0,0.0,0.0,0.0,0.0,0.0,0.0,0.0,0.0,0.0,0.0,0.0,0.0,0.0,0.0,0.0,0.0,0.0,0.0,0.0,0.0,0.0,0.0,0.0,0.0,0.0,0.0,0.0,0.0,0.0,0.0,0.0,0.0,0.0,0.0,0.0,0.0,0.0,0.0,0.0,0.0,0.0,0.0,0.0,0.0,0.0,0.0,0.0,0.0,0.0,0.0,0.0,0.0,0.0,0.0,0.0,0.0,0.0,0.0,0.0,0.0,0.0,0.0,0.0,0.0,0.0,0.0,0.0,0.0,0.0,0.0,0.0,0.0,0.0,0.0,0.0,0.0,0.0,0.0,0.0,0.0,0.0,0.0,0.0,0.0,0.0,0.0,0.0,0.0,0.0,0.0,0.0,0.0,0.0,0.0,0.0,0.0,0.0,0.0,0.0,0.0,0.0,0.0,0.0,0.0,0.0,0.0,0.0,0.0,0.0,0.0,0.0,0.0,0.0,0.0,0.0,0.0,0.0,0.0,0.0,0.0,0.0,0.0,0.0,0.0,0.0,0.0,0.0,0.0,0.0,0.0,0.0,0.0,0.0,0.0,0.0,0.0,0.0,0.0,0.0,0.0,0.0,0.0,0.0,0.0,0.0,0.0,0.0,0.0,0.0,0.0,0.0,0.0,0.0,0.0,0.0,0.0,0.0,0.0,0.0,0.0,0.0,0.0,0.0,0.0,0.0,0.0,0.0,0.0,0.0,0.0,0.0,0.0,0.0,0.0,0.0,0.0,0.0,0.0,0.0,0.0,0.0,0.0,0.0,0.0,0.0,0.0,0.0,0.0,0.0,0.0,0.0,0.0,0.0,0.0,0.0,0.0,0.0,0.0,0.0,0.0,0.0,0.0,0.0,0.0,0.0,0.0,0.0,0.0,0.0,0.0,0.0,0.0,0.0,0.0,0.0,0.0,0.0,0.0,0.0,0.0,0.0,0.0,0.0,0.0,0.0,0.0,0.0,0.0,0.0,0.0,0.0,0.0,0.0,0.0,0.0,0.0,0.0,0.0,0.0,0.0,0.0,0.0,0.0,0.0,0.0,0.0,0.0,0.0,0.0,0.0,0.0,0.0,0.0,0.0,0.0,0.0,0.0,0.0,0.0,0.0,0.0,0.0,0.0,0.0,0.0,0.0,0.0,0.0,0.0,0.0,0.0,0.0,0.0,0.0,0.0,0.0,0.0,0.0,0.0,0.0,0.0,0.0,0.0,0.0,0.0,0.0,0.0,0.0,0.0,0.0,0.0,0.0,0.0,0.0,0.0,0.0,0.0,0.0,0.0,0.0,0.0,0.0,0.0,0.0,0.0,0.0,0.0,0.0,0.0,0.0,0.0,0.0,0.0,0.0,0.0,0.0,0.0,0.0,0.0,0.0,0.0,0.0,0.0,0.0,0.0,0.0,0.0,0.0,0.0,0.0,0.0,0.0,0.0,0.0,0.0,0.0,0.0,0.0,0.0,0.0,0.0,0.0,0.0,0.0,0.0,0.0,0.0,0.0,0.0,0.0,0.0,0.0,0.0,0.0,0.0,0.0,0.0,0.0,0.0,0.0,0.0,0.0,0.0,0.0,0.0,0.0,0.0,0.0,0.0,0.0,0.0,0.0,0.0,0.0,0.0,0.0,0.0,0.0,0.0,0.0,0.0,0.0,0.0,0.0,0.0,0.0,0.0,0.0,0.0,0.0,0.0,0.0,0.0,0.0,0.0,0.0,0.0,0.0,0.0,0.0,0.0,0.0,0.0,0.0,0.0,0.0,0.0,0.0,0.0,0.0,0.0,0.0,0.0,0.0,0.0,0.0,0.0,0.0,0.0,0.0,0.0,0.0,0.0,0.0,0.0,0.0,0.0,0.0,0.0,0.0,0.0,0.0,0.0,0.0,0.0,0.0,0.0,0.0,0.0,0.0,0.0,0.0,0.0,0.0,0.0,0.0,0.0,0.0,0.0,0.0,0.0,0.0,0.0,0.0,0.0,0.0,0.0,0.0,0.0,0.0,0.0,0.0,0.0,0.0,0.0,0.0,0.0,0.0,0.0,0.0,0.0,0.0,0.0,0.0,0.0,0.0,0.0,0.0,0.0,0.0,0.0,0.0,0.0,0.0,0.0,0.0,0.0,0.0,0.0,0.0,0.0,0.0,0.0,0.0,0.0,0.0,0.0,0.0,0.0,0.0,0.0,0.0,0.0,0.0,0.0,0.0,0.0,0.0,0.0,0.0,0.0,0.0,0.0,0.0,0.0,0.0,0.0,0.0,0.0,0.0,0.0,0.0,0.0,0.0,0.0,0.0,0.0,0.0,0.0,0.0,0.0,0.0,0.0,0.0,0.0,0.0,0.0,0.0,0.0,0.0,0.0,0.0,0.0,0.0,0.0,0.0,0.0,0.0,0.0,0.0,0.0,0.0,0.0,0.0,0.0,0.0,0.0,0.0,0.0,0.0,0.0,0.0,0.0,0.0,0.0,0.0,0.0,0.0,0.0,0.0,0.0,0.0,0.0,0.0,0.0,0.0,0.0,0.0,0.0,0.0,0.0,0.0,0.0,0.0,0.0,0.0,0.0,0.0,0.0,0.0,0.0,0.0,0.0,0.0,0.0,0.0,0.0,0.0,0.0,0.0,0.0,0.0,0.0,0.0,0.0,0.0,0.0,0.0,0.0,0.0,0.0,0.0,0.0,0.0,0.0,0.0,0.0,0.0,0.0,0.0,0.0,0.0,0.0,0.0,0.0,0.0,0.0,0.0,0.0,0.0,0.0,0.0,0.0,0.0,0.0,0.0,0.0,0.0,0.0,0.0,0.0,0.0,0.0,0.0,0.0,0.0,0.0,0.0,0.0,0.0,0.0,0.0,0.0,0.0,0.0,0.0,0.0,0.0,0.0,0.0,0.0,0.0,0.0,0.0,0.0,0.0,0.0,0.0,0.0,0.0,0.0,0.0,0.0,0.0,0.0,0.0,0.0,0.0,0.0,0.0,0.0,0.0,0.0,0.0,0.0,0.0,0.0,0.0,0.0,0.0,0.0,0.0,0.0,0.0,0.0,0.0,0.0,0.0,0.0,0.0,0.0,0.0,0.0,0.0,0.0,0.0,0.0,0.0,0.0,0.0,0.0,0.0,0.0,0.0,0.0,0.0,0.0,0.0,0.0,0.0,0.0,0.0,0.0,0.0,0.0,0.0,0.0,0.0,0.0,0.0,0.0,0.0,0.0,0.0,0.0,0.0,0.0,0.0,0.0,0.0,0.0,0.0,0.0,0.0,0.0,0.0,0.0,0.0,0.0,0.0,0.0,0.0,0.0,0.0,0.0,0.0,0.0,0.0,0.0,0.0,0.0,0.0,0.0,0.0,0.0,0.0,0.0,0.0,0.0,0.0,0.0,0.0,0.0,0.0,0.0,0.0,0.0,0.0,0.0,0.0,0.0,0.0,0.0,0.0,0.0,0.0,0.0,0.0,0.0,0.0,0.0,0.0,0.0,0.0,0.0,0.0,0.0,0.0,0.0,0.0,0.0,0.0,0.0,0.0,0.0,0.0,0.0,0.0,0.0,0.0,0.0,0.0,0.0,0.0,0.0,0.0,0.0,0.0,0.0,0.0,0.0,0.0,0.0,0.0,0.0,0.0,0.0,0.0,0.0,0.0,0.0,0.0,0.0,0.0,0.0,0.0,0.0,0.0,0.0,0.0,0.0,0.0,0.0,0.0,0.0,0.0,0.0,0.0,0.0,0.0,-1.1524,0.0,0.0,0.0,0.0,0.0,0.0,0.0,0.0,0.0,0.0,0.0,0.0,0.0,0.0,0.0,0.0,0.0,0.0,0.0,0.0,0.0,0.0,0.0,0.0,0.0,0.0,0.0,0.0,0.0,0.0,0.0,0.0,0.0,0.0,0.0,0.0,0.0,0.0,0.0,0.0,0.0,0.0,0.0,0.0,0.0,0.0,0.0,0.0,0.0,0.0,0.0,0.0,0.0,0.0,0.0,0.0,0.0,0.0,0.0,0.0,0.0,0.0,0.0,0.0,0.0,0.0,0.0,0.0,0.0,0.0,0.0,0.0,0.0,0.0,0.0,0.0,0.0,0.0,0.0,0.0,0.0,0.0,0.0,0.0,0.0,0.0,0.0,0.0,0.0,0.0,0.0,0.0,0.0,0.0,0.0,0.0,0.0,0.0,0.0,0.0,0.0,0.0,0.0,0.0,0.0,0.0,0.0,0.0,0.0,0.0,-1.4258,-1.4234,-1.3778,-1.3319,-1.2895,0.0,0.0,0.0,0.0,0.0,0.0,0.0,0.0,0.0,0.0,0.0,0.0,0.0,0.0,0.0,0.0,0.0,0.0,0.0,0.0,0.0,0.0,0.0,0.0,0.0,0.0,0.0,0.0,0.0,0.0,0.0,0.0,0.0,0.0,0.0,0.0,0.0,0.0,0.0,0.0,0.0,0.0,0.0,0.0,0.0,0.0,0.0,0.0,0.0,0.0,0.0,0.0,0.0,0.0,0.0,0.0,0.0,0.0,0.0,0.0,0.0,0.0,0.0,0.0,0.0,0.0,0.0,0.0,0.0,0.0,0.0,0.0,0.0,0.0,0.0,0.0,0.0,0.0,0.0,0.0,0.0,0.0,0.0,0.0,0.0,0.0,0.0,0.0,0.0,0.0,0.0,0.0,0.0,0.0,0.0,0.0,0.0,0.0,0.0,0.0,0.0,0.0,0.0,0.0,0.0,0.0,0.0,0.0,0.0,0.0,0.0,0.0,-1.4761,-1.4206,-1.378,0.0,0.0,0.0,0.0,0.0,0.0,0.0,0.0,0.0,0.0,0.0,0.0,0.0,0.0,0.0,0.0,0.0,0.0,0.0,0.0,0.0,0.0,0.0,0.0,0.0,0.0,0.0,0.0,0.0,0.0,0.0,0.0,0.0,0.0,0.0,0.0,0.0,0.0,0.0,0.0,0.0,0.0,0.0,0.0,0.0,0.0,0.0,0.0,0.0,0.0,0.0,0.0,0.0,0.0,0.0,0.0,0.0,0.0,0.0,0.0,0.0,0.0,0.0,0.0,0.0,0.0,0.0,0.0,0.0,0.0,0.0,0.0,0.0,0.0,0.0,0.0,0.0,0.0,0.0,0.0,0.0,0.0,0.0,0.0,0.0,0.0,0.0,0.0,0.0,0.0,0.0,0.0,0.0,0.0,0.0,0.0,0.0,0.0,0.0,0.0,0.0,0.0,0.0,0.0,0.0,0.0,0.0,0.0,0.0,0.0,-1.5405,-1.5408,-1.5312,0.0,-1.3012,0.0,0.0,0.0,0.0,0.0,0.0,0.0,0.0,0.0,0.0,0.0,0.0,0.0,0.0,0.0,0.0,0.0,0.0,0.0,0.0,0.0,0.0,0.0,0.0,0.0,0.0,0.0,0.0,0.0,0.0,0.0,0.0,0.0,0.0,0.0,0.0,0.0,0.0,0.0,0.0,0.0,0.0,0.0,0.0,0.0,0.0,0.0,0.0,0.0,0.0,0.0,0.0,0.0,0.0,0.0,0.0,0.0,0.0,0.0,0.0,0.0,0.0,0.0,0.0,0.0,0.0,0.0,0.0,0.0,0.0,0.0,0.0,0.0,0.0,0.0,0.0,0.0,0.0,0.0,0.0,0.0,0.0,0.0,0.0,0.0,0.0,0.0,0.0,0.0,0.0,0.0,0.0,0.0,0.0,0.0,0.0,0.0,0.0,0.0,0.0,0.0,0.0,0.0,0.0,0.0,0.0,0.0,0.0,0.0,0.0,0.0,-1.542,-1.541,-1.4608,0.0,0.0,0.0,0.0,0.0,0.0,0.0,0.0,0.0,0.0,0.0,0.0,0.0,0.0,0.0,0.0,0.0,0.0,0.0,0.0,0.0,0.0,0.0,0.0,0.0,0.0,0.0,0.0,0.0,0.0,0.0,0.0,0.0,0.0,0.0,0.0,0.0,0.0,0.0,0.0,0.0,0.0,0.0,0.0,0.0,0.0,0.0,0.0,0.0,0.0,0.0,0.0,0.0,0.0,0.0,0.0,0.0,0.0,0.0,0.0,0.0,0.0,0.0,0.0,0.0,0.0,0.0,0.0,0.0,0.0,0.0,0.0,0.0,0.0,0.0,0.0,0.0,0.0,0.0,0.0,0.0,0.0,0.0,0.0,0.0,0.0,0.0,0.0,0.0,0.0,0.0,0.0,0.0,0.0,0.0,0.0,0.0,0.0,0.0,0.0,0.0,0.0,0.0,0.0,0.0,0.0,0.0,0.0,0.0,0.0,-1.5369,0.0,-1.5412,-1.5407,-1.4609,-1.293,0.0,0.0,0.0,0.0,0.0,0.0,0.0,0.0,0.0,0.0,0.0,0.0,0.0,0.0,0.0,0.0,0.0,0.0,0.0,0.0,0.0,0.0,0.0,0.0,0.0,0.0,0.0,0.0,0.0,0.0,0.0,0.0,0.0,0.0,0.0,0.0,0.0,0.0,0.0,0.0,0.0,0.0,0.0,0.0,0.0,0.0,0.0,0.0,0.0,0.0,0.0,0.0,0.0,0.0,0.0,0.0,0.0,0.0,0.0,0.0,0.0,0.0,0.0,0.0,0.0,0.0,0.0,0.0,0.0,0.0,0.0,0.0,0.0,0.0,0.0,0.0,0.0,0.0,0.0,0.0,0.0,0.0,0.0,0.0,0.0,0.0,0.0,0.0,0.0,0.0,0.0,0.0,0.0,0.0,0.0,0.0,0.0,0.0,0.0,0.0,0.0,0.0,0.0,0.0,0.0,0.0,0.0,0.0,0.0,-1.5313,-1.5333,-1.5408,-1.5418,-1.4584,0.0,0.0,0.0,0.0,0.0,0.0,0.0,0.0,0.0,0.0,0.0,0.0,0.0,0.0,0.0,0.0,0.0,0.0,0.0,0.0,0.0,0.0,0.0,0.0,0.0,0.0,0.0,0.0,0.0,0.0,0.0,0.0,0.0,0.0,0.0,0.0,0.0,0.0,0.0,0.0,0.0,0.0,0.0,0.0,0.0,0.0,0.0,0.0,0.0,0.0,0.0,0.0,0.0,0.0,0.0,0.0,0.0,0.0,0.0,0.0,0.0,0.0,0.0,0.0,0.0,0.0,0.0,0.0,0.0,0.0,0.0,0.0,0.0,0.0,0.0,0.0,0.0,0.0,0.0,0.0,0.0,0.0,0.0,0.0,0.0,0.0,0.0,0.0,0.0,0.0,0.0,0.0,0.0,0.0,0.0,0.0,0.0,0.0,0.0,0.0,0.0,0.0,0.0,0.0,0.0,0.0,0.0,0.0,0.0,-1.5224,-1.5285,-1.5349,0.0,-1.5419,-1.4588,0.0,0.0,0.0,0.0,0.0,0.0,0.0,0.0,0.0,0.0,0.0,0.0,0.0,0.0,0.0,0.0,0.0,0.0,0.0,0.0,0.0,0.0,0.0,0.0,0.0,0.0,0.0,0.0,0.0,0.0,0.0,0.0,0.0,0.0,0.0,0.0,0.0,0.0,0.0,0.0,0.0,0.0,0.0,0.0,0.0,0.0,0.0,0.0,0.0,0.0,0.0,0.0,0.0,0.0,0.0,0.0,0.0,0.0,0.0,0.0,0.0,0.0,0.0,0.0,0.0,0.0,0.0,0.0,0.0,0.0,0.0,0.0,0.0,0.0,0.0,0.0,0.0,0.0,0.0,0.0,0.0,0.0,0.0,0.0,0.0,0.0,0.0,0.0,0.0,0.0,0.0,0.0,0.0,0.0,0.0,0.0,0.0,0.0,0.0,0.0,0.0,0.0,0.0,0.0,0.0,0.0,0.0,0.0,0.0,-1.5196,0.0,-1.5323,0.0,-1.5374,-1.4724,0.0,0.0,0.0,0.0,0.0,0.0,0.0,0.0,0.0,0.0,0.0,0.0,0.0,0.0,0.0,0.0,0.0,0.0,0.0,0.0,0.0,0.0,0.0,0.0,0.0,0.0,0.0,0.0,0.0,0.0,0.0,0.0,0.0,0.0,0.0,0.0,0.0,0.0,0.0,0.0,0.0,0.0,0.0,0.0,0.0,0.0,0.0,0.0,0.0,0.0,0.0,0.0,0.0,0.0,0.0,0.0,0.0,0.0,0.0,0.0,0.0,0.0,0.0,0.0,0.0,0.0,0.0,0.0,0.0,0.0,0.0,0.0,0.0,0.0,0.0,0.0,0.0,0.0,0.0,0.0,0.0,0.0,0.0,0.0,0.0,0.0,0.0,0.0,0.0,0.0,0.0,0.0,0.0,0.0,0.0,0.0,0.0,0.0,0.0,0.0,0.0,0.0,0.0,0.0,0.0,0.0,0.0,0.0,-1.5146,-1.5202,-1.5263,-1.5293,-1.5293,-1.5363,-1.4973,0.0,0.0,0.0,0.0,0.0,0.0,0.0,0.0,0.0,0.0,0.0,0.0,0.0,0.0,0.0,0.0,0.0,0.0,0.0,0.0,0.0,0.0,0.0,0.0,0.0,0.0,0.0,0.0,0.0,0.0,0.0,0.0,0.0,0.0,0.0,0.0,0.0,0.0,0.0,0.0,0.0,0.0,0.0,0.0,0.0,0.0,0.0,0.0,0.0,0.0,0.0,0.0,0.0,0.0,0.0,0.0,0.0,0.0,0.0,0.0,0.0,0.0,0.0,0.0,0.0,0.0,0.0,0.0,0.0,0.0,0.0,0.0,0.0,0.0,0.0,0.0,0.0,0.0,0.0,0.0,0.0,0.0,0.0,0.0,0.0,0.0,0.0,0.0,0.0,0.0,0.0,0.0,0.0,0.0,0.0,0.0,0.0,0.0,0.0,0.0,0.0,0.0,0.0,0.0,0.0,0.0,0.0,0.0,0.0,-1.5209,-1.5229,-1.526,-1.5293,-1.5317,-1.4927,0.0,0.0,0.0,0.0,0.0,0.0,0.0,0.0,0.0,0.0,0.0,0.0,0.0,0.0,0.0,0.0,0.0,0.0,0.0,0.0,0.0,0.0,0.0,0.0,0.0,0.0,0.0,0.0,0.0,0.0,0.0,0.0,0.0,0.0,0.0,0.0,0.0,0.0,0.0,0.0,0.0,0.0,0.0,0.0,0.0,0.0,0.0,0.0,0.0,0.0,0.0,0.0,0.0,0.0,0.0,0.0,0.0,0.0,0.0,0.0,0.0,0.0,0.0,0.0,0.0,0.0,0.0,0.0,0.0,0.0,0.0,0.0,0.0,0.0,0.0,0.0,0.0,0.0,0.0,0.0,0.0,0.0,0.0,0.0,0.0,0.0,0.0,0.0,0.0,0.0,0.0,0.0,0.0,0.0,0.0,0.0,0.0,0.0,0.0,0.0,0.0,0.0,0.0,0.0,0.0,0.0,0.0,0.0,0.0,-1.565,-1.5952,-1.6154,-1.6236,-1.5906,-1.5522,-1.5018,0.0,0.0,0.0,0.0,0.0,0.0,0.0,0.0,0.0,0.0,0.0,0.0,0.0,0.0,0.0,0.0,0.0,0.0,0.0,0.0,0.0,0.0,0.0,0.0,0.0,0.0,0.0,0.0,0.0,0.0,0.0,0.0,0.0,0.0,0.0,0.0,0.0,0.0,0.0,0.0,0.0,0.0,0.0,0.0,0.0,0.0,0.0,0.0,0.0,0.0,0.0,0.0,0.0,0.0,0.0,0.0,0.0,0.0,0.0,0.0,0.0,0.0,0.0,0.0,0.0,0.0,0.0,0.0,0.0,0.0,0.0,0.0,0.0,0.0,0.0,0.0,0.0,0.0,0.0,0.0,0.0,0.0,0.0,0.0,0.0,0.0,0.0,0.0,0.0,0.0,0.0,0.0,0.0,0.0,0.0,0.0,0.0,0.0,0.0,0.0,0.0,0.0,0.0,0.0,0.0,0.0,0.0,0.0,-1.6433,-1.7366,-1.7818,-1.7767,-1.6977,-1.6575,0.0,0.0,0.0,0.0,0.0,0.0,0.0,0.0,0.0,0.0,0.0,0.0,0.0,0.0,0.0,0.0,0.0,0.0,0.0,0.0,0.0,0.0,0.0,0.0,0.0,0.0,0.0,0.0,0.0,0.0,0.0,0.0,0.0,0.0,0.0,0.0,0.0,0.0,0.0,0.0,0.0,0.0,0.0,0.0,0.0,0.0,0.0,0.0,0.0,0.0,0.0,0.0,0.0,0.0,0.0,0.0,0.0,0.0,0.0,0.0,0.0,0.0,0.0,0.0,0.0,0.0,0.0,0.0,0.0,0.0,0.0,0.0,0.0,0.0,0.0,0.0,0.0,0.0,0.0,0.0,0.0,0.0,0.0,0.0,0.0,0.0,0.0,0.0,0.0,0.0,0.0,0.0,0.0,0.0,0.0,0.0,0.0,0.0,0.0,0.0,0.0,0.0,0.0,0.0,0.0,0.0,0.0,0.0,0.0,-1.8131,-1.9069,-1.8981,-1.7857,-1.7583,-1.7159,0.0,0.0,0.0,0.0,0.0,0.0,0.0,0.0,0.0,0.0,0.0,0.0,0.0,0.0,0.0,0.0,0.0,0.0,0.0,0.0,0.0,0.0,0.0,0.0,0.0,0.0,0.0,0.0,0.0,0.0,0.0,0.0,0.0,0.0,0.0,0.0,0.0,0.0,0.0,0.0,0.0,0.0,0.0,0.0,0.0,0.0,0.0,0.0,0.0,0.0,0.0,0.0,0.0,0.0,0.0,0.0,0.0,0.0,0.0,0.0,0.0,0.0,0.0,0.0,0.0,0.0,0.0,0.0,0.0,0.0,0.0,0.0,0.0,0.0,0.0,0.0,0.0,0.0,0.0,0.0,0.0,0.0,0.0,0.0,0.0,0.0,0.0,0.0,0.0,0.0,0.0,0.0,0.0,0.0,0.0,0.0,0.0,0.0,0.0,0.0,0.0,0.0,0.0,0.0,0.0,0.0,0.0,0.0,-1.8292,-1.9277,-2.0217,-2.0271,-1.9365,-1.867,-1.7908,0.0,0.0,0.0,0.0,0.0,0.0,0.0,0.0,0.0,0.0,0.0,0.0,0.0,0.0,0.0,0.0,0.0,0.0,0.0,0.0,0.0,0.0,0.0,0.0,0.0,0.0,0.0,0.0,0.0,0.0,0.0,0.0,0.0,0.0,0.0,0.0,0.0,0.0,0.0,0.0,0.0,0.0,0.0,0.0,0.0,0.0,0.0,0.0,0.0,0.0,0.0,0.0,0.0,0.0,0.0,0.0,0.0,0.0,0.0,0.0,0.0,0.0,0.0,0.0,0.0,0.0,0.0,0.0,0.0,0.0,0.0,0.0,0.0,0.0,0.0,0.0,0.0,0.0,0.0,0.0,0.0,0.0,0.0,0.0,0.0,0.0,0.0,0.0,0.0,0.0,0.0,0.0,0.0,0.0,0.0,0.0,0.0,0.0,0.0,0.0,0.0,0.0,0.0,0.0,0.0,0.0,0.0,0.0,-1.9109,-2.0094,-2.1041,-2.1546,-2.1577,-2.0081,-1.8808,0.0,0.0,0.0,0.0,0.0,0.0,0.0,0.0,0.0,0.0,0.0,0.0,0.0,0.0,0.0,0.0,0.0,0.0,0.0,0.0,0.0,0.0,0.0,0.0,0.0,0.0,0.0,0.0,0.0,0.0,0.0,0.0,0.0,0.0,0.0,0.0,0.0,0.0,0.0,0.0,0.0,0.0,0.0,0.0,0.0,0.0,0.0,0.0,0.0,0.0,0.0,0.0,0.0,0.0,0.0,0.0,0.0,0.0,0.0,0.0,0.0,0.0,0.0,0.0,0.0,0.0,0.0,0.0,0.0,0.0,0.0,0.0,0.0,0.0,0.0,0.0,0.0,0.0,0.0,0.0,0.0,0.0,0.0,0.0,0.0,0.0,0.0,0.0,0.0,0.0,0.0,0.0,0.0,0.0,0.0,0.0,0.0,0.0,0.0,0.0,0.0,0.0,0.0,0.0,0.0,0.0,0.0,0.0,-1.9869,-2.0858,-2.1789,-2.2326,-2.2451,-2.1494,-1.9961,0.0,0.0,0.0,0.0,0.0,0.0,0.0,0.0,0.0,0.0,0.0,0.0,0.0,0.0,0.0,0.0,0.0,0.0,0.0,0.0,0.0,0.0,0.0,0.0,0.0,0.0,0.0,0.0,0.0,0.0,0.0,0.0,0.0,0.0,0.0,0.0,0.0,0.0,0.0,0.0,0.0,0.0,0.0,0.0,0.0,0.0,0.0,0.0,-1.4586,0.0,0.0,0.0,0.0,0.0,0.0,0.0,0.0,0.0,0.0,0.0,0.0,0.0,0.0,0.0,0.0,0.0,0.0,0.0,0.0,0.0,0.0,0.0,0.0,0.0,0.0,0.0,0.0,0.0,0.0,0.0,0.0,0.0,0.0,0.0,0.0,0.0,0.0,0.0,0.0,0.0,0.0,0.0,0.0,0.0,0.0,0.0,0.0,0.0,0.0,0.0,0.0,0.0,0.0,0.0,0.0,0.0,0.0,0.0,-2.0604,-2.1612,-2.254,-2.2895,-2.2653,-2.2273,-2.0894,0.0,0.0,0.0,0.0,0.0,0.0,0.0,0.0,0.0,0.0,0.0,0.0,0.0,0.0,0.0,0.0,0.0,0.0,0.0,0.0,0.0,0.0,0.0,0.0,0.0,0.0,0.0,0.0,0.0,0.0,0.0,0.0,0.0,0.0,0.0,0.0,0.0,0.0,0.0,0.0,0.0,0.0,0.0,0.0,0.0,0.0,0.0,0.0,0.0,0.0,0.0,0.0,0.0,0.0,0.0,0.0,0.0,0.0,0.0,0.0,0.0,0.0,0.0,0.0,0.0,0.0,0.0,0.0,0.0,0.0,0.0,0.0,0.0,0.0,0.0,0.0,0.0,0.0,0.0,0.0,0.0,0.0,0.0,0.0,0.0,0.0,0.0,0.0,0.0,0.0,0.0,0.0,0.0,0.0,0.0,0.0,0.0,0.0,0.0,0.0,0.0,0.0,0.0,0.0,0.0,0.0,0.0,-1.9483,-2.1291,-2.218,-2.3222,-2.3455,-2.2821,-2.2729,-2.1541,-1.9114,0.0,0.0,0.0,0.0,0.0,0.0,0.0,0.0,0.0,0.0,0.0,0.0,0.0,0.0,0.0,0.0,0.0,0.0,0.0,0.0,0.0,0.0,0.0,0.0,0.0,0.0,0.0,0.0,0.0,0.0,0.0,0.0,0.0,0.0,0.0,0.0,0.0,0.0,-1.1246,-1.2579,0.0,0.0,0.0,0.0,0.0,0.0,0.0,0.0,-1.513,0.0,0.0,0.0,0.0,0.0,0.0,0.0,0.0,0.0,0.0,0.0,0.0,0.0,0.0,0.0,0.0,0.0,0.0,0.0,0.0,0.0,0.0,0.0,0.0,0.0,0.0,0.0,0.0,0.0,0.0,0.0,0.0,0.0,0.0,0.0,0.0,0.0,0.0,0.0,0.0,0.0,0.0,0.0,0.0,0.0,0.0,0.0,0.0,0.0,0.0,0.0,0.0,0.0,0.0,0.0,0.0,-1.6827,-1.9971,-2.1779,-2.2118,-2.3764,-2.4293,-2.3636,-2.3005,-2.1546,-1.9139,0.0,0.0,0.0,0.0,0.0,0.0,0.0,0.0,0.0,0.0,0.0,0.0,0.0,0.0,0.0,0.0,0.0,0.0,0.0,0.0,0.0,0.0,0.0,0.0,0.0,0.0,0.0,0.0,0.0,0.0,0.0,0.0,0.0,0.0,0.0,0.0,0.0,0.0,0.0,-1.3262,-1.3689,0.0,0.0,0.0,0.0,0.0,0.0,0.0,0.0,-1.5078,0.0,0.0,0.0,0.0,0.0,0.0,0.0,0.0,0.0,0.0,0.0,0.0,0.0,0.0,0.0,0.0,0.0,0.0,0.0,0.0,0.0,0.0,0.0,0.0,0.0,0.0,0.0,0.0,0.0,0.0,0.0,0.0,0.0,0.0,0.0,0.0,0.0,0.0,0.0,0.0,0.0,0.0,0.0,0.0,0.0,0.0,0.0,0.0,0.0,0.0,0.0,0.0,0.0,0.0,0.0,-1.6962,-2.0105,-2.1871,-2.2081,-2.3821,-2.4205,-2.3132,-2.2808,-2.1292,0.0,0.0,0.0,0.0,0.0,0.0,0.0,0.0,0.0,0.0,0.0,0.0,0.0,0.0,0.0,0.0,0.0,0.0,0.0,0.0,0.0,0.0,0.0,0.0,0.0,0.0,0.0,0.0,0.0,0.0,0.0,0.0,0.0,0.0,0.0,0.0,0.0,0.0,0.0,0.0,-1.4098,-1.4809,-1.5253,0.0,0.0,0.0,0.0,0.0,0.0,-1.5673,-1.5556,0.0,0.0,0.0,0.0,0.0,0.0,0.0,0.0,0.0,0.0,0.0,0.0,0.0,0.0,0.0,0.0,0.0,0.0,0.0,0.0,0.0,0.0,0.0,0.0,0.0,0.0,0.0,0.0,0.0,0.0,0.0,0.0,0.0,0.0,0.0,0.0,0.0,0.0,0.0,0.0,0.0,0.0,0.0,0.0,0.0,0.0,0.0,0.0,0.0,0.0,0.0,0.0,0.0,0.0,0.0,-1.7137,-2.0173,-2.1875,-2.2057,-2.3786,-2.3978,-2.2464,-2.2523,-2.1047,0.0,0.0,0.0,0.0,0.0,0.0,0.0,0.0,0.0,0.0,0.0,0.0,0.0,0.0,0.0,0.0,0.0,0.0,0.0,0.0,0.0,0.0,0.0,0.0,0.0,0.0,0.0,0.0,0.0,0.0,0.0,0.0,0.0,0.0,0.0,0.0,0.0,0.0,0.0,0.0,0.0,-1.5815,-1.5947,-1.6601,0.0,0.0,0.0,0.0,-1.654,-1.6495,0.0,0.0,0.0,0.0,0.0,0.0,0.0,0.0,0.0,0.0,0.0,0.0,0.0,0.0,0.0,0.0,0.0,0.0,0.0,0.0,0.0,0.0,0.0,0.0,0.0,0.0,0.0,0.0,0.0,0.0,0.0,0.0,0.0,0.0,0.0,0.0,0.0,0.0,0.0,0.0,0.0,0.0,0.0,0.0,0.0,0.0,0.0,0.0,0.0,0.0,0.0,0.0,0.0,0.0,0.0,0.0,-1.793,-2.0466,-2.1867,-2.2057,-2.3786,-2.3959,-2.2445,-2.2528,-2.1066,0.0,0.0,0.0,0.0,0.0,0.0,0.0,0.0,0.0,0.0,0.0,0.0,0.0,0.0,0.0,0.0,0.0,0.0,0.0,0.0,0.0,0.0,0.0,0.0,0.0,0.0,0.0,0.0,0.0,0.0,0.0,0.0,0.0,0.0,0.0,0.0,0.0,0.0,0.0,0.0,0.0,-1.5827,-1.6128,-1.6701,-1.7281,0.0,0.0,-1.7327,-1.734,-1.7359,0.0,0.0,0.0,0.0,0.0,0.0,0.0,0.0,0.0,0.0,0.0,0.0,0.0,0.0,0.0,0.0,0.0,0.0,0.0,0.0,0.0,0.0,0.0,0.0,0.0,0.0,0.0,0.0,0.0,0.0,0.0,0.0,0.0,0.0,0.0,0.0,0.0,0.0,0.0,0.0,0.0,0.0,0.0,0.0,0.0,0.0,0.0,0.0,0.0,0.0,0.0,0.0,0.0,0.0,0.0,-1.7092,-1.8036,-2.0519,-2.1847,-2.2046,-2.3768,-2.3978,-2.2426,-2.2511,-2.0989,0.0,0.0,0.0,0.0,0.0,0.0,0.0,0.0,0.0,0.0,0.0,0.0,0.0,0.0,0.0,0.0,0.0,0.0,0.0,0.0,0.0,0.0,0.0,0.0,0.0,0.0,0.0,0.0,0.0,0.0,0.0,0.0,0.0,0.0,0.0,0.0,0.0,0.0,0.0,0.0,0.0,0.0,-1.7105,-1.7876,0.0,0.0,0.0,-1.8584,-1.8189,0.0,0.0,0.0,0.0,0.0,0.0,0.0,0.0,0.0,0.0,0.0,0.0,0.0,0.0,0.0,0.0,0.0,0.0,0.0,0.0,0.0,0.0,0.0,0.0,0.0,0.0,0.0,0.0,0.0,0.0,0.0,0.0,0.0,0.0,0.0,0.0,0.0,0.0,0.0,0.0,0.0,0.0,0.0,0.0,0.0,0.0,0.0,0.0,0.0,0.0,0.0,0.0,0.0,0.0,0.0,0.0,0.0,-1.8622,-2.0719,-2.1966,-2.2327,-2.3883,-2.4069,-2.276,-2.257,0.0,0.0,0.0,0.0,0.0,0.0,0.0,0.0,0.0,0.0,0.0,0.0,0.0,0.0,0.0,0.0,0.0,0.0,0.0,0.0,0.0,0.0,0.0,0.0,0.0,0.0,0.0,-0.8877,0.0,0.0,0.0,0.0,0.0,0.0,0.0,0.0,0.0,0.0,0.0,0.0,0.0,0.0,-1.8364,-1.8197,-1.9298,-2.0159,0.0,0.0,-2.0208,-1.9629,-1.9398,-1.9004,0.0,0.0,0.0,0.0,0.0,0.0,0.0,0.0,0.0,0.0,0.0,0.0,0.0,0.0,0.0,0.0,0.0,0.0,0.0,0.0,0.0,0.0,0.0,0.0,0.0,0.0,0.0,0.0,0.0,0.0,0.0,0.0,0.0,0.0,0.0,0.0,0.0,0.0,0.0,0.0,0.0,0.0,0.0,0.0,0.0,0.0,0.0,0.0,0.0,0.0,0.0,0.0,0.0,0.0,0.0,-2.0268,-2.1305,-2.2226,-2.3103,-2.4142,-2.4332,-2.3549,-2.2855,-2.1686,0.0,0.0,0.0,0.0,0.0,0.0,0.0,0.0,0.0,0.0,0.0,0.0,0.0,0.0,0.0,0.0,0.0,0.0,0.0,0.0,0.0,0.0,0.0,0.0,0.0,0.0,0.0,0.0,0.0,0.0,0.0,0.0,0.0,0.0,0.0,0.0,0.0,0.0,0.0,0.0,0.0,-1.9276,-1.922,-2.0709,-2.1863,0.0,0.0,-2.2025,-2.2045,-2.1406,-2.0627,-1.9787,0.0,0.0,0.0,0.0,0.0,0.0,0.0,0.0,0.0,0.0,0.0,0.0,0.0,0.0,0.0,0.0,0.0,0.0,0.0,0.0,0.0,0.0,0.0,0.0,0.0,0.0,0.0,0.0,0.0,0.0,0.0,0.0,0.0,0.0,0.0,0.0,0.0,0.0,0.0,0.0,0.0,0.0,0.0,0.0,0.0,0.0,0.0,0.0,0.0,0.0,0.0,0.0,0.0,-1.8543,-2.047,-2.1393,-2.2288,-2.3188,-2.4172,-2.4362,-2.3618,-2.2887,-2.1738,0.0,0.0,0.0,0.0,0.0,0.0,0.0,0.0,0.0,0.0,0.0,0.0,0.0,0.0,0.0,0.0,0.0,0.0,0.0,0.0,0.0,0.0,0.0,0.0,0.0,0.0,0.0,0.0,-1.1045,-1.1698,-1.2932,0.0,0.0,0.0,0.0,0.0,0.0,0.0,0.0,0.0,0.0,-2.0323,-2.0828,-2.1546,0.0,0.0,-2.2817,-2.2213,-2.2289,-2.2047,-2.1708,-2.1329,-2.0602,0.0,0.0,0.0,0.0,0.0,0.0,0.0,0.0,0.0,0.0,0.0,0.0,0.0,0.0,0.0,0.0,0.0,0.0,0.0,0.0,0.0,0.0,0.0,0.0,0.0,0.0,0.0,0.0,0.0,0.0,0.0,0.0,0.0,0.0,0.0,0.0,0.0,0.0,0.0,0.0,0.0,0.0,0.0,0.0,0.0,0.0,0.0,0.0,0.0,0.0,0.0,0.0,-1.902,-2.0879,-2.1549,-2.2409,-2.3514,-2.4242,-2.4409,-2.3933,-2.2974,-2.1919,0.0,0.0,0.0,0.0,0.0,0.0,0.0,0.0,0.0,0.0,0.0,0.0,0.0,0.0,0.0,0.0,0.0,0.0,0.0,0.0,0.0,0.0,0.0,0.0,0.0,0.0,0.0,0.0,-1.1841,-1.2448,-1.3747,0.0,0.0,0.0,0.0,0.0,0.0,0.0,0.0,0.0,0.0,-2.1506,-2.1836,-2.2383,-2.3188,-2.4422,-2.3659,-2.2981,-2.3002,-2.2811,-2.263,-2.2593,0.0,0.0,0.0,0.0,0.0,0.0,0.0,0.0,0.0,0.0,0.0,0.0,0.0,0.0,0.0,0.0,0.0,0.0,0.0,0.0,0.0,0.0,0.0,0.0,0.0,0.0,0.0,0.0,0.0,0.0,-1.2545,0.0,0.0,0.0,0.0,0.0,0.0,0.0,0.0,0.0,0.0,0.0,0.0,0.0,0.0,0.0,0.0,0.0,0.0,0.0,0.0,0.0,0.0,-1.9326,-2.1729,-2.18,-2.2616,-2.4201,-2.4429,-2.4568,-2.4615,-2.3147,-2.2312,-2.2249,0.0,0.0,0.0,0.0,0.0,0.0,0.0,0.0,0.0,0.0,0.0,0.0,0.0,0.0,0.0,0.0,0.0,0.0,0.0,0.0,0.0,0.0,0.0,0.0,0.0,0.0,-1.2405,-1.3191,-1.3942,0.0,0.0,0.0,0.0,0.0,0.0,0.0,0.0,0.0,0.0,-2.2048,-2.2838,-2.2066,-2.3359,-2.4418,-2.458,-2.4602,-2.4623,-2.4606,-2.3983,-2.3476,0.0,0.0,0.0,0.0,0.0,0.0,0.0,0.0,0.0,0.0,0.0,0.0,0.0,0.0,0.0,0.0,0.0,0.0,0.0,0.0,0.0,0.0,0.0,0.0,0.0,0.0,0.0,-1.6271,-1.6197,0.0,0.0,0.0,0.0,0.0,0.0,0.0,0.0,0.0,0.0,0.0,-2.0761,-2.0761,0.0,0.0,0.0,0.0,0.0,0.0,0.0,0.0,0.0,0.0,0.0,0.0,-2.0391,-2.1748,-2.2342,-2.3151,-2.4257,-2.442,-2.4559,-2.4682,-2.3711,-2.242,-2.0847,0.0,0.0,0.0,0.0,0.0,0.0,0.0,0.0,0.0,0.0,0.0,0.0,0.0,0.0,0.0,0.0,0.0,0.0,0.0,0.0,0.0,0.0,0.0,0.0,0.0,-1.2471,0.0,0.0,0.0,0.0,0.0,0.0,0.0,0.0,0.0,0.0,0.0,-2.0765,-2.2138,-2.2838,-2.3307,-2.3584,-2.4126,-2.4537,0.0,0.0,0.0,0.0,0.0,0.0,0.0,0.0,0.0,0.0,0.0,0.0,0.0,0.0,-2.1688,-1.9834,-1.9047,-1.8638,-1.8555,0.0,0.0,0.0,0.0,0.0,0.0,0.0,0.0,0.0,0.0,0.0,0.0,0.0,0.0,-1.8882,0.0,-1.8474,0.0,0.0,0.0,0.0,0.0,0.0,0.0,0.0,-2.0861,-2.1434,-2.2527,-2.2527,-2.2509,0.0,-2.2457,-2.1267,0.0,0.0,0.0,0.0,0.0,0.0,0.0,0.0,-2.1111,-2.2213,-2.2755,-2.3454,-2.4302,-2.4411,-2.4534,-2.4658,-2.3956,-2.2608,-2.0489,-1.911,-1.761,0.0,0.0,0.0,0.0,0.0,0.0,0.0,0.0,0.0,0.0,0.0,0.0,0.0,0.0,0.0,0.0,0.0,0.0,0.0,0.0,0.0,0.0,0.0,-1.375,0.0,0.0,0.0,0.0,0.0,0.0,0.0,0.0,0.0,-2.1472,-2.1602,-2.1969,-2.305,-2.3462,-2.3851,-2.4425,0.0,0.0,0.0,0.0,0.0,0.0,0.0,-2.4738,-2.4734,-2.4253,-2.3847,-2.3811,-2.3303,-2.2874,-2.2898,0.0,0.0,-2.157,-2.0714,-2.034,-2.02,-2.0165,-2.0176,-2.0168,-2.016,-1.9995,0.0,0.0,0.0,0.0,0.0,0.0,0.0,0.0,-2.1756,-2.1393,0.0,-2.0459,0.0,0.0,0.0,0.0,0.0,-2.1674,0.0,0.0,-2.2607,-2.2658,-2.2698,-2.2717,-2.2687,-2.2694,-2.2658,-2.2537,-2.2357,-2.1518,0.0,0.0,0.0,0.0,0.0,0.0,-2.1522,-2.3027,-2.3138,-2.3544,-2.4366,-2.4412,-2.4482,-2.4588,-2.3963,-2.2866,-2.1305,-2.0412,-1.9211,-1.7582,-1.5923,0.0,0.0,0.0,0.0,0.0,0.0,0.0,0.0,0.0,0.0,0.0,0.0,0.0,0.0,0.0,0.0,0.0,0.0,0.0,0.0,-1.444,0.0,0.0,0.0,0.0,0.0,0.0,0.0,0.0,0.0,0.0,-2.1234,-2.2346,-2.3215,-2.3252,0.0,0.0,0.0,0.0,-2.4712,-2.4787,-2.4813,-2.4813,-2.4801,-2.482,-2.4801,-2.4794,0.0,0.0,-2.4604,-2.4549,-2.4478,-2.4572,-2.4522,-2.3989,-2.2396,-2.1991,-2.1877,-2.1768,-2.1696,-2.1753,-2.1774,-2.1627,-2.1242,-2.3735,0.0,0.0,0.0,0.0,-2.2327,-2.2559,-2.2767,-2.2527,-2.2369,-2.2302,-2.2003,0.0,0.0,0.0,0.0,0.0,0.0,-2.2922,-2.3512,-2.352,-2.3853,-2.4443,-2.4448,-2.4451,-2.4449,-2.4429,-2.4077,-2.3403,-2.3063,-2.2429,-2.1489,0.0,0.0,0.0,0.0,-2.2674,-2.3171,-2.3728,-2.417,-2.4471,-2.4479,-2.4555,-2.4726,-2.3999,-2.3144,-2.2136,-2.0759,-1.9495,-1.8391,-1.6753,0.0,0.0,0.0,0.0,0.0,0.0,0.0,0.0,0.0,0.0,0.0,0.0,0.0,0.0,0.0,0.0,0.0,0.0,0.0,-1.5419,-1.5777,-1.6265,0.0,0.0,0.0,0.0,0.0,0.0,0.0,0.0,0.0,-2.273,-2.3002,-2.3434,0.0,0.0,-2.4512,-2.4566,-2.4637,-2.4753,-2.491,-2.491,0.0,0.0,-2.4872,-2.4879,-2.4877,-2.4824,-2.4749,-2.4676,-2.4653,-2.4639,-2.4615,-2.4613,-2.4444,-2.3931,-2.2827,-2.206,-2.1892,-2.1875,-2.1875,-2.1867,-2.1859,-2.175,-2.6217,-2.4798,-2.4432,-2.4317,-2.4332,-2.4683,-2.4827,-2.4832,-2.4783,-2.4744,-2.4704,-2.4323,-2.3951,-2.361,-2.3231,0.0,0.0,0.0,-2.4629,-2.5445,-2.5461,-2.5726,-2.6241,-2.6285,-2.6077,-2.5743,-2.5715,-2.5241,-2.4337,-2.4258,-2.3916,-2.3284,0.0,0.0,-2.2551,-2.2983,-2.3405,-2.3764,-2.4275,-2.4551,-2.459,-2.4604,-2.4668,-2.478,-2.4356,-2.375,-2.2988,-2.1711,-2.0451,-1.9309,-1.7976,-1.6562,0.0,0.0,0.0,0.0,0.0,0.0,0.0,0.0,0.0,0.0,0.0,-1.1667,0.0,0.0,0.0,0.0,-1.409,-1.5808,-1.683,-1.6854,0.0,0.0,0.0,0.0,0.0,0.0,0.0,-2.2717,-2.3175,-2.3562,-2.3858,-2.3809,-2.3965,-2.4464,-2.4564,-2.4599,-2.4599,0.0,-2.4805,-2.4998,-2.4972,-2.4959,-2.4972,-2.4992,-2.4966,-2.4938,-2.4915,-2.485,-2.4753,-2.4704,-2.47,-2.4684,-2.4715,-2.473,-2.4687,-2.3777,-2.3037,-2.2953,-2.2918,-2.2928,-2.2905,-2.2896,-2.2879,-2.8107,-2.8025,-2.7236,-2.6832,-2.6774,-2.7563,-2.789,-2.789,-2.7811,-2.78,-2.7761,-2.6965,-2.6151,-2.5362,-2.4588,0.0,-2.5439,-2.6244,-2.702,-2.78,-2.78,-2.7835,-2.789,-2.789,-2.7475,-2.6699,-2.662,-2.6178,-2.5451,-2.5297,-2.5209,-2.5149,-2.3532,-2.2994,-2.348,-2.3498,-2.3849,-2.4596,-2.4674,-2.4717,-2.4717,-2.4768,-2.4813,-2.4813,-2.4875,-2.454,-2.3733,-2.293,-2.1781,-2.0273,-1.9301,-1.7757,-1.5567,0.0,0.0,0.0,0.0,0.0,0.0,0.0,0.0,0.0,0.0,0.0,0.0,0.0,0.0,0.0,-1.5846,0.0,-1.7898,-1.7834,0.0,0.0,0.0,-2.085,-2.2439,-2.2557,-2.2849,-2.3706,0.0,0.0,-2.4602,-2.4709,-2.4743,-2.4725,-2.4703,-2.4674,-2.4596,-2.4779,-2.4991,-2.5342,-2.5228,-2.5145,-2.5266,-2.5178,-2.5082,-2.5011,-2.4991,-2.495,-2.4842,-2.4749,-2.4753,-2.4791,-2.482,-2.4813,-2.4813,-2.467,-2.4655,-2.447,-2.4456,-2.4441,-2.4326,-2.4281,-2.4263,-2.9788,-2.9788,-2.9596,-2.8769,-2.7626,-2.7799,-2.789,-2.789,-2.7885,-2.7885,-2.786,-2.7607,-2.7368,-2.7161,-2.6964,-2.6983,-2.72,-2.7401,-2.7616,-2.78,-2.7855,-2.789,-2.789,-2.789,-2.7794,-2.7591,-2.7511,-2.7399,-2.719,-2.7108,-2.7052,-2.7033,-2.6536,-2.5635,-2.4429,-2.4384,-2.4489,-2.4657,-2.4734,-2.4783,-2.4776,-2.4779,-2.4834,-2.4962,-2.4957,-2.4599,-2.3802,-2.301,-2.2089,-2.1034,-1.9602,-1.8797,-1.8799,-1.7587,0.0,0.0,0.0,0.0,0.0,0.0,0.0,0.0,0.0,-1.4332,-1.4364,0.0,-1.6009,0.0,-1.7616,-1.965,-1.9611,-1.9584,0.0,0.0,-2.2018,-2.2397,-2.3452,-2.3509,-2.3777,-2.4598,-2.4666,-2.4662,-2.4779,-2.5341,-2.5736,-2.5736,-2.5139,-2.4698,-2.4695,-2.5344,-2.6095,-2.6775,-2.6408,-2.6015,-2.6054,-2.552,-2.5107,-2.5076,-2.5031,-2.4977,-2.4957,-2.4842,-2.4772,-2.4794,-2.487,-2.4903,-2.4832,-2.4791,-2.4776,-2.4727,-2.4634,-2.4582,-2.4557,-2.4549,-2.4541,-3.15,-3.1519,-3.1519,-3.0968,-3.0063,-2.9352,-2.9006,-2.9025,-2.9006,-2.9006,-2.8986,-2.8552,-2.817,-2.7846,-2.784,-2.8038,-2.8365,-2.8382,-2.8579,-2.8945,-2.9,-2.9025,-2.9025,-2.9006,-2.8813,-2.8453,-2.8398,-2.8176,-2.7813,-2.7767,-2.7745,-2.7701,-2.7636,-2.7049,-2.5959,-2.5536,-2.5325,-2.5306,-2.5013,-2.4861,-2.4896,-2.4889,-2.4943,-2.5004,-2.4985,-2.4809,-2.439,-2.3602,-2.277,-2.1885,-2.0622,-1.994,-2.0005,-1.8792,-1.7582,0.0,0.0,0.0,0.0,0.0,0.0,0.0,0.0,0.0,0.0,0.0,-1.7506,-1.7321,-1.9815,-2.1404,-2.1361,-2.1349,-2.1874,-2.3136,-2.3241,-2.3541,-2.4378,-2.4442,-2.4719,-2.552,-2.5588,-2.5674,-2.5979,-2.6431,-2.6737,-2.6719,-2.6269,-2.5642,-2.4986,-2.5808,-2.7157,-2.8417,-2.7677,-2.6904,-2.6963,-2.6263,-2.5678,-2.5647,-2.5336,-2.5044,-2.505,-2.4952,-2.4884,-2.4938,-2.4979,-2.5018,-2.4964,-2.4924,-2.4891,-2.4889,-2.4817,-2.4742,-2.4695,-2.4687,-2.469,-3.2891,-3.2891,-3.2891,-3.2891,-3.2776,-3.1327,-3.0712,-3.0712,-3.0615,-3.05,-3.0346,-2.9602,-2.8871,-2.8222,-2.8217,-2.8602,-2.9236,-2.9261,-2.9679,-3.0385,-3.0404,-3.0404,-3.0404,-3.0404,-3.0006,-2.9275,-2.9261,-2.8865,-2.8132,-2.8126,-2.808,-2.8039,-2.8046,-2.7961,-2.7782,-2.6904,-2.6329,-2.6106,-2.5407,-2.5045,-2.5003,-2.4984,-2.5004,-2.5018,-2.5018,-2.5051,-2.51,-2.4337,-2.3553,-2.2802,-2.1941,-2.1062,-2.0155,-1.9497,-1.8888,0.0,-1.7843,0.0,0.0,0.0,0.0,0.0,0.0,0.0,0.0,-1.789,-1.8654,-2.0376,-2.2092,-2.3081,-2.297,-2.2972,-2.328,-2.4077,-2.4278,-2.4609,-2.5294,-2.5461,-2.5809,-2.6485,-2.6517,-2.6768,-2.7357,-2.7587,-2.766,-2.7679,-2.7786,-2.7324,-2.5963,-2.6726,-2.8169,-2.9886,-2.8789,-2.775,-2.7599,-2.7033,-2.6568,-2.6473,-2.5882,-2.5291,-2.5317,-2.5151,-2.503,-2.5082,-2.5108,-2.5108,-2.5101,-2.5038,-2.5031,-2.5004,-2.4952,-2.4896,-2.4809,-2.4798,-2.4772,-3.2891,-3.2891,-3.2891,-3.2891,-3.2872,-3.2564,-3.2429,-3.2391,-3.1756,-3.1058,-3.0404,-3.0231,-3.0077,-2.9923,-2.9923,-3.0025,-3.016,-3.0154,-3.025,-3.0404,-3.0404,-3.0404,-3.0404,-3.0404,-3.0327,-3.016,-3.0135,-3.0071,-2.9917,-2.9855,-2.9825,-2.9813,-2.9741,-2.968,-2.9584,0.0,0.0,0.0,-2.6051,-2.5641,-2.5041,-2.4984,-2.503,-2.5089,-2.5089,0.0,-2.5151,-2.4342,-2.3842,-2.3711,-2.2896,0.0,0.0,0.0,0.0,0.0,0.0,0.0,0.0,0.0,0.0,0.0,-2.0861,-2.1047,-1.9731,-1.9671,-2.0427,-2.2166,-2.3832,-2.4562,-2.3932,-2.3855,-2.4173,-2.4952,-2.5686,-2.6175,-2.6343,-2.6891,-2.7349,-2.7434,-2.7453,-2.7471,-2.7653,-2.8146,-2.8539,-2.8596,-2.9167,-2.9444,-2.9068,-2.8666,-2.8969,-2.9882,-2.9279,-2.8414,-2.7797,-2.7587,-2.7447,-2.7344,-2.674,-2.6212,-2.6123,-2.5495,-2.5101,-2.512,-2.5151,-2.5169,-2.512,-2.5076,-2.507,-2.5082,-2.5076,-2.5018,-2.4842,-2.4805,-2.4805,-3.4173,0.0,-3.4192,-3.418,0.0,-3.4173,-3.418,-3.4096,-3.2852,-3.2038,-3.1641,-3.1641,-3.1635,-3.1641,-3.1635,-3.1423,-3.1038,-3.1038,-3.0808,-3.0404,-3.0404,-3.0404,-3.0404,-3.0404,-3.0404,-3.0404,-3.0404,-3.0404,-3.0404,-3.0373,-3.0329,-3.0299,-3.0266,-3.0213,-3.0138,-2.9687,-2.8596,-2.6906,-2.6481,-2.6056,-2.5639,-2.5259,-2.5057,-2.5082,0.0,0.0,0.0,0.0,0.0,0.0,0.0,0.0,0.0,0.0,0.0,-2.0647,-2.0676,-2.0523,-2.0089,-2.0842,-2.133,-2.1407,-2.257,-2.2762,-2.1531,-2.143,-2.1994,-2.3318,-2.4591,-2.5308,-2.5356,-2.5332,-2.5683,-2.6486,-2.6976,-2.7234,-2.7272,-2.7577,-2.7952,-2.8325,-2.837,-2.8473,-2.8899,-2.9256,-2.9516,-2.9561,-2.9898,-3.0185,-3.0147,-2.9777,-2.9672,-3.0121,-2.9913,-2.9474,-2.9053,-2.8574,-2.8332,-2.8236,-2.7643,-2.7159,-2.7102,-2.6008,-2.5278,-2.5633,-2.5485,-2.5193,-2.5169,-2.5151,-2.5145,-2.5107,-2.5082,-2.5076,-2.4972,-2.4952,-2.4933,-3.55,-3.55,-3.55,-3.55,-3.55,-3.55,-3.55,-3.5385,0.0,0.0,0.0,-3.2891,-3.2891,-3.2891,-3.2891,-3.2526,-3.1929,-3.191,-3.1519,-3.0865,-3.0827,-3.0769,-3.0635,-3.0615,-3.0558,-3.0404,-3.0404,-3.0404,-3.0404,-3.0404,-3.0367,-3.0304,-3.0299,-3.0266,-3.0225,-3.0169,-2.9453,-2.8107,-2.7196,-2.6611,-2.6326,-2.5666,-2.5266,-2.5125,-2.5125,-2.516,-2.5204,-2.5223,-2.4913,-2.4273,-2.424,-2.3832,-2.3026,-2.2925,-2.2858,-2.2734,-2.271,-2.2676,-2.2637,-2.2829,-2.2997,-2.3136,-2.3823,-2.3957,-2.328,-2.3184,-2.354,-2.4471,-2.5274,-2.6058,-2.6755,-2.6832,-2.7101,-2.7832,-2.8025,-2.8126,-2.8121,-2.822,-2.8606,-2.9171,-2.9262,-2.948,-3.012,-3.0228,-3.0312,-3.0292,-3.026,-3.0312,-3.0299,-3.018,-3.0092,-3.0206,-3.0177,-3.0254,-3.0184,-2.9698,-2.9263,-2.9212,-2.8554,-2.8036,-2.7794,-2.6711,-2.6062,-2.6603,-2.6094,-2.5725,-2.5495,-2.5495,-2.5344,-2.5169,-2.5125,-2.5119,-2.5114,-2.5107,-2.5101,-3.55,-3.55,-3.55,-3.55,-3.55,-3.55,-3.55,-3.5404,-3.4449,-3.3609,-3.291,-3.2891,-3.2891,-3.2891,-3.2891,-3.2833,-3.2737,-3.2737,-3.2679,-3.2545,-3.2545,-3.2179,-3.1525,-3.1525,-3.1115,-3.0442,-3.0404,-3.0404,-3.0404,-3.0404,-3.0354,-3.031,-3.0304,-3.0299,-3.0279,-3.0266,-3.0151,-2.9902,-2.9006,-2.7833,-2.6429,-2.6263,-2.5892,-2.5233,-2.5195,-2.5204,-2.5296,-2.5276,-2.5234,-2.5125,-2.5106,-2.474,-2.3962,-2.3847,-2.3506,-2.2848,-2.2734,-2.27,-2.2714,-2.339,-2.4153,-2.4859,-2.5057,-2.5062,-2.4965,-2.4942,-2.5303,-2.6159,-2.6986,-2.7563,-2.7703,-2.7722,-2.7775,-2.7992,-2.853,-2.8934,-2.8953,-2.9538,-2.995,-3.0061,-3.0131,-3.0113,-3.0248,-3.0299,-3.0299,-3.0312,-3.0324,-3.0318,-3.0312,-3.0299,-3.0266,-3.0292,-3.0305,-3.0305,-3.0292,-3.0235,-3.0043,-3.0125,-2.9378,-2.8847,-2.8847,-2.8107,-2.7506,-2.7602,-2.7506,-2.7161,-2.6529,-2.6324,-2.6014,-2.5488,-2.5291,-2.5266,-2.5222,-2.5184,-2.5166,-3.55,-3.55,-3.55,-3.55,-3.55,-3.55,-3.55,-3.5462,-3.5084,-3.468,-3.4353,-3.4288,-3.4308,-3.4314,-3.4308,-3.4045,-3.3609,-3.3603,-3.334,-3.291,-3.2891,-3.2699,-3.2391,-3.2352,-3.2135,-3.1756,-3.1308,-3.1096,-3.1077,-3.0635,-3.0398,-3.0348,-3.031,-3.0305,-3.0312,-3.0312,-3.0312,-3.0273,-2.9404,-2.8562,-2.7822,-2.6916,-2.6276,-2.591,-2.5464,-2.5231,-2.5287,-2.5311,-2.5302,-2.5303,-2.5308,-2.5135,-2.4793,-2.4707,-2.4548,-2.4197,-2.413,-2.4101,-2.412,-2.449,-2.486,-2.5269,-2.5745,-2.5995,-2.6004,-2.5567,-2.5654,-2.6582,-2.8179,-2.9044,-2.8607,-2.8549,-2.8736,-2.9212,-2.9602,-2.9813,-2.9852,-3.0115,-3.0379,-3.0367,-3.0348,-3.0361,-3.0343,-3.0362,-3.0343,-3.0343,-3.0343,-3.0343,-3.0336,-3.0343,-3.0336,-3.0305,-3.033,-3.0368,-3.0361,-3.0355,-3.0349,-3.0348,-3.0028,-2.9792,-2.9753,-2.9382,-2.9031,-2.8654,-2.8852,-2.8622,-2.753,-2.7211,-2.6822,-2.6165,-2.591,-2.5795,-2.5406,-2.5215,-2.5198,-3.55,-3.55,-3.55,-3.55,-3.55,-3.55,-3.55,-3.55,-3.5481,-3.55,-3.55,-3.55,-3.55,-3.55,-3.55,-3.5115,-3.4545,-3.4494,-3.4148,-3.3526,-3.3487,-3.3391,-3.3199,-3.3199,-3.3103,-3.2852,-3.2256,-3.1968,-3.1872,-3.1096,-3.0577,-3.0423,-3.0361,-3.0304,-3.0331,-3.0331,-3.0331,-3.0273,-2.9665,-2.9224,-2.8969,-2.7727,-2.7023,-2.6773,-2.5981,-2.555,-2.5566,-2.5412,-2.5307,-2.5308,-2.5308,-2.5308,-2.5308,-2.5308,-2.5308,-2.5308,-2.5308,-2.5308,-2.5308,-2.5308,-2.5385,-2.5596,-2.6217,-2.6678,-2.6813,-2.6288,-2.625,-2.7236,-2.9121,-3.0077,-2.9525,-2.939,-2.9679,-3.0308,-3.0404,-3.0346,-3.0385,-3.0404,-3.0404,-3.0404,-3.0404,-3.0404,-3.0404,-3.0404,-3.0398,-3.0398,-3.0404,-3.0404,-3.0404,-3.0404,-3.0373,-3.0342,-3.0373,-3.0398,-3.0404,-3.0398,-3.0398,-3.0404,-3.0385,-3.0302,-3.0321,-3.0359,-3.0186,-2.9586,-2.9886,-2.9636,-2.8449,-2.8092,-2.7746,-2.7017,-2.6628,-2.6206,-2.5414,-2.5228,-2.5222,-3.5538,-3.55,-3.5538,-3.55,-3.55,-3.55,-3.55,-3.55,-3.55,-3.55,-3.55,-3.55,-3.55,-3.55,-3.55,-3.5442,-3.5327,-3.5365,-3.5288,-3.5192,-3.525,-3.4853,-3.4122,-3.409,-3.3667,-3.3026,-3.2833,-3.2795,-3.2756,-3.1987,-3.1192,-3.0481,-3.0385,-3.0417,-3.0392,-3.0392,-3.0392,-3.0392,-3.0315,-2.99,-2.9133,-2.8931,-2.8506,-2.7788,-2.6918,-2.6481,-2.6462,-2.5731,-2.5322,-2.5308,-2.5327,-2.5308,-2.5308,-2.5308,-2.5308,-2.5308,-2.5308,-2.5308,-2.5327,-2.5308,-2.5692,-2.6385,-2.6582,-2.7005,-2.7698,-2.7717,-2.8011,-2.8813,-2.9788,-3.0308,-3.0288,-3.0231,-3.025,-3.0346,-3.0404,-3.0404,-3.0404,-3.0404,-3.0404,-3.0404,-3.0462,-3.0404,-3.05,-3.0577,-3.0538,-3.0673,-3.0712,-3.0712,-3.0673,-3.0673,-3.0654,-3.0533,-3.0442,-3.0423,-3.0423,-3.0404,-3.0404,-3.0404,-3.0404,-3.0404,-3.0404,-3.0404,-3.0321,-3.0167,-3.0244,-2.9975,-2.9404,-2.8942,-2.8662,-2.7857,-2.716,-2.6387,-2.558,-2.536,-2.5355,-3.6969,-3.6923,-3.643,-3.5923,-3.5519,-3.55,-3.55,-3.55,-3.55,-3.55,-3.55,-3.55,-3.55,-3.55,-3.55,-3.55,-3.55,-3.55,-3.55,-3.55,-3.55,-3.5308,-3.5007,-3.4968,-3.4757,-3.441,-3.393,-3.368,-3.3526,-3.2814,-3.1987,-3.125,-3.1154,-3.0923,-3.0442,-3.0404,-3.0404,-3.0404,-3.0404,-3.0225,-2.9848,-2.9346,-2.8953,-2.8569,-2.7794,-2.7371,-2.7351,-2.7005,-2.6601,-2.6135,-2.6077,-2.5827,-2.5327,-2.5308,-2.5308,-2.5327,-2.5808,-2.6077,-2.6058,-2.6544,-2.6986,-2.7351,-2.7818,-2.8236,-2.8582,-2.9083,-2.9544,-2.9846,-3.0192,-3.0404,-3.0404,-3.0404,-3.0404,-3.0404,-3.0404,-3.0404,-3.0404,-3.0404,-3.0404,-3.0442,-3.0865,-3.1173,-3.1231,-3.1602,-3.1852,-3.1891,-3.1865,-3.1795,-3.1852,-3.1891,-3.1891,-3.1833,-3.15,-3.0942,-3.0577,-3.0404,-3.0404,-3.0404,-3.0404,-3.0404,-3.0404,-3.0404,-3.0404,-3.0404,-3.0404,-3.0308,-3.0,-2.9813,-2.9596,-2.87,-2.7898,-2.711,-2.624,-2.6072,-2.5894,-3.8007,-3.7892,-3.7315,-3.6712,-3.6173,-3.5904,-3.5827,-3.5788,-3.5596,-3.55,-3.55,-3.55,-3.55,-3.55,-3.55,-3.55,-3.55,-3.55,-3.55,-3.55,-3.55,-3.5481,-3.55,-3.55,-3.55,-3.5404,-3.4872,-3.4436,-3.4167,-3.3603,-3.2852,-3.2122,-3.1814,-3.1385,-3.0808,-3.0558,-3.0404,-3.0404,-3.0404,-3.0404,-3.0308,-2.9794,-2.9454,-2.939,-2.8646,-2.8242,-2.8242,-2.803,-2.7621,-2.6986,-2.6948,-2.6673,-2.6058,-2.5865,-2.5769,-2.5827,-2.6505,-2.6967,-2.6967,-2.7544,-2.8011,-2.8242,-2.88,-2.9223,-2.9506,-3.0044,-3.0365,-3.0385,-3.0404,-3.0404,-3.0404,-3.0404,-3.0404,-3.0404,-3.0404,-3.0462,-3.0731,-3.0769,-3.0885,-3.1096,-3.1698,-3.2025,-3.2102,-3.2487,-3.2776,-3.2776,-3.2833,-3.2891,-3.2891,-3.2833,-3.2833,-3.2891,-3.2352,-3.1737,-3.0942,-3.0519,-3.0462,-3.0404,-3.0404,-3.0404,-3.0404,-3.0404,-3.0404,-3.0404,-3.0404,-3.0365,-3.025,-3.025,-3.0115,-2.9313,-2.8607,-2.7928,-2.7115,-2.6986,-2.6582,-3.8007,-3.8027,-3.7969,-3.7873,-3.7796,-3.7007,-3.6661,-3.6596,-3.5885,-3.5519,-3.5558,-3.55,-3.55,-3.55,-3.5488,-3.55,-3.55,-3.55,-3.55,-3.55,-3.55,-3.55,-3.55,-3.55,-3.55,-3.55,-3.5404,-3.4968,-3.4276,-3.4186,-3.3705,-3.2872,-3.2199,-3.1756,-3.1545,-3.0865,-3.0423,-3.05,-3.0423,-3.0404,-3.0385,-3.0346,-3.0269,-3.0192,-2.9506,-2.9069,-2.8973,-2.8319,-2.789,-2.7857,-2.7838,-2.7799,-2.7678,-2.7192,-2.6904,-2.7,-2.7486,-2.7832,-2.7832,-2.7992,-2.8319,-2.8915,-2.914,-2.9467,-3.0135,-3.0308,-3.0385,-3.0404,-3.0538,-3.0577,-3.05,-3.0558,-3.0519,-3.0519,-3.05,-3.0865,-3.1564,-3.1635,-3.2025,-3.2506,-3.2737,-3.291,-3.2891,-3.2872,-3.3083,-3.3103,-3.3006,-3.3064,-3.3179,-3.3083,-3.3103,-3.3103,-3.2929,-3.2564,-3.1769,-3.1077,-3.0596,-3.0404,-3.0404,-3.0404,-3.0404,-3.0404,-3.0404,-3.0404,-3.0404,-3.0404,-3.0404,-3.025,-3.0,-2.9563,-2.9319,-2.8698,-2.7967,-2.7871,-2.7467,-3.9284,-3.8834,-3.8834,-3.8527,-3.7969,-3.7661,-3.7526,-3.745,-3.6635,-3.6269,-3.6173,-3.5731,-3.55,-3.55,-3.5489,-3.5489,-3.5488,-3.55,-3.55,-3.55,-3.55,-3.55,-3.55,-3.55,-3.55,-3.55,-3.5481,-3.5346,-3.5084,-3.5026,-3.4584,-3.3833,-3.3449,-3.3045,-3.241,-3.1635,-3.1231,-3.1173,-3.0712,-3.0404,-3.0423,-3.0404,-3.0404,-3.0385,-3.0096,-2.9948,-2.9923,-2.9654,-2.9256,-2.8703,-2.8665,-2.8415,-2.7953,-2.7698,-2.7736,-2.8077,-2.8448,-2.8665,-2.8723,-2.9198,-2.9615,-2.9871,-2.9929,-3.0019,-3.0327,-3.0404,-3.0404,-3.0538,-3.1468,-3.1769,-3.1327,-3.1231,-3.1231,-3.1288,-3.1673,-3.2064,-3.2372,-3.2468,-3.2602,-3.291,-3.3333,-3.391,-3.4334,-3.4538,-3.4558,-3.4558,-3.4558,-3.45,-3.4538,-3.4538,-3.4462,-3.443,-3.4083,-3.3648,-3.3417,-3.2064,-3.1135,-3.0615,-3.0404,-3.0404,-3.0423,-3.0404,-3.0404,-3.0404,-3.0404,-3.0404,-3.0404,-3.0365,-3.0077,-3.0058,-2.9813,-2.941,-2.8838,-2.8717,-2.8275,-4.0189,-3.9727,-3.9688,-3.9361,-3.8815,-3.8527,-3.8411,-3.8315,-3.7488,-3.7123,-3.6969,-3.6264,-3.5925,-3.5874,-3.5644,-3.5528,-3.554,-3.5521,-3.5521,-3.554,-3.5521,-3.5521,-3.554,-3.554,-3.5515,-3.5521,-3.5508,-3.5501,-3.5501,-3.5488,-3.518,-3.4641,-3.4379,-3.3936,-3.3276,-3.2506,-3.2083,-3.1929,-3.125,-3.0827,-3.0788,-3.0538,-3.0404,-3.0404,-3.0404,-3.0404,-3.0404,-3.0404,-3.0154,-2.9621,-2.9506,-2.9275,-2.8775,-2.8698,-2.8871,-2.9212,-2.9429,-2.9506,-2.9583,-3.0083,-3.0385,-3.0404,-3.0385,-3.0404,-3.0404,-3.0404,-3.0404,-3.0737,-3.1915,-3.2691,-3.2531,-3.2479,-3.2415,-3.2243,-3.2583,-3.3026,-3.3256,-3.3321,-3.3468,-3.3814,-3.4295,-3.4891,-3.5365,-3.5442,-3.5423,-3.55,-3.55,-3.55,-3.55,-3.55,-3.55,-3.5442,-3.4968,-3.4468,-3.4083,-3.3103,-3.1987,-3.1391,-3.0865,-3.075,-3.0481,-3.0462,-3.0404,-3.0404,-3.0404,-3.0404,-3.0404,-3.0404,-3.0404,-3.0404,-3.0269,-2.9942,-2.966,-2.9544,-2.9044,-4.0496,-4.0439,-4.0496,-4.0381,-4.0189,-3.9565,-3.9304,-3.9142,-3.838,-3.8015,-3.7906,-3.7158,-3.6748,-3.6581,-3.6003,-3.5655,-3.5598,-3.5604,-3.5598,-3.5611,-3.5591,-3.5591,-3.5591,-3.5605,-3.5605,-3.5585,-3.5522,-3.549,-3.5509,-3.5515,-3.5456,-3.5315,-3.4655,-3.4334,-3.4205,-3.3378,-3.2917,-3.2756,-3.2122,-3.1698,-3.1615,-3.0942,-3.0519,-3.0481,-3.0442,-3.0404,-3.0404,-3.0404,-3.0365,-3.0327,-3.0327,-3.0385,-3.0192,-3.0192,-3.0308,-3.0231,-3.0327,-3.0365,-3.0333,-3.0365,-3.039,-3.0416,-3.041,-3.0416,-3.0416,-3.0531,-3.0544,-3.0652,-3.2118,-3.3271,-3.3664,-3.3959,-3.3826,-3.3102,-3.3134,-3.3519,-3.402,-3.4225,-3.4507,-3.5122,-3.5346,-3.5462,-3.5481,-3.55,-3.55,-3.55,-3.55,-3.55,-3.55,-3.55,-3.55,-3.55,-3.5327,-3.5026,-3.4603,-3.4109,-3.3122,-3.2237,-3.1718,-3.1352,-3.0827,-3.0635,-3.0442,-3.0404,-3.0404,-3.0404,-3.0404,-3.0404,-3.0404,-3.0404,-3.0385,-3.0365,-3.0192,-2.9967,-2.9794,-4.0496,-4.0496,-4.0496,-4.0496,-4.0477,-4.0227,-4.0131,-4.0042,-3.9249,-3.889,-3.8751,-3.8046,-3.7372,-3.6858,-3.6542,-3.6161,-3.5637,-3.566,-3.5637,-3.561,-3.5623,-3.5623,-3.5623,-3.5623,-3.5617,-3.5598,-3.5566,-3.5585,-3.556,-3.5566,-3.5579,-3.5483,-3.5297,-3.5149,-3.5034,-3.4257,-3.3801,-3.3705,-3.2949,-3.2526,-3.2449,-3.1718,-3.1295,-3.1212,-3.0731,-3.0404,-3.0404,-3.0404,-3.0404,-3.0404,-3.0404,-3.0404,-3.0404,-3.0404,-3.0404,-3.0404,-3.0404,-3.0396,-3.0394,-3.04,-3.0431,-3.0447,-3.0453,-3.0472,-3.0588,-3.1193,-3.1226,-3.0975,-3.2987,-3.4631,-3.4168,-3.4697,-3.4743,-3.3947,-3.4391,-3.4751,-3.4982,-3.5085,-3.5207,-3.5411,-3.55,-3.55,-3.55,-3.55,-3.5488,-3.55,-3.55,-3.55,-3.55,-3.55,-3.55,-3.55,-3.5462,-3.5442,-3.5084,-3.4776,-3.4218,-3.3295,-3.266,-3.1852,-3.1288,-3.0654,-3.0481,-3.0404,-3.0404,-3.0404,-3.0404,-3.0404,-3.0404,-3.0404,-3.0385,-3.0385,-3.0404,-3.0269,-3.0058,-4.0496,-4.0496,-4.0496,-4.0496,-4.0496,-4.0531,-4.0539,-4.0481,-3.9998,-3.9762,-3.9615,-3.8935,-3.8305,-3.7745,-3.7228,-3.6638,-3.6128,-3.5848,-3.5678,-3.5629,-3.5623,-3.5643,-3.5643,-3.5648,-3.5637,-3.5626,-3.5614,-3.5608,-3.5616,-3.5623,-3.5617,-3.5617,-3.5617,-3.5572,-3.5509,-3.5027,-3.4744,-3.4591,-3.3878,-3.3416,-3.3262,-3.2607,-3.2177,-3.2062,-3.1368,-3.0945,-3.0906,-3.0637,-3.0439,-3.0408,-3.0433,-3.0433,-3.039,-3.0427,-3.0444,-3.0444,-3.0425,-3.0436,-3.0433,-3.0458,-3.0458,-3.0479,-3.0485,-3.0678,-3.1025,-3.181,-3.1824,-3.1973,-3.392,-3.5325,-3.4833,-3.5151,-3.5334,-3.4908,-3.5216,-3.5584,-3.5598,-3.556,-3.5522,-3.5527,-3.5527,-3.5527,-3.5514,-3.5501,-3.5494,-3.5488,-3.55,-3.55,-3.55,-3.55,-3.5481,-3.5481,-3.5481,-3.5481,-3.5481,-3.5346,-3.5231,-3.4442,-3.3622,-3.2622,-3.1756,-3.0885,-3.0404,-3.0404,-3.0404,-3.0404,-3.0404,-3.0404,-3.0404,-3.0404,-3.0404,-3.0404,-3.0404,-3.0404,-3.025,-4.0496,-4.0496,-4.0496,-4.0523,-4.0512,-4.0561,-4.0595,-4.0595,-4.0554,-4.0518,-4.0358,-3.9792,-3.9418,-3.9081,-3.7968,-3.7239,-3.6857,-3.6246,-3.5819,-3.5757,-3.5718,-3.5713,-3.5694,-3.5689,-3.5698,-3.5683,-3.5643,-3.5621,-3.5623,-3.562,-3.561,-3.5622,-3.5622,-3.5604,-3.5584,-3.5559,-3.5501,-3.5354,-3.4723,-3.4357,-3.4318,-3.3527,-3.3064,-3.302,-3.2293,-3.1849,-3.1747,-3.1116,-3.0584,-3.0428,-3.0458,-3.0472,-3.0439,-3.0472,-3.0499,-3.0504,-3.0485,-3.0479,-3.0485,-3.049,-3.0514,-3.05,-3.0665,-3.0895,-3.163,-3.2225,-3.2684,-3.2943,-3.4607,-3.5664,-3.5582,-3.5655,-3.5655,-3.5669,-3.5602,-3.5628,-3.5604,-3.5604,-3.5573,-3.5528,-3.5547,-3.5579,-3.5521,-3.5522,-3.5509,-3.5508,-3.5501,-3.552,-3.5507,-3.5507,-3.5488,-3.5488,-3.5488,-3.5488,-3.5488,-3.5462,-3.5365,-3.5096,-3.4391,-3.3583,-3.2468,-3.1525,-3.0808,-3.075,-3.0462,-3.0442,-3.0404,-3.0404,-3.0404,-3.0404,-3.0404,-3.0404,-3.0404,-3.0404,-3.0404,-4.0531,-4.0573,-4.0573,-4.0576,-4.0579,-4.0593,-4.06,-4.06,-4.0654,-4.0662,-4.0617,-4.0507,-4.0078,-3.955,-3.9111,-3.8283,-3.7316,-3.6833,-3.6344,-3.5908,-3.583,-3.5791,-3.5722,-3.5708,-3.5708,-3.5699,-3.5694,-3.5679,-3.5679,-3.5664,-3.5678,-3.5669,-3.5681,-3.564,-3.5604,-3.5626,-3.5616,-3.5604,-3.5424,-3.5237,-3.5102,-3.4407,-3.3977,-3.388,-3.3134,-3.2703,-3.2607,-3.1895,-3.1123,-3.0513,-3.0474,-3.0493,-3.0463,-3.0499,-3.0525,-3.055,-3.053,-3.049,-3.051,-3.0583,-3.0603,-3.0626,-3.1201,-3.1641,-3.1854,-3.3137,-3.3694,-3.4032,-3.4967,-3.5732,-3.5761,-3.5737,-3.5713,-3.5704,-3.5688,-3.5651,-3.5623,-3.5601,-3.559,-3.5579,-3.5591,-3.561,-3.5622,-3.5584,-3.556,-3.5566,-3.556,-3.5547,-3.554,-3.5554,-3.5547,-3.5508,-3.5501,-3.5501,-3.5494,-3.5488,-3.5481,-3.5462,-3.5103,-3.4699,-3.3583,-3.2526,-3.2,-3.1712,-3.0923,-3.0673,-3.05,-3.0404,-3.0404,-3.0404,-3.0404,-3.0404,-3.0404,-3.0404,-3.0404,-4.0557,-4.0591,-4.0591,-4.0586,-4.0614,-4.0628,-4.0641,-4.0662,-4.0707,-4.0725,-4.0756,-4.0823,-4.058,-4.015,-3.9767,-3.9149,-3.8198,-3.7463,-3.6878,-3.6456,-3.6073,-3.5868,-3.5803,-3.5791,-3.5786,-3.5735,-3.5754,-3.5745,-3.5747,-3.5742,-3.5718,-3.5704,-3.5713,-3.5674,-3.5664,-3.5648,-3.5651,-3.5635,-3.5654,-3.5654,-3.5596,-3.5171,-3.4939,-3.4726,-3.4088,-3.3532,-3.3093,-3.2619,-3.1831,-3.0824,-3.054,-3.055,-3.054,-3.054,-3.0559,-3.0606,-3.0564,-3.0535,-3.0641,-3.0892,-3.1157,-3.131,-3.1952,-3.2585,-3.3055,-3.399,-3.4436,-3.4874,-3.5435,-3.5709,-3.5822,-3.5799,-3.5791,-3.5791,-3.575,-3.5713,-3.5649,-3.5648,-3.564,-3.5651,-3.5645,-3.5656,-3.5709,-3.5645,-3.5622,-3.5623,-3.5611,-3.5573,-3.5554,-3.5579,-3.5598,-3.5579,-3.5547,-3.5547,-3.5547,-3.5541,-3.5554,-3.5547,-3.5483,-3.5194,-3.4443,-3.3346,-3.2666,-3.2089,-3.1391,-3.0871,-3.0679,-3.0506,-3.0404,-3.0404,-3.0404,-3.0404,-3.041,-3.0416,-3.0416,-4.0595,-4.0614,-4.0621,-4.0621,-4.0635,-4.0681,-4.072,-4.0706,-4.0775,-4.0823,-4.0818,-4.0883,-4.0854,-4.0858,-4.0228,-3.9782,-3.9528,-3.8283,-3.7511,-3.6955,-3.6376,-3.5897,-3.5895,-3.5882,-3.5852,-3.5802,-3.5799,-3.5819,-3.5814,-3.5821,-3.5784,-3.576,-3.5727,-3.5698,-3.5698,-3.5694,-3.5713,-3.5728,-3.5718,-3.5718,-3.5694,-3.5578,-3.5514,-3.5418,-3.5001,-3.4216,-3.3643,-3.3236,-3.2593,-3.0893,-3.0834,-3.0877,-3.079,-3.0662,-3.0974,-3.1075,-3.1149,-3.1106,-3.1056,-3.1743,-3.2061,-3.2205,-3.2846,-3.3627,-3.4198,-3.4595,-3.501,-3.555,-3.5788,-3.5829,-3.5869,-3.5889,-3.5878,-3.5852,-3.5818,-3.5788,-3.5741,-3.5718,-3.5713,-3.5706,-3.5716,-3.5716,-3.5701,-3.5654,-3.5612,-3.5648,-3.5637,-3.562,-3.5602,-3.5633,-3.5651,-3.5676,-3.5628,-3.5598,-3.5617,-3.5611,-3.5605,-3.5605,-3.5598,-3.5354,-3.488,-3.3962,-3.3089,-3.2409,-3.1991,-3.1432,-3.0895,-3.0716,-3.0537,-3.0408,-3.0425,-3.0433,-3.0421,-3.0439,-3.0444,-4.0628,-4.0674,-4.0681,-4.0707,-4.0751,-4.0767,-4.0784,-4.079,-4.0856,-4.0883,-4.0893,-4.0902,-4.0932,-4.0949,-4.0733,-4.0403,-3.9869,-3.9243,-3.861,-3.7147,-3.6348,-3.6016,-3.5968,-3.5933,-3.5894,-3.5882,-3.5879,-3.5885,-3.5868,-3.5861,-3.5861,-3.5834,-3.5795,-3.5772,-3.5764,-3.5767,-3.5782,-3.5778,-3.5784,-3.578,-3.5775,-3.5722,-3.5718,-3.5698,-3.5538,-3.507,-3.4408,-3.4218,-3.3705,-3.2916,-3.257,-3.2146,-3.1276,-3.1889,-3.2516,-3.2652,-3.259,-3.2563,-3.2664,-3.2769,-3.2981,-3.3078,-3.3754,-3.4386,-3.4542,-3.5226,-3.558,-3.5872,-3.5885,-3.5908,-3.59,-3.5903,-3.5897,-3.5908,-3.5879,-3.5869,-3.5857,-3.581,-3.579,-3.5776,-3.5723,-3.5723,-3.5766,-3.5733,-3.5698,-3.5693,-3.5683,-3.5672,-3.5681,-3.569,-3.5695,-3.5706,-3.5665,-3.5631,-3.5626,-3.5626,-3.5626,-3.5626,-3.5639,-3.5608,-3.5115,-3.4827,-3.4075,-3.3367,-3.2736,-3.2127,-3.1405,-3.0877,-3.0684,-3.0574,-3.0458,-3.0453,-3.0466,-3.0472,-3.0453,-4.0719,-4.0732,-4.0756,-4.0748,-4.0804,-4.0832,-4.0833,-4.0849,-4.0874,-4.0917,-4.0924,-4.0937,-4.0963,-4.1,-4.1022,-4.0786,-4.0387,-3.9915,-3.8871,-3.7491,-3.6752,-3.6404,-3.601,-3.596,-3.5945,-3.596,-3.5938,-3.5931,-3.59,-3.5894,-3.5894,-3.5885,-3.5869,-3.584,-3.5833,-3.5838,-3.585,-3.5846,-3.5838,-3.5854,-3.585,-3.5822,-3.5795,-3.5799,-3.5807,-3.557,-3.5208,-3.5169,-3.4901,-3.459,-3.4404,-3.3654,-3.2264,-3.273,-3.3557,-3.4326,-3.3607,-3.3312,-3.3261,-3.3647,-3.3917,-3.392,-3.4697,-3.5057,-3.5257,-3.5708,-3.5886,-3.5947,-3.5953,-3.5941,-3.5946,-3.5965,-3.5943,-3.5938,-3.5936,-3.5953,-3.5939,-3.5895,-3.5846,-3.5838,-3.5791,-3.5791,-3.5786,-3.5773,-3.5756,-3.5737,-3.5732,-3.5742,-3.5703,-3.5693,-3.5693,-3.5693,-3.5664,-3.5648,-3.5637,-3.5657,-3.5667,-3.5667,-3.5667,-3.5662,-3.5472,-3.532,-3.5173,-3.437,-3.3484,-3.269,-3.2017,-3.1449,-3.0862,-3.0595,-3.0499,-3.0485,-3.0485,-3.0499,-3.0479,-4.0818,-4.0818,-4.0809,-4.0809,-4.0809,-4.0893,-4.0922,-4.0911,-4.0913,-4.0953,-4.1011,-4.1026,-4.1019,-4.1028,-4.1089,-4.11,-4.0857,-4.0185,-3.9005,-3.8091,-3.7647,-3.7062,-3.6515,-3.6316,-3.6172,-3.6054,-3.6007,-3.596,-3.5931,-3.5931,-3.5924,-3.5916,-3.5906,-3.59,-3.5914,-3.5908,-3.5921,-3.5921,-3.5895,-3.5892,-3.5892,-3.5889,-3.5866,-3.5872,-3.5872,-3.5876,-3.5785,-3.5785,-3.582,-3.5918,-3.593,-3.5104,-3.4135,-3.375,-3.4237,-3.5778,-3.4571,-3.4082,-3.4107,-3.445,-3.4829,-3.4848,-3.541,-3.5812,-3.5892,-3.5895,-3.5955,-3.5979,-3.5979,-3.6005,-3.6007,-3.6009,-3.6009,-3.6005,-3.6005,-3.6005,-3.5999,-3.5947,-3.5918,-3.5882,-3.5849,-3.5818,-3.5815,-3.5807,-3.5803,-3.5806,-3.5801,-3.5788,-3.5751,-3.5727,-3.5732,-3.5751,-3.5722,-3.5704,-3.5708,-3.5674,-3.5684,-3.5689,-3.5699,-3.5689,-3.5703,-3.5586,-3.5391,-3.4952,-3.4157,-3.3379,-3.2593,-3.1932,-3.1352,-3.0819,-3.0535,-3.054,-3.053,-3.053,-3.051,-4.0893,-4.0898,-4.0882,-4.0891,-4.0876,-4.0952,-4.0992,-4.0976,-4.099,-4.1029,-4.1084,-4.1081,-4.1074,-4.1085,-4.1097,-4.1111,-4.0903,-4.0321,-3.9737,-3.9173,-3.8687,-3.7926,-3.7242,-3.6929,-3.6653,-3.6159,-3.6012,-3.5995,-3.5988,-3.5981,-3.5986,-3.5981,-3.5977,-3.5975,-3.5975,-3.5975,-3.5987,-3.5963,-3.5938,-3.5894,-3.5894,-3.5908,-3.5906,-3.5894,-3.5894,-3.5919,-3.5968,-3.5992,-3.5994,-3.5975,-3.5975,-3.5775,-3.541,-3.5304,-3.5546,-3.5729,-3.5551,-3.5134,-3.5254,-3.55,-3.5741,-3.5802,-3.5884,-3.5964,-3.5986,-3.5988,-3.5972,-3.5968,-3.5972,-3.6019,-3.6007,-3.6009,-3.6004,-3.602,-3.6019,-3.6017,-3.599,-3.5981,-3.5951,-3.5921,-3.5883,-3.5882,-3.5879,-3.5872,-3.5862,-3.5849,-3.5845,-3.5823,-3.5791,-3.5783,-3.5803,-3.5799,-3.5811,-3.5801,-3.5775,-3.5742,-3.5732,-3.5722,-3.5727,-3.5742,-3.5732,-3.5704,-3.5471,-3.52,-3.4759,-3.4076,-3.3287,-3.2512,-3.1733,-3.1115,-3.0838,-3.0595,-3.0563,-3.0568,-3.0586,-4.0954,-4.0948,-4.0953,-4.0941,-4.0964,-4.1029,-4.1046,-4.1036,-4.105,-4.1059,-4.1091,-4.1105,-4.1117,-4.1104,-4.1115,-4.1103,-4.097,-4.0758,-4.0289,-3.9879,-3.9432,-3.8807,-3.7967,-3.7576,-3.7107,-3.6636,-3.6279,-3.6037,-3.6014,-3.5995,-3.6012,-3.6007,-3.6002,-3.6017,-3.6011,-3.6005,-3.6007,-3.5984,-3.5962,-3.5938,-3.5938,-3.5951,-3.5953,-3.5936,-3.5938,-3.596,-3.6003,-3.6005,-3.6005,-3.6005,-3.6009,-3.6009,-3.5988,-3.5974,-3.5958,-3.598,-3.5968,-3.5938,-3.594,-3.5988,-3.5974,-3.6001,-3.6004,-3.601,-3.6013,-3.5995,-3.5992,-3.5973,-3.5971,-3.6017,-3.6003,-3.6003,-3.6002,-3.6019,-3.6018,-3.6016,-3.6014,-3.6013,-3.5989,-3.596,-3.5962,-3.5946,-3.596,-3.5936,-3.5928,-3.5903,-3.5897,-3.5872,-3.5838,-3.5852,-3.5853,-3.585,-3.5859,-3.5841,-3.5838,-3.5807,-3.5771,-3.5775,-3.5771,-3.5786,-3.5786,-3.5786,-3.5799,-3.5675,-3.5173,-3.4693,-3.4022,-3.3237,-3.2331,-3.1409,-3.0998,-3.0683,-3.0625,-3.061,-3.0641,-4.1015,-4.1018,-4.1036,-4.1023,-4.1026,-4.1089,-4.11,-4.1106,-4.1098,-4.1105,-4.1107,-4.1106,-4.1114,-4.1116,-4.1103,-4.1108,-4.1109,-4.1092,-4.0721,-4.0351,-4.0176,-3.9687,-3.8848,-3.8242,-3.7792,-3.7479,-3.6756,-3.6168,-3.6028,-3.6009,-3.6008,-3.6004,-3.6018,-3.6014,-3.6009,-3.6006,-3.6019,-3.6017,-3.6017,-3.6017,-3.6017,-3.6017,-3.6017,-3.6017,-3.6017,-3.5999,-3.6002,-3.6002,-3.6002,-3.6004,-3.6006,-3.6004,-3.6019,-3.6016,-3.6004,-3.6019,-3.6007,-3.6019,-3.6001,-3.5985,-3.6012,-3.6017,-3.6002,-3.6007,-3.6009,-3.6008,-3.6009,-3.6011,-3.6011,-3.6009,-3.6009,-3.601,-3.601,-3.601,-3.6009,-3.601,-3.6009,-3.6008,-3.6006,-3.5999,-3.6007,-3.5997,-3.5988,-3.5997,-3.5968,-3.5946,-3.5943,-3.5938,-3.5914,-3.5917,-3.5928,-3.5908,-3.59,-3.5888,-3.5876,-3.5869,-3.5843,-3.584,-3.584,-3.5856,-3.5856,-3.5875,-3.5885,-3.5869,-3.5771,-3.5251,-3.4617,-3.3839,-3.2769,-3.1864,-3.1165,-3.0758,-3.0676,-3.0664,-3.0667,-4.1095,-4.1083,-4.1086,-4.1089,-4.1086,-4.1111,-4.11,-4.1111,-4.1101,-4.1109,-4.1114,-4.1102,-4.1105,-4.1107,-4.111,-4.1132,-4.1172,-4.1152,-4.1074,-4.0879,-4.0879,-4.0488,-3.9824,-3.9707,-3.8945,-3.8398,-3.7578,-3.6737,-3.6344,-3.6187,-3.6011,-3.6009,-3.6009,-3.6008,-3.6005,-3.6003,-3.6008,-3.6007,-3.6007,-3.6006,-3.6006,-3.6005,-3.6005,-3.6006,-3.6006,-3.6005,-3.6004,-3.6003,-3.6004,-3.6005,-3.6007,-3.6003,-3.6014,-3.6004,-3.6012,-3.6014,-3.6012,-3.6008,-3.6006,-3.6005,-3.6006,-3.6008,-3.6009,-3.601,-3.6011,-3.6011,-3.6011,-3.6011,-3.6014,-3.6014,-3.6012,-3.6011,-3.6011,-3.6011,-3.6012,-3.6012,-3.6011,-3.6013,-3.6012,-3.6011,-3.6003,-3.6013,-3.6004,-3.6013,-3.6003,-3.5984,-3.5984,-3.5981,-3.5977,-3.5977,-3.597,-3.5968,-3.5946,-3.5933,-3.5911,-3.5908,-3.5908,-3.5906,-3.5906,-3.5903,-3.59,-3.5917,-3.5903,-3.5903,-3.5866,-3.5697,-3.5019,-3.4156,-3.3103,-3.2302,-3.1615,-3.1113,-3.0713,-3.0694,-3.071,-4.1115,-4.1113,-4.11,-4.1109,-4.1115,-4.1101,-4.1108,-4.1116,-4.1099,-4.1102,-4.1104,-4.1108,-4.113,-4.1151,-4.1152,-4.1172,-4.1191,-4.1191,-4.1191,-4.1191,-4.1172,-4.0976,-4.0586,-4.0156,-3.959,-3.9277,-3.8535,-3.7988,-3.7305,-3.6484,-3.6014,-3.6052,-3.6032,-3.6012,-3.6011,-3.6011,-3.601,-3.601,-3.601,-3.601,-3.601,-3.6011,-3.6011,-3.6011,-3.6011,-3.6011,-3.6011,-3.601,-3.601,-3.601,-3.601,-3.6009,-3.6007,-3.6011,-3.6014,-3.6015,-3.6015,-3.6013,-3.6011,-3.6011,-3.6012,-3.6013,-3.6013,-3.6013,-3.6014,-3.6016,-3.6016,-3.6015,-3.6015,-3.6016,-3.6016,-3.6015,-3.6014,-3.6016,-3.6016,-3.6016,-3.6016,-3.6016,-3.6015,-3.6014,-3.6012,-3.6008,-3.6022,-3.6018,-3.6013,-3.6012,-3.5992,-3.5989,-3.6004,-3.6001,-3.5992,-3.6001,-3.5979,-3.5975,-3.5973,-3.5953,-3.5973,-3.5973,-3.5973,-3.597,-3.5948,-3.5948,-3.5934,-3.5955,-3.5951,-3.569,-3.5293,-3.4614,-3.3707,-3.2889,-3.2074,-3.1487,-3.0923,-3.0755,-3.0757,-4.1117,-4.1113,-4.1101,-4.1109,-4.1115,-4.1099,-4.1103,-4.1107,-4.1108,-4.1108,-4.111,-4.1111,-4.1171,-4.1191,-4.1191,-4.1191,-4.1191,-4.1191,-4.1191,-4.1191,-4.1191,-4.1172,-4.0957,-4.0488,-4.0273,-4.0176,-3.9336,-3.8906,-3.8437,-3.7598,-3.6738,-3.6347,-3.6444,-3.6229,-3.6052,-3.6013,-3.6013,-3.6013,-3.6013,-3.6013,-3.6013,-3.6013,-3.6013,-3.6013,-3.6013,-3.6016,-3.6013,-3.6013,-3.6013,-3.6013,-3.6013,-3.6013,-3.6013,-3.6014,-3.6015,-3.6016,-3.6016,-3.6015,-3.6014,-3.6013,-3.6014,-3.6014,-3.6015,-3.6016,-3.6016,-3.6016,-3.6016,-3.6016,-3.6016,-3.6016,-3.6016,-3.6016,-3.6016,-3.6016,-3.6016,-3.6016,-3.6016,-3.6016,-3.6016,-3.6015,-3.6015,-3.6014,-3.6013,-3.6012,-3.6011,-3.601,-3.6009,-3.6007,-3.6003,-3.6017,-3.6014,-3.6006,-3.6006,-3.5985,-3.5985,-3.6002,-3.6001,-3.6017,-3.6017,-3.5999,-3.598,-3.5976,-3.5976,-3.5997,-3.6002,-3.5907,-3.5651,-3.5006,-3.434,-3.3349,-3.2413,-3.169,-3.1185,-3.0958,-3.0806,-4.1107,-4.1105,-4.1106,-4.1106,-4.1106,-4.1106,-4.1107,-4.1108,-4.111,-4.1111,-4.1131,-4.1152,-4.1191,-4.1191,-4.1191,-4.1191,-4.1191,-4.1191,-4.1191,-4.1191,-4.1191,-4.1191,-4.1113,-4.1055,-4.0996,-4.0859,-4.0195,-3.9844,-3.9648,-3.8984,-3.8008,-3.7324,-3.7109,-3.6641,-3.6289,-3.6094,-3.6016,-3.6016,-3.6016,-3.6016,-3.6016,-3.6016,-3.6016,-3.6016,-3.6016,-3.6016,-3.6016,-3.6016,-3.6016,-3.6016,-3.6016,-3.6016,-3.6016,-3.6016,-3.6016,-3.6016,-3.6016,-3.6016,-3.6016,-3.6016,-3.6016,-3.6016,-3.6016,-3.6016,-3.6016,-3.6016,-3.6016,-3.6016,-3.6016,-3.6016,-3.6016,-3.6016,-3.6016,-3.6016,-3.6016,-3.6016,-3.6016,-3.6016,-3.6016,-3.6016,-3.6016,-3.6016,-3.6016,-3.6016,-3.6016,-3.6013,-3.6013,-3.6011,-3.6011,-3.6009,-3.6009,-3.6007,-3.6007,-3.6007,-3.6007,-3.6005,-3.6019,-3.6018,-3.6018,-3.6002,-3.6005,-3.6002,-3.5994,-3.6,-3.6003,-3.6007,-3.5948,-3.5387,-3.4669,-3.3647,-3.2748,-3.2051,-3.1329,-3.0924,-3.0825,-4.1171,-4.1171,-4.1151,-4.1151,-4.111,-4.111,-4.1111,-4.1151,-4.1171,-4.1152,-4.1172,-4.1172,-4.1191,-4.1191,-4.1191,-4.1191,-4.1191,-4.1191,-4.1191,-4.1191,-4.1191,-4.1191,-4.1191,-4.1191,-4.1172,-4.1133,-4.0801,-4.0684,-4.0625,-4.0137,-3.9687,-3.8945,-3.7969,-3.7266,-3.6777,-3.6269,-3.6035,-3.6016,-3.6016,-3.6016,-3.6016,-3.6016,-3.6016,-3.6016,-3.6016,-3.6016,-3.6016,-3.6016,-3.6016,-3.6016,-3.6016,-3.6016,-3.6016,-3.6016,-3.6016,-3.6016,-3.6016,-3.6016,-3.6016,-3.6016,-3.6016,-3.6016,-3.6016,-3.6016,-3.6016,-3.6016,-3.6016,-3.6016,-3.6016,-3.6016,-3.6016,-3.6016,-3.6016,-3.6016,-3.6016,-3.6016,-3.6016,-3.6016,-3.6016,-3.6016,-3.6016,-3.6016,-3.6016,-3.6016,-3.6016,-3.6015,-3.6015,-3.6014,-3.6014,-3.6013,-3.6013,-3.6012,-3.6012,-3.6012,-3.6012,-3.6011,-3.6016,-3.6011,-3.6011,-3.6011,-3.6012,-3.601,-3.6007,-3.6011,-3.6013,-3.6013,-3.5913,-3.5712,-3.5082,-3.416,-3.3283,-3.2447,-3.1744,-3.0941,-3.0861,-4.1191,-4.1191,-4.1191,-4.1172,-4.1132,-4.1132,-4.1152,-4.1191,-4.1191,-4.1191,-4.1191,-4.1191,-4.1191,-4.1191,-4.1191,-4.1191,-4.1191,-4.1191,-4.1191,-4.1191,-4.1191,-4.1191,-4.1191,-4.1191,-4.1152,-4.1172,-4.1171,-4.1113,-4.1055,-4.1152,-4.0703,-3.9883,-3.8848,-3.8086,-3.707,-3.6484,-3.6016,-3.6016,-3.6016,-3.6016,-3.6016,-3.6016,-3.6016,-3.6016,-3.6016,-3.6016,-3.6016,-3.6016,-3.6016,-3.6016,-3.6016,-3.6016,-3.6016,-3.6016,-3.6016,-3.6016,-3.6016,-3.6016,-3.6016,-3.6016,-3.6016,-3.6016,-3.6016,-3.6016,-3.6016,-3.6016,-3.6016,-3.6016,-3.6016,-3.6015,-3.6015,-3.6016,-3.6016,-3.6016,-3.6016,-3.6016,-3.6016,-3.6016,-3.6016,-3.6016,-3.6016,-3.6016,-3.6016,-3.6016,-3.6016,-3.6016,-3.6015,-3.6015,-3.6015,-3.6015,-3.6015,-3.6014,-3.6014,-3.6014,-3.6013,-3.6016,-3.6016,-3.6014,-3.6014,-3.6014,-3.6014,-3.6016,-3.6016,-3.6014,-3.6015,-3.6015,-3.5937,-3.582,-3.5371,-3.4779,-3.3686,-3.2435,-3.1634,-3.089,-3.0892,-4.1191,-4.1191,-4.1191,-4.1191,-4.1191,-4.1191,-4.1191,-4.1191,-4.1191,-4.1191,-4.1191,-4.1191,-4.1191,-4.1191,-4.1191,-4.1191,-4.1191,-4.1191,-4.1191,-4.1172,-4.1172,-4.1191,-4.1172,-4.1151,-4.1131,-4.1111,-4.111,-4.1109,-4.1108,-4.1129,-4.1011,-4.0757,-3.9821,-3.8789,-3.7383,-3.6445,-3.6055,-3.6035,-3.6094,-3.6016,-3.6016,-3.6016,-3.6016,-3.6016,-3.6016,-3.6016,-3.6016,-3.6016,-3.6016,-3.6016,-3.6016,-3.6016,-3.6016,-3.6016,-3.6016,-3.6016,-3.6016,-3.6016,-3.6016,-3.6016,-3.6016,-3.6016,-3.6016,-3.6016,-3.6016,-3.6016,-3.6015,-3.6015,-3.6012,-3.6011,-3.6011,-3.6011,-3.6012,-3.6012,-3.6012,-3.6012,-3.6012,-3.6012,-3.6013,-3.6013,-3.6012,-3.6016,-3.6016,-3.6016,-3.6016,-3.6015,-3.6016,-3.6016,-3.6016,-3.6015,-3.6015,-3.6016,-3.6016,-3.6016,-3.6016,-3.6016,-3.6016,-3.6016,-3.6016,-3.6016,-3.6016,-3.6016,-3.6016,-3.6016,-3.6016,-3.6016,-3.6016,-3.5996,-3.5449,-3.4803,-3.3395,-3.2223,-3.1422,-3.0918,-3.0918,-4.1191,-4.1191,-4.1191,-4.1191,-4.1191,-4.1191,-4.1191,-4.1191,-4.1191,-4.1191,-4.1191,-4.1191,-4.1191,-4.1191,-4.1191,-4.1191,-4.1151,-4.1132,-4.1132,-4.113,-4.1131,-4.1113,-4.111,-4.113,-4.1108,-4.1108,-4.1108,-4.1106,-4.1108,-4.1105,-4.1106,-4.0892,-4.0343,-3.9292,-3.8242,-3.7361,-3.6875,-3.6738,-3.6406,-3.6016,-3.6033,-3.6052,-3.6033,-3.6033,-3.6014,-3.6014,-3.6014,-3.6014,-3.6014,-3.6014,-3.6014,-3.6014,-3.6014,-3.6014,-3.6013,-3.6013,-3.6013,-3.6013,-3.6013,-3.6016,-3.6016,-3.6015,-3.6015,-3.6015,-3.6015,-3.6016,-3.6015,-3.6012,-3.6005,-3.6005,-3.6009,-3.601,-3.6011,-3.6011,-3.6011,-3.6011,-3.6011,-3.6011,-3.6011,-3.6011,-3.6011,-3.6009,-3.6009,-3.6009,-3.6012,-3.6014,-3.6015,-3.6015,-3.6016,-3.6016,-3.6016,-3.6016,-3.6016,-3.6016,-3.6016,-3.6016,-3.6016,-3.6016,-3.6016,-3.6016,-3.6016,-3.6016,-3.6016,-3.6016,-3.6016,-3.6016,-3.6016,-3.5918,-3.5488,-3.4687,-3.3633,-3.2637,-3.1875,-3.1309,-3.0918,-4.1191,-4.1191,-4.1191,-4.1191,-4.1191,-4.1191,-4.1191,-4.1191,-4.1191,-4.1191,-4.1191,-4.1172,-4.1152,-4.1172,-4.1152,-4.1151,-4.111,-4.111,-4.111,-4.1107,-4.1108,-4.1108,-4.1108,-4.1105,-4.1104,-4.1104,-4.11,-4.1098,-4.1116,-4.1115,-4.1112,-4.0975,-4.0568,-4.0135,-3.9298,-3.8541,-3.7748,-3.7632,-3.73,-3.689,-3.6694,-3.6479,-3.6323,-3.6108,-3.6011,-3.6011,-3.6011,-3.601,-3.601,-3.601,-3.601,-3.601,-3.601,-3.601,-3.601,-3.601,-3.6011,-3.6011,-3.6011,-3.6011,-3.6013,-3.6014,-3.6014,-3.6013,-3.6013,-3.6014,-3.6013,-3.6008,-3.6016,-3.6014,-3.6021,-3.6003,-3.6001,-3.6001,-3.6001,-3.6,-3.6,-3.5999,-3.5999,-3.6001,-3.6022,-3.6002,-3.6004,-3.6005,-3.6006,-3.601,-3.6013,-3.6014,-3.6015,-3.6015,-3.6015,-3.6016,-3.6016,-3.6016,-3.6016,-3.6016,-3.6016,-3.6016,-3.6016,-3.6016,-3.6016,-3.6016,-3.6016,-3.6016,-3.6016,-3.6016,-3.6016,-3.584,-3.5605,-3.5195,-3.4512,-3.3496,-3.2461,-3.1797,-3.1269,-4.1191,-4.1191,-4.1191,-4.1191,-4.1191,-4.1191,-4.1191,-4.1191,-4.1191,-4.1191,-4.1191,-4.1132,-4.1111,-4.1111,-4.1109,-4.1108,-4.1107,-4.1106,-4.1105,-4.1104,-4.1101,-4.1103,-4.1101,-4.1117,-4.1114,-4.1111,-4.1106,-4.1099,-4.1113,-4.1111,-4.1105,-4.11,-4.097,-4.0756,-4.0256,-3.9624,-3.8834,-3.86,-3.8209,-3.7779,-3.7408,-3.7312,-3.7018,-3.6707,-3.6395,-3.6278,-3.62,-3.6103,-3.6045,-3.6007,-3.6008,-3.6009,-3.6009,-3.601,-3.6009,-3.6009,-3.6008,-3.6007,-3.6006,-3.6005,-3.6006,-3.6007,-3.6008,-3.6009,-3.601,-3.6009,-3.6006,-3.6018,-3.6004,-3.602,-3.602,-3.5997,-3.5992,-3.5992,-3.599,-3.5988,-3.5988,-3.5988,-3.599,-3.5992,-3.6013,-3.6017,-3.6006,-3.6009,-3.6014,-3.6018,-3.6003,-3.6009,-3.6011,-3.6014,-3.6014,-3.6016,-3.6016,-3.6016,-3.6016,-3.6016,-3.6016,-3.6016,-3.6016,-3.6016,-3.6016,-3.6016,-3.6016,-3.6016,-3.6016,-3.6016,-3.6016,-3.6016,-3.5957,-3.5508,-3.5078,-3.4375,-3.3359,-3.2383,-3.1758,-4.1132,-4.1112,-4.113,-4.113,-4.113,-4.113,-4.115,-4.1112,-4.1132,-4.1131,-4.1149,-4.1109,-4.1108,-4.1108,-4.1108,-4.1104,-4.1101,-4.1116,-4.1111,-4.1108,-4.1103,-4.1117,-4.1095,-4.1094,-4.1109,-4.1087,-4.1083,-4.1096,-4.1098,-4.1111,-4.1111,-4.1113,-4.1106,-4.1108,-4.0918,-4.06,-3.9999,-3.9476,-3.9008,-3.8582,-3.8287,-3.817,-3.7878,-3.7606,-3.706,-3.6923,-3.6806,-3.6298,-3.6163,-3.6063,-3.6024,-3.6004,-3.6002,-3.6002,-3.6002,-3.6002,-3.6002,-3.6002,-3.6002,-3.6002,-3.6004,-3.6006,-3.5986,-3.6012,-3.6014,-3.6017,-3.6013,-3.6002,-3.599,-3.5981,-3.5979,-3.5955,-3.5948,-3.5946,-3.5943,-3.5941,-3.5941,-3.5941,-3.5941,-3.5965,-3.5968,-3.5994,-3.5984,-3.599,-3.5995,-3.6001,-3.6007,-3.6014,-3.6003,-3.6009,-3.6012,-3.6014,-3.6014,-3.6015,-3.6015,-3.6016,-3.6016,-3.6016,-3.6016,-3.6016,-3.6016,-3.6016,-3.6016,-3.6016,-3.6016,-3.6016,-3.6016,-3.6016,-3.6016,-3.6016,-3.5625,-3.498,-3.4258,-3.332,-3.2363,-4.111,-4.111,-4.1108,-4.1107,-4.1107,-4.1107,-4.1108,-4.1108,-4.111,-4.1109,-4.1108,-4.1105,-4.1103,-4.11,-4.1117,-4.1112,-4.1103,-4.1099,-4.1113,-4.1107,-4.1111,-4.1111,-4.1089,-4.1061,-4.1059,-4.1059,-4.1053,-4.1067,-4.107,-4.1061,-4.1058,-4.1055,-4.1061,-4.1061,-4.1,-4.0902,-4.0746,-4.029,-3.9853,-3.9392,-3.9141,-3.8985,-3.8848,-3.8495,-3.7929,-3.7773,-3.76,-3.6898,-3.6528,-3.6374,-3.6298,-3.6005,-3.6005,-3.6005,-3.5984,-3.5986,-3.5988,-3.6009,-3.6009,-3.6009,-3.6003,-3.5979,-3.5958,-3.596,-3.5988,-3.5992,-3.597,-3.5964,-3.5948,-3.5955,-3.5936,-3.5914,-3.5908,-3.5883,-3.59,-3.5894,-3.5891,-3.5891,-3.5897,-3.5922,-3.5928,-3.5955,-3.596,-3.5968,-3.5975,-3.5964,-3.599,-3.6017,-3.601,-3.6022,-3.6009,-3.6012,-3.6012,-3.6013,-3.6014,-3.6014,-3.6016,-3.6016,-3.6016,-3.6016,-3.6016,-3.6016,-3.6016,-3.6016,-3.6016,-3.6016,-3.6016,-3.6016,-3.6016,-3.6016,-3.6016,-3.5566,-3.498,-3.4336,-3.3359,-4.1028,-4.1106,-4.1105,-4.1103,-4.1105,-4.1103,-4.11,-4.1117,-4.1101,-4.1105,-4.1103,-4.1099,-4.1112,-4.1106,-4.1117,-4.1109,-4.1098,-4.1091,-4.1086,-4.1086,-4.107,-4.1084,-4.1078,-4.1055,-4.1029,-4.1003,-4.0993,-4.0986,-4.0995,-4.0988,-4.098,-4.0968,-4.0996,-4.1,-4.098,-4.1,-4.0887,-4.0758,-4.0633,-4.0401,-4.0025,-3.9799,-3.9548,-3.8956,-3.87,-3.8585,-3.8351,-3.7886,-3.7264,-3.6952,-3.6621,-3.6209,-3.6014,-3.5992,-3.5951,-3.5951,-3.5948,-3.5968,-3.5987,-3.5968,-3.5946,-3.5924,-3.5885,-3.5892,-3.5931,-3.5977,-3.5962,-3.5911,-3.5908,-3.5876,-3.5853,-3.5862,-3.5856,-3.5849,-3.5845,-3.5838,-3.5834,-3.5838,-3.5868,-3.5878,-3.5869,-3.5898,-3.5908,-3.5914,-3.5925,-3.5919,-3.5929,-3.5977,-3.599,-3.5988,-3.5998,-3.6005,-3.6007,-3.6008,-3.6011,-3.6011,-3.6012,-3.6016,-3.6014,-3.6016,-3.6016,-3.6016,-3.6016,-3.6016,-3.6016,-3.6016,-3.6016,-3.6016,-3.6016,-3.6016,-3.6016,-3.6016,-3.5605,-3.5039,-3.4375,-4.0552,-4.1094,-4.1099,-4.1111,-4.1111,-4.1111,-4.1111,-4.1107,-4.1109,-4.1097,-4.1101,-4.1113,-4.1105,-4.1103,-4.1091,-4.11,-4.1075,-4.1036,-4.1029,-4.102,-4.1025,-4.1018,-4.1034,-4.0988,-4.0964,-4.0964,-4.0953,-4.0913,-4.092,-4.0911,-4.0926,-4.0926,-4.0926,-4.0926,-4.0926,-4.0926,-4.0926,-4.093,-4.0889,-4.0887,-4.0652,-4.0652,-4.0516,-4.0126,-3.9912,-3.9468,-3.9137,-3.8608,-3.7829,-3.7203,-3.7008,-3.6547,-3.5991,-3.593,-3.5911,-3.5891,-3.5911,-3.593,-3.593,-3.5911,-3.5908,-3.5901,-3.5876,-3.5862,-3.5879,-3.5943,-3.5943,-3.5895,-3.5841,-3.5811,-3.5799,-3.5803,-3.581,-3.5806,-3.5801,-3.5773,-3.5769,-3.5782,-3.581,-3.5826,-3.5823,-3.583,-3.5841,-3.5856,-3.5892,-3.5885,-3.5894,-3.5906,-3.5919,-3.5938,-3.597,-3.5983,-3.6014,-3.6017,-3.6003,-3.6006,-3.6007,-3.601,-3.6011,-3.6012,-3.6013,-3.6013,-3.6014,-3.6013,-3.6016,-3.6013,-3.6014,-3.6016,-3.6016,-3.6013,-3.6014,-3.6014,-3.6014,-3.5586,-3.5059,-3.9776,-4.053,-4.0944,-4.1113,-4.1113,-4.1108,-4.1106,-4.1083,-4.1053,-4.1053,-4.1061,-4.1083,-4.1081,-4.1056,-4.1042,-4.1049,-4.1042,-4.0976,-4.0968,-4.0957,-4.0952,-4.0974,-4.0945,-4.0926,-4.0912,-4.0893,-4.0864,-4.0849,-4.0854,-4.0854,-4.0854,-4.0854,-4.0854,-4.0854,-4.0854,-4.0854,-4.0854,-4.0873,-4.0854,-4.0874,-4.0921,-4.0935,-4.0943,-4.0734,-4.0539,-4.0209,-3.9956,-3.9446,-3.8805,-3.7988,-3.7561,-3.6669,-3.6112,-3.5872,-3.585,-3.5823,-3.5827,-3.5853,-3.5853,-3.5853,-3.5853,-3.585,-3.5862,-3.5826,-3.5771,-3.5822,-3.5852,-3.5799,-3.5763,-3.575,-3.575,-3.576,-3.5756,-3.5751,-3.5751,-3.5727,-3.5727,-3.5751,-3.578,-3.5812,-3.5801,-3.5778,-3.5791,-3.5822,-3.5842,-3.5838,-3.5852,-3.5876,-3.5872,-3.5878,-3.5914,-3.5951,-3.5988,-3.5999,-3.6004,-3.6012,-3.6018,-3.6002,-3.6006,-3.6009,-3.601,-3.6011,-3.6011,-3.6009,-3.6008,-3.6011,-3.6011,-3.6009,-3.601,-3.6012,-3.6011,-3.6011,-3.601,-3.6009,-3.5601,-3.8926,-3.9841,-4.0596,-4.0986,-4.1081,-4.1092,-4.1087,-4.1061,-4.1016,-4.1002,-4.0986,-4.1026,-4.1026,-4.1,-4.0983,-4.0984,-4.0964,-4.092,-4.0891,-4.0902,-4.0869,-4.0898,-4.0888,-4.0848,-4.0848,-4.0842,-4.0812,-4.0807,-4.0815,-4.0815,-4.0815,-4.0796,-4.0796,-4.0796,-4.0796,-4.0796,-4.0815,-4.0815,-4.0815,-4.0815,-4.0842,-4.0868,-4.0888,-4.0898,-4.0878,-4.0898,-4.0626,-4.0296,-3.9786,-3.8893,-3.7903,-3.6798,-3.6126,-3.5803,-3.5769,-3.5732,-3.5754,-3.5782,-3.5786,-3.5786,-3.5778,-3.5788,-3.578,-3.5766,-3.5713,-3.5708,-3.5742,-3.5757,-3.5718,-3.5713,-3.5713,-3.5694,-3.5694,-3.5689,-3.5684,-3.5684,-3.5684,-3.5684,-3.5737,-3.5766,-3.5752,-3.5723,-3.5752,-3.5785,-3.5784,-3.5786,-3.5807,-3.5838,-3.5859,-3.5862,-3.5892,-3.5914,-3.5953,-3.5965,-3.5981,-3.6013,-3.6004,-3.6007,-3.6013,-3.6022,-3.6006,-3.6003,-3.6021,-3.6019,-3.6021,-3.6005,-3.6007,-3.6005,-3.6007,-3.6008,-3.6007,-3.6005,-3.6004,-3.6004,-3.6005,-3.8347,-3.9715,-3.9916,-4.0356,-4.094,-4.1015,-4.1011,-4.1007,-4.0949,-4.0921,-4.0932,-4.0921,-4.0945,-4.0925,-4.092,-4.0917,-4.0903,-4.0854,-4.0839,-4.0823,-4.0812,-4.0832,-4.0801,-4.0779,-4.0804,-4.0792,-4.0775,-4.0814,-4.0757,-4.0776,-4.0796,-4.0776,-4.0776,-4.0796,-4.0796,-4.0796,-4.0796,-4.0776,-4.0776,-4.0796,-4.0788,-4.0804,-4.0818,-4.0823,-4.0823,-4.0823,-4.0745,-4.0668,-4.0183,-3.9305,-3.8045,-3.6833,-3.6061,-3.5747,-3.5713,-3.5688,-3.5708,-3.5723,-3.5728,-3.5728,-3.5718,-3.5718,-3.5713,-3.5708,-3.5669,-3.5653,-3.5678,-3.575,-3.5739,-3.5739,-3.5739,-3.5665,-3.564,-3.5643,-3.5631,-3.5631,-3.5631,-3.5637,-3.5662,-3.5665,-3.5657,-3.5662,-3.5692,-3.5713,-3.5723,-3.5718,-3.5722,-3.5758,-3.5811,-3.5834,-3.5842,-3.5864,-3.5889,-3.5903,-3.5907,-3.5977,-3.5988,-3.6009,-3.6015,-3.6006,-3.5991,-3.6009,-3.6006,-3.6007,-3.601,-3.6014,-3.6016,-3.6017,-3.6016,-3.6016,-3.6016,-3.6016,-3.6014,-3.6014,-3.6014]},{"header":{"parameterUnit":"m.s-1","parameterCategory":1,"la1":31.0,"la2":29.5877,"lo1":-88.7671,"lo2":-86.6584,"dy":0.0162,"dx":0.0185,"nx":115,"ny":88,"refTime":"2024-07-20T00:00:00:Z","depth":0,"parameterNumber":3,"parameterNumberName":"V-component_of_WINDS"},"data":[0.0,0.0,0.0,0.0,0.0,0.0,0.0,0.0,0.0,0.0,0.0,0.0,0.0,0.0,0.0,0.0,0.0,0.0,0.0,0.0,0.0,0.0,0.0,0.0,0.0,0.0,0.0,0.0,0.0,0.0,0.0,0.0,0.0,0.0,0.0,0.0,0.0,0.0,0.0,0.0,0.0,0.0,0.0,0.0,0.0,0.0,0.0,0.0,0.0,0.0,0.0,0.0,0.0,0.0,0.0,0.0,0.0,0.0,0.0,0.0,0.0,0.0,0.0,0.0,0.0,0.0,0.0,0.0,0.0,0.0,0.0,0.0,0.0,0.0,0.0,0.0,0.0,0.0,0.0,0.0,0.0,0.0,0.0,0.0,0.0,0.0,0.0,0.0,0.0,0.0,0.0,0.0,0.0,0.0,0.0,0.0,0.0,0.0,0.0,0.0,0.0,0.0,0.0,0.0,0.0,0.0,0.0,0.0,0.0,0.0,0.0,0.0,0.0,0.0,0.0,0.0,0.0,0.0,0.0,0.0,0.0,0.0,0.0,0.0,0.0,0.0,0.0,0.0,0.0,0.0,0.0,0.0,0.0,0.0,0.0,0.0,0.0,0.0,0.0,0.0,0.0,0.0,0.0,0.0,0.0,0.0,0.0,0.0,0.0,0.0,0.0,0.0,0.0,0.0,0.0,0.0,0.0,0.0,0.0,0.0,0.0,0.0,0.0,0.0,0.0,0.0,0.0,0.0,0.0,0.0,0.0,0.0,0.0,0.0,0.0,0.0,0.0,0.0,0.0,0.0,0.0,0.0,0.0,0.0,0.0,0.0,0.0,0.0,0.0,0.0,0.0,0.0,0.0,0.0,0.0,0.0,0.0,0.0,0.0,0.0,0.0,0.0,0.0,0.0,0.0,0.0,0.0,0.0,0.0,0.0,0.0,0.0,0.0,0.0,0.0,0.0,0.0,0.0,0.0,0.0,0.0,0.0,0.0,0.0,0.0,0.0,0.0,0.0,0.0,0.0,0.0,0.0,0.0,0.0,0.0,0.0,0.0,0.0,0.0,0.0,0.0,0.0,0.0,0.0,0.0,0.0,0.0,0.0,0.0,0.0,0.0,0.0,0.0,0.0,0.0,0.0,0.0,0.0,0.0,0.0,0.0,0.0,0.0,0.0,0.0,0.0,0.0,0.0,0.0,0.0,0.0,0.0,0.0,0.0,0.0,0.0,0.0,0.0,0.0,0.0,0.0,0.0,0.0,0.0,0.0,0.0,0.0,0.0,0.0,0.0,0.0,0.0,0.0,0.0,0.0,0.0,0.0,0.0,0.0,0.0,0.0,0.0,0.0,0.0,0.0,0.0,0.0,0.0,0.0,0.0,0.0,0.0,0.0,0.0,0.0,0.0,0.0,0.0,0.0,0.0,0.0,0.0,0.0,0.0,0.0,0.0,0.0,0.0,0.0,0.0,0.0,0.0,0.0,0.0,0.0,0.0,0.0,0.0,0.0,0.0,0.0,0.0,0.0,0.0,0.0,0.0,0.0,0.0,0.0,0.0,0.0,0.0,0.0,0.0,0.0,0.0,0.0,0.0,0.0,0.0,0.0,0.0,0.0,0.0,0.0,0.0,0.0,0.0,0.0,0.0,0.0,0.0,0.0,0.0,0.0,0.0,0.0,0.0,0.0,0.0,0.0,0.0,0.0,0.0,0.0,0.0,0.0,0.0,0.0,0.0,0.0,0.0,0.0,0.0,0.0,0.0,0.0,0.0,0.0,0.0,0.0,0.0,0.0,0.0,0.0,0.0,0.0,0.0,0.0,0.0,0.0,0.0,0.0,0.0,0.0,0.0,0.0,0.0,0.0,0.0,0.0,0.0,0.0,0.0,0.0,0.0,0.0,0.0,0.0,0.0,0.0,0.0,0.0,0.0,0.0,0.0,0.0,0.0,0.0,0.0,0.0,0.0,0.0,0.0,0.0,0.0,0.0,0.0,0.0,0.0,0.0,0.0,0.0,0.0,0.0,0.0,0.0,0.0,0.0,0.0,0.0,0.0,0.0,0.0,0.0,0.0,0.0,0.0,0.0,0.0,0.0,0.0,0.0,0.0,0.0,0.0,0.0,0.0,0.0,0.0,0.0,0.0,0.0,0.0,0.0,0.0,0.0,0.0,0.0,0.0,0.0,0.0,0.0,0.0,0.0,0.0,0.0,0.0,0.0,0.0,0.0,0.0,0.0,0.0,0.0,0.0,0.0,0.0,0.0,0.0,0.0,0.0,0.0,0.0,0.0,0.0,0.0,0.0,0.0,0.0,0.0,0.0,0.0,0.0,0.0,0.0,0.0,0.0,0.0,0.0,0.0,0.0,0.0,0.0,0.0,0.0,0.0,0.0,0.0,0.0,0.0,0.0,0.0,0.0,0.0,0.0,0.0,0.0,0.0,0.0,0.0,0.0,0.0,0.0,0.0,0.0,0.0,0.0,0.0,0.0,0.0,0.0,0.0,0.0,0.0,0.0,0.0,0.0,0.0,0.0,0.0,0.0,0.0,0.0,0.0,0.0,0.0,0.0,0.0,0.0,0.0,0.0,0.0,0.0,0.0,0.0,0.0,0.0,0.0,0.0,0.0,0.0,0.0,0.0,0.0,0.0,0.0,0.0,0.0,0.0,0.0,0.0,0.0,0.0,0.0,0.0,0.0,0.0,0.0,0.0,0.0,0.0,0.0,0.0,0.0,0.0,0.0,0.0,0.0,0.0,0.0,0.0,0.0,0.0,0.0,0.0,0.0,0.0,0.0,0.0,0.0,0.0,0.0,0.0,0.0,0.0,0.0,0.0,0.0,0.0,0.0,0.0,0.0,0.0,0.0,0.0,0.0,0.0,0.0,0.0,0.0,0.0,0.0,0.0,0.0,0.0,0.0,0.0,0.0,0.0,0.0,0.0,0.0,0.0,0.0,0.0,0.0,0.0,0.0,0.0,0.0,0.0,0.0,0.0,0.0,0.0,0.0,0.0,0.0,0.0,0.0,0.0,0.0,0.0,0.0,0.0,0.0,0.0,0.0,0.0,0.0,0.0,0.0,0.0,0.0,0.0,0.0,0.0,0.0,0.0,0.0,0.0,0.0,0.0,0.0,0.0,0.0,0.0,0.0,0.0,0.0,0.0,0.0,0.0,0.0,0.0,0.0,0.0,0.0,0.0,0.0,0.0,0.0,0.0,0.0,0.0,0.0,0.0,0.0,0.0,0.0,0.0,0.0,0.0,0.0,0.0,0.0,0.0,0.0,0.0,0.0,0.0,0.0,0.0,0.0,0.0,0.0,0.0,0.0,0.0,0.0,0.0,0.0,0.0,0.0,0.0,0.0,0.0,0.0,0.0,0.0,0.0,0.0,0.0,0.0,0.0,0.0,0.0,0.0,0.0,0.0,0.0,0.0,0.0,0.0,0.0,0.0,0.0,0.0,0.0,0.0,0.0,0.0,0.0,0.0,0.0,0.0,0.0,0.0,0.0,0.0,0.0,0.0,0.0,0.0,0.0,0.0,0.0,0.0,0.0,0.0,0.0,0.0,0.0,0.0,0.0,0.0,0.0,0.0,0.0,0.0,0.0,0.0,0.0,0.0,0.0,0.0,0.0,0.0,0.0,0.0,0.0,0.0,0.0,0.0,0.0,0.0,0.0,0.0,0.0,0.0,0.0,0.0,0.0,0.0,0.0,0.0,0.0,0.0,0.0,0.0,0.0,0.0,0.0,0.0,0.0,0.0,0.0,0.0,0.0,0.0,0.0,0.0,0.0,0.0,0.0,0.0,0.0,0.0,0.0,0.0,0.0,0.0,0.0,0.0,0.0,0.0,0.0,0.0,0.0,0.0,0.0,0.0,0.0,0.0,0.0,0.0,0.0,0.0,0.0,0.0,0.0,0.0,0.0,0.0,0.0,0.0,0.0,0.0,0.0,0.0,0.0,0.0,0.0,0.0,0.0,0.0,0.0,0.0,0.0,0.0,0.0,0.0,0.0,0.0,0.0,0.0,0.0,0.0,0.0,0.0,0.0,0.0,0.0,0.0,0.0,0.0,0.0,0.0,0.0,0.0,0.0,0.0,0.0,0.0,0.0,0.0,0.0,0.0,0.0,0.0,0.0,0.0,0.0,0.0,0.0,0.0,0.0,0.0,0.0,0.0,0.0,0.0,0.0,0.0,0.0,0.0,0.0,0.0,0.0,0.0,0.0,0.0,0.0,0.0,0.0,0.0,0.0,0.0,0.0,0.0,0.0,0.0,0.0,0.0,0.0,0.0945,0.0,0.0,0.0,0.0,0.0,0.0,0.0,0.0,0.0,0.0,0.0,0.0,0.0,0.0,0.0,0.0,0.0,0.0,0.0,0.0,0.0,0.0,0.0,0.0,0.0,0.0,0.0,0.0,0.0,0.0,0.0,0.0,0.0,0.0,0.0,0.0,0.0,0.0,0.0,0.0,0.0,0.0,0.0,0.0,0.0,0.0,0.0,0.0,0.0,0.0,0.0,0.0,0.0,0.0,0.0,0.0,0.0,0.0,0.0,0.0,0.0,0.0,0.0,0.0,0.0,0.0,0.0,0.0,0.0,0.0,0.0,0.0,0.0,0.0,0.0,0.0,0.0,0.0,0.0,0.0,0.0,0.0,0.0,0.0,0.0,0.0,0.0,0.0,0.0,0.0,0.0,0.0,0.0,0.0,0.0,0.0,0.0,0.0,0.0,0.0,0.0,0.0,0.0,0.0,0.0,0.0,0.0,0.0,0.0,0.0,0.0016,0.0342,0.0541,0.0742,0.0944,0.0,0.0,0.0,0.0,0.0,0.0,0.0,0.0,0.0,0.0,0.0,0.0,0.0,0.0,0.0,0.0,0.0,0.0,0.0,0.0,0.0,0.0,0.0,0.0,0.0,0.0,0.0,0.0,0.0,0.0,0.0,0.0,0.0,0.0,0.0,0.0,0.0,0.0,0.0,0.0,0.0,0.0,0.0,0.0,0.0,0.0,0.0,0.0,0.0,0.0,0.0,0.0,0.0,0.0,0.0,0.0,0.0,0.0,0.0,0.0,0.0,0.0,0.0,0.0,0.0,0.0,0.0,0.0,0.0,0.0,0.0,0.0,0.0,0.0,0.0,0.0,0.0,0.0,0.0,0.0,0.0,0.0,0.0,0.0,0.0,0.0,0.0,0.0,0.0,0.0,0.0,0.0,0.0,0.0,0.0,0.0,0.0,0.0,0.0,0.0,0.0,0.0,0.0,0.0,0.0,0.0,0.0,0.0,0.0,0.0,0.0,0.0,0.0354,0.0605,0.0888,0.0,0.0,0.0,0.0,0.0,0.0,0.0,0.0,0.0,0.0,0.0,0.0,0.0,0.0,0.0,0.0,0.0,0.0,0.0,0.0,0.0,0.0,0.0,0.0,0.0,0.0,0.0,0.0,0.0,0.0,0.0,0.0,0.0,0.0,0.0,0.0,0.0,0.0,0.0,0.0,0.0,0.0,0.0,0.0,0.0,0.0,0.0,0.0,0.0,0.0,0.0,0.0,0.0,0.0,0.0,0.0,0.0,0.0,0.0,0.0,0.0,0.0,0.0,0.0,0.0,0.0,0.0,0.0,0.0,0.0,0.0,0.0,0.0,0.0,0.0,0.0,0.0,0.0,0.0,0.0,0.0,0.0,0.0,0.0,0.0,0.0,0.0,0.0,0.0,0.0,0.0,0.0,0.0,0.0,0.0,0.0,0.0,0.0,0.0,0.0,0.0,0.0,0.0,0.0,0.0,0.0,0.0,0.0,0.0,0.0,-0.0403,-0.0252,0.0134,0.0,0.0625,0.0,0.0,0.0,0.0,0.0,0.0,0.0,0.0,0.0,0.0,0.0,0.0,0.0,0.0,0.0,0.0,0.0,0.0,0.0,0.0,0.0,0.0,0.0,0.0,0.0,0.0,0.0,0.0,0.0,0.0,0.0,0.0,0.0,0.0,0.0,0.0,0.0,0.0,0.0,0.0,0.0,0.0,0.0,0.0,0.0,0.0,0.0,0.0,0.0,0.0,0.0,0.0,0.0,0.0,0.0,0.0,0.0,0.0,0.0,0.0,0.0,0.0,0.0,0.0,0.0,0.0,0.0,0.0,0.0,0.0,0.0,0.0,0.0,0.0,0.0,0.0,0.0,0.0,0.0,0.0,0.0,0.0,0.0,0.0,0.0,0.0,0.0,0.0,0.0,0.0,0.0,0.0,0.0,0.0,0.0,0.0,0.0,0.0,0.0,0.0,0.0,0.0,0.0,0.0,0.0,0.0,0.0,0.0,0.0,0.0,0.0,-0.0555,-0.0067,0.0223,0.0,0.0,0.0,0.0,0.0,0.0,0.0,0.0,0.0,0.0,0.0,0.0,0.0,0.0,0.0,0.0,0.0,0.0,0.0,0.0,0.0,0.0,0.0,0.0,0.0,0.0,0.0,0.0,0.0,0.0,0.0,0.0,0.0,0.0,0.0,0.0,0.0,0.0,0.0,0.0,0.0,0.0,0.0,0.0,0.0,0.0,0.0,0.0,0.0,0.0,0.0,0.0,0.0,0.0,0.0,0.0,0.0,0.0,0.0,0.0,0.0,0.0,0.0,0.0,0.0,0.0,0.0,0.0,0.0,0.0,0.0,0.0,0.0,0.0,0.0,0.0,0.0,0.0,0.0,0.0,0.0,0.0,0.0,0.0,0.0,0.0,0.0,0.0,0.0,0.0,0.0,0.0,0.0,0.0,0.0,0.0,0.0,0.0,0.0,0.0,0.0,0.0,0.0,0.0,0.0,0.0,0.0,0.0,0.0,0.0,-0.1362,0.0,-0.074,-0.0303,-0.0016,0.0056,0.0,0.0,0.0,0.0,0.0,0.0,0.0,0.0,0.0,0.0,0.0,0.0,0.0,0.0,0.0,0.0,0.0,0.0,0.0,0.0,0.0,0.0,0.0,0.0,0.0,0.0,0.0,0.0,0.0,0.0,0.0,0.0,0.0,0.0,0.0,0.0,0.0,0.0,0.0,0.0,0.0,0.0,0.0,0.0,0.0,0.0,0.0,0.0,0.0,0.0,0.0,0.0,0.0,0.0,0.0,0.0,0.0,0.0,0.0,0.0,0.0,0.0,0.0,0.0,0.0,0.0,0.0,0.0,0.0,0.0,0.0,0.0,0.0,0.0,0.0,0.0,0.0,0.0,0.0,0.0,0.0,0.0,0.0,0.0,0.0,0.0,0.0,0.0,0.0,0.0,0.0,0.0,0.0,0.0,0.0,0.0,0.0,0.0,0.0,0.0,0.0,0.0,0.0,0.0,0.0,0.0,0.0,0.0,0.0,-0.1728,-0.1325,-0.0824,-0.0589,-0.0414,0.0,0.0,0.0,0.0,0.0,0.0,0.0,0.0,0.0,0.0,0.0,0.0,0.0,0.0,0.0,0.0,0.0,0.0,0.0,0.0,0.0,0.0,0.0,0.0,0.0,0.0,0.0,0.0,0.0,0.0,0.0,0.0,0.0,0.0,0.0,0.0,0.0,0.0,0.0,0.0,0.0,0.0,0.0,0.0,0.0,0.0,0.0,0.0,0.0,0.0,0.0,0.0,0.0,0.0,0.0,0.0,0.0,0.0,0.0,0.0,0.0,0.0,0.0,0.0,0.0,0.0,0.0,0.0,0.0,0.0,0.0,0.0,0.0,0.0,0.0,0.0,0.0,0.0,0.0,0.0,0.0,0.0,0.0,0.0,0.0,0.0,0.0,0.0,0.0,0.0,0.0,0.0,0.0,0.0,0.0,0.0,0.0,0.0,0.0,0.0,0.0,0.0,0.0,0.0,0.0,0.0,0.0,0.0,0.0,-0.2258,-0.1961,-0.1579,0.0,-0.096,-0.0781,0.0,0.0,0.0,0.0,0.0,0.0,0.0,0.0,0.0,0.0,0.0,0.0,0.0,0.0,0.0,0.0,0.0,0.0,0.0,0.0,0.0,0.0,0.0,0.0,0.0,0.0,0.0,0.0,0.0,0.0,0.0,0.0,0.0,0.0,0.0,0.0,0.0,0.0,0.0,0.0,0.0,0.0,0.0,0.0,0.0,0.0,0.0,0.0,0.0,0.0,0.0,0.0,0.0,0.0,0.0,0.0,0.0,0.0,0.0,0.0,0.0,0.0,0.0,0.0,0.0,0.0,0.0,0.0,0.0,0.0,0.0,0.0,0.0,0.0,0.0,0.0,0.0,0.0,0.0,0.0,0.0,0.0,0.0,0.0,0.0,0.0,0.0,0.0,0.0,0.0,0.0,0.0,0.0,0.0,0.0,0.0,0.0,0.0,0.0,0.0,0.0,0.0,0.0,0.0,0.0,0.0,0.0,0.0,0.0,-0.2441,0.0,-0.1814,0.0,-0.1311,-0.111,0.0,0.0,0.0,0.0,0.0,0.0,0.0,0.0,0.0,0.0,0.0,0.0,0.0,0.0,0.0,0.0,0.0,0.0,0.0,0.0,0.0,0.0,0.0,0.0,0.0,0.0,0.0,0.0,0.0,0.0,0.0,0.0,0.0,0.0,0.0,0.0,0.0,0.0,0.0,0.0,0.0,0.0,0.0,0.0,0.0,0.0,0.0,0.0,0.0,0.0,0.0,0.0,0.0,0.0,0.0,0.0,0.0,0.0,0.0,0.0,0.0,0.0,0.0,0.0,0.0,0.0,0.0,0.0,0.0,0.0,0.0,0.0,0.0,0.0,0.0,0.0,0.0,0.0,0.0,0.0,0.0,0.0,0.0,0.0,0.0,0.0,0.0,0.0,0.0,0.0,0.0,0.0,0.0,0.0,0.0,0.0,0.0,0.0,0.0,0.0,0.0,0.0,0.0,0.0,0.0,0.0,0.0,0.0,-0.3047,-0.2527,-0.2264,-0.2047,-0.1895,-0.1632,-0.1409,0.0,0.0,0.0,0.0,0.0,0.0,0.0,0.0,0.0,0.0,0.0,0.0,0.0,0.0,0.0,0.0,0.0,0.0,0.0,0.0,0.0,0.0,0.0,0.0,0.0,0.0,0.0,0.0,0.0,0.0,0.0,0.0,0.0,0.0,0.0,0.0,0.0,0.0,0.0,0.0,0.0,0.0,0.0,0.0,0.0,0.0,0.0,0.0,0.0,0.0,0.0,0.0,0.0,0.0,0.0,0.0,0.0,0.0,0.0,0.0,0.0,0.0,0.0,0.0,0.0,0.0,0.0,0.0,0.0,0.0,0.0,0.0,0.0,0.0,0.0,0.0,0.0,0.0,0.0,0.0,0.0,0.0,0.0,0.0,0.0,0.0,0.0,0.0,0.0,0.0,0.0,0.0,0.0,0.0,0.0,0.0,0.0,0.0,0.0,0.0,0.0,0.0,0.0,0.0,0.0,0.0,0.0,0.0,0.0,-0.2716,-0.248,-0.2281,-0.2047,-0.1864,-0.1668,0.0,0.0,0.0,0.0,0.0,0.0,0.0,0.0,0.0,0.0,0.0,0.0,0.0,0.0,0.0,0.0,0.0,0.0,0.0,0.0,0.0,0.0,0.0,0.0,0.0,0.0,0.0,0.0,0.0,0.0,0.0,0.0,0.0,0.0,0.0,0.0,0.0,0.0,0.0,0.0,0.0,0.0,0.0,0.0,0.0,0.0,0.0,0.0,0.0,0.0,0.0,0.0,0.0,0.0,0.0,0.0,0.0,0.0,0.0,0.0,0.0,0.0,0.0,0.0,0.0,0.0,0.0,0.0,0.0,0.0,0.0,0.0,0.0,0.0,0.0,0.0,0.0,0.0,0.0,0.0,0.0,0.0,0.0,0.0,0.0,0.0,0.0,0.0,0.0,0.0,0.0,0.0,0.0,0.0,0.0,0.0,0.0,0.0,0.0,0.0,0.0,0.0,0.0,0.0,0.0,0.0,0.0,0.0,0.0,-0.3113,-0.2885,-0.2631,-0.2354,-0.2182,-0.1957,-0.1728,0.0,0.0,0.0,0.0,0.0,0.0,0.0,0.0,0.0,0.0,0.0,0.0,0.0,0.0,0.0,0.0,0.0,0.0,0.0,0.0,0.0,0.0,0.0,0.0,0.0,0.0,0.0,0.0,0.0,0.0,0.0,0.0,0.0,0.0,0.0,0.0,0.0,0.0,0.0,0.0,0.0,0.0,0.0,0.0,0.0,0.0,0.0,0.0,0.0,0.0,0.0,0.0,0.0,0.0,0.0,0.0,0.0,0.0,0.0,0.0,0.0,0.0,0.0,0.0,0.0,0.0,0.0,0.0,0.0,0.0,0.0,0.0,0.0,0.0,0.0,0.0,0.0,0.0,0.0,0.0,0.0,0.0,0.0,0.0,0.0,0.0,0.0,0.0,0.0,0.0,0.0,0.0,0.0,0.0,0.0,0.0,0.0,0.0,0.0,0.0,0.0,0.0,0.0,0.0,0.0,0.0,0.0,0.0,-0.3662,-0.3395,-0.3102,-0.2814,-0.2556,-0.233,0.0,0.0,0.0,0.0,0.0,0.0,0.0,0.0,0.0,0.0,0.0,0.0,0.0,0.0,0.0,0.0,0.0,0.0,0.0,0.0,0.0,0.0,0.0,0.0,0.0,0.0,0.0,0.0,0.0,0.0,0.0,0.0,0.0,0.0,0.0,0.0,0.0,0.0,0.0,0.0,0.0,0.0,0.0,0.0,0.0,0.0,0.0,0.0,0.0,0.0,0.0,0.0,0.0,0.0,0.0,0.0,0.0,0.0,0.0,0.0,0.0,0.0,0.0,0.0,0.0,0.0,0.0,0.0,0.0,0.0,0.0,0.0,0.0,0.0,0.0,0.0,0.0,0.0,0.0,0.0,0.0,0.0,0.0,0.0,0.0,0.0,0.0,0.0,0.0,0.0,0.0,0.0,0.0,0.0,0.0,0.0,0.0,0.0,0.0,0.0,0.0,0.0,0.0,0.0,0.0,0.0,0.0,0.0,0.0,-0.4123,-0.3945,-0.3582,-0.2988,-0.2726,-0.2526,0.0,0.0,0.0,0.0,0.0,0.0,0.0,0.0,0.0,0.0,0.0,0.0,0.0,0.0,0.0,0.0,0.0,0.0,0.0,0.0,0.0,0.0,0.0,0.0,0.0,0.0,0.0,0.0,0.0,0.0,0.0,0.0,0.0,0.0,0.0,0.0,0.0,0.0,0.0,0.0,0.0,0.0,0.0,0.0,0.0,0.0,0.0,0.0,0.0,0.0,0.0,0.0,0.0,0.0,0.0,0.0,0.0,0.0,0.0,0.0,0.0,0.0,0.0,0.0,0.0,0.0,0.0,0.0,0.0,0.0,0.0,0.0,0.0,0.0,0.0,0.0,0.0,0.0,0.0,0.0,0.0,0.0,0.0,0.0,0.0,0.0,0.0,0.0,0.0,0.0,0.0,0.0,0.0,0.0,0.0,0.0,0.0,0.0,0.0,0.0,0.0,0.0,0.0,0.0,0.0,0.0,0.0,0.0,-0.4858,-0.4539,-0.4367,-0.4009,-0.3436,-0.3103,-0.2796,0.0,0.0,0.0,0.0,0.0,0.0,0.0,0.0,0.0,0.0,0.0,0.0,0.0,0.0,0.0,0.0,0.0,0.0,0.0,0.0,0.0,0.0,0.0,0.0,0.0,0.0,0.0,0.0,0.0,0.0,0.0,0.0,0.0,0.0,0.0,0.0,0.0,0.0,0.0,0.0,0.0,0.0,0.0,0.0,0.0,0.0,0.0,0.0,0.0,0.0,0.0,0.0,0.0,0.0,0.0,0.0,0.0,0.0,0.0,0.0,0.0,0.0,0.0,0.0,0.0,0.0,0.0,0.0,0.0,0.0,0.0,0.0,0.0,0.0,0.0,0.0,0.0,0.0,0.0,0.0,0.0,0.0,0.0,0.0,0.0,0.0,0.0,0.0,0.0,0.0,0.0,0.0,0.0,0.0,0.0,0.0,0.0,0.0,0.0,0.0,0.0,0.0,0.0,0.0,0.0,0.0,0.0,0.0,-0.5277,-0.4987,-0.4713,-0.4408,-0.4048,-0.3541,-0.3105,0.0,0.0,0.0,0.0,0.0,0.0,0.0,0.0,0.0,0.0,0.0,0.0,0.0,0.0,0.0,0.0,0.0,0.0,0.0,0.0,0.0,0.0,0.0,0.0,0.0,0.0,0.0,0.0,0.0,0.0,0.0,0.0,0.0,0.0,0.0,0.0,0.0,0.0,0.0,0.0,0.0,0.0,0.0,0.0,0.0,0.0,0.0,0.0,0.0,0.0,0.0,0.0,0.0,0.0,0.0,0.0,0.0,0.0,0.0,0.0,0.0,0.0,0.0,0.0,0.0,0.0,0.0,0.0,0.0,0.0,0.0,0.0,0.0,0.0,0.0,0.0,0.0,0.0,0.0,0.0,0.0,0.0,0.0,0.0,0.0,0.0,0.0,0.0,0.0,0.0,0.0,0.0,0.0,0.0,0.0,0.0,0.0,0.0,0.0,0.0,0.0,0.0,0.0,0.0,0.0,0.0,0.0,0.0,-0.5886,-0.5467,-0.5206,-0.4873,-0.4466,-0.3959,-0.343,0.0,0.0,0.0,0.0,0.0,0.0,0.0,0.0,0.0,0.0,0.0,0.0,0.0,0.0,0.0,0.0,0.0,0.0,0.0,0.0,0.0,0.0,0.0,0.0,0.0,0.0,0.0,0.0,0.0,0.0,0.0,0.0,0.0,0.0,0.0,0.0,0.0,0.0,0.0,0.0,0.0,0.0,0.0,0.0,0.0,0.0,0.0,0.0,-0.2753,0.0,0.0,0.0,0.0,0.0,0.0,0.0,0.0,0.0,0.0,0.0,0.0,0.0,0.0,0.0,0.0,0.0,0.0,0.0,0.0,0.0,0.0,0.0,0.0,0.0,0.0,0.0,0.0,0.0,0.0,0.0,0.0,0.0,0.0,0.0,0.0,0.0,0.0,0.0,0.0,0.0,0.0,0.0,0.0,0.0,0.0,0.0,0.0,0.0,0.0,0.0,0.0,0.0,0.0,0.0,0.0,0.0,0.0,0.0,-0.6422,-0.6044,-0.5751,-0.5365,-0.4841,-0.4456,-0.3872,0.0,0.0,0.0,0.0,0.0,0.0,0.0,0.0,0.0,0.0,0.0,0.0,0.0,0.0,0.0,0.0,0.0,0.0,0.0,0.0,0.0,0.0,0.0,0.0,0.0,0.0,0.0,0.0,0.0,0.0,0.0,0.0,0.0,0.0,0.0,0.0,0.0,0.0,0.0,0.0,0.0,0.0,0.0,0.0,0.0,0.0,0.0,0.0,0.0,0.0,0.0,0.0,0.0,0.0,0.0,0.0,0.0,0.0,0.0,0.0,0.0,0.0,0.0,0.0,0.0,0.0,0.0,0.0,0.0,0.0,0.0,0.0,0.0,0.0,0.0,0.0,0.0,0.0,0.0,0.0,0.0,0.0,0.0,0.0,0.0,0.0,0.0,0.0,0.0,0.0,0.0,0.0,0.0,0.0,0.0,0.0,0.0,0.0,0.0,0.0,0.0,0.0,0.0,0.0,0.0,0.0,0.0,-0.6828,-0.6841,-0.6544,-0.6304,-0.5875,-0.5164,-0.4857,-0.4236,-0.3284,0.0,0.0,0.0,0.0,0.0,0.0,0.0,0.0,0.0,0.0,0.0,0.0,0.0,0.0,0.0,0.0,0.0,0.0,0.0,0.0,0.0,0.0,0.0,0.0,0.0,0.0,0.0,0.0,0.0,0.0,0.0,0.0,0.0,0.0,0.0,0.0,0.0,0.0,-0.3627,-0.4011,0.0,0.0,0.0,0.0,0.0,0.0,0.0,0.0,-0.3027,0.0,0.0,0.0,0.0,0.0,0.0,0.0,0.0,0.0,0.0,0.0,0.0,0.0,0.0,0.0,0.0,0.0,0.0,0.0,0.0,0.0,0.0,0.0,0.0,0.0,0.0,0.0,0.0,0.0,0.0,0.0,0.0,0.0,0.0,0.0,0.0,0.0,0.0,0.0,0.0,0.0,0.0,0.0,0.0,0.0,0.0,0.0,0.0,0.0,0.0,0.0,0.0,0.0,0.0,0.0,0.0,-0.6523,-0.7146,-0.7234,-0.6683,-0.6618,-0.6226,-0.5457,-0.4969,-0.431,-0.3482,0.0,0.0,0.0,0.0,0.0,0.0,0.0,0.0,0.0,0.0,0.0,0.0,0.0,0.0,0.0,0.0,0.0,0.0,0.0,0.0,0.0,0.0,0.0,0.0,0.0,0.0,0.0,0.0,0.0,0.0,0.0,0.0,0.0,0.0,0.0,0.0,0.0,0.0,0.0,-0.4437,-0.4514,0.0,0.0,0.0,0.0,0.0,0.0,0.0,0.0,-0.3085,0.0,0.0,0.0,0.0,0.0,0.0,0.0,0.0,0.0,0.0,0.0,0.0,0.0,0.0,0.0,0.0,0.0,0.0,0.0,0.0,0.0,0.0,0.0,0.0,0.0,0.0,0.0,0.0,0.0,0.0,0.0,0.0,0.0,0.0,0.0,0.0,0.0,0.0,0.0,0.0,0.0,0.0,0.0,0.0,0.0,0.0,0.0,0.0,0.0,0.0,0.0,0.0,0.0,0.0,0.0,-0.6553,-0.7293,-0.7451,-0.6936,-0.6915,-0.6486,-0.5634,-0.5135,-0.4477,0.0,0.0,0.0,0.0,0.0,0.0,0.0,0.0,0.0,0.0,0.0,0.0,0.0,0.0,0.0,0.0,0.0,0.0,0.0,0.0,0.0,0.0,0.0,0.0,0.0,0.0,0.0,0.0,0.0,0.0,0.0,0.0,0.0,0.0,0.0,0.0,0.0,0.0,0.0,0.0,-0.4889,-0.5045,-0.5011,0.0,0.0,0.0,0.0,0.0,0.0,-0.3655,-0.3466,0.0,0.0,0.0,0.0,0.0,0.0,0.0,0.0,0.0,0.0,0.0,0.0,0.0,0.0,0.0,0.0,0.0,0.0,0.0,0.0,0.0,0.0,0.0,0.0,0.0,0.0,0.0,0.0,0.0,0.0,0.0,0.0,0.0,0.0,0.0,0.0,0.0,0.0,0.0,0.0,0.0,0.0,0.0,0.0,0.0,0.0,0.0,0.0,0.0,0.0,0.0,0.0,0.0,0.0,0.0,-0.6643,-0.7392,-0.7559,-0.714,-0.7102,-0.665,-0.5731,-0.5329,-0.4594,0.0,0.0,0.0,0.0,0.0,0.0,0.0,0.0,0.0,0.0,0.0,0.0,0.0,0.0,0.0,0.0,0.0,0.0,0.0,0.0,0.0,0.0,0.0,0.0,0.0,0.0,0.0,0.0,0.0,0.0,0.0,0.0,0.0,0.0,0.0,0.0,0.0,0.0,0.0,0.0,0.0,-0.5542,-0.5336,-0.5474,0.0,0.0,0.0,0.0,-0.422,-0.3998,0.0,0.0,0.0,0.0,0.0,0.0,0.0,0.0,0.0,0.0,0.0,0.0,0.0,0.0,0.0,0.0,0.0,0.0,0.0,0.0,0.0,0.0,0.0,0.0,0.0,0.0,0.0,0.0,0.0,0.0,0.0,0.0,0.0,0.0,0.0,0.0,0.0,0.0,0.0,0.0,0.0,0.0,0.0,0.0,0.0,0.0,0.0,0.0,0.0,0.0,0.0,0.0,0.0,0.0,0.0,0.0,-0.6973,-0.75,-0.7583,-0.714,-0.7102,-0.6644,-0.5726,-0.5305,-0.4598,0.0,0.0,0.0,0.0,0.0,0.0,0.0,0.0,0.0,0.0,0.0,0.0,0.0,0.0,0.0,0.0,0.0,0.0,0.0,0.0,0.0,0.0,0.0,0.0,0.0,0.0,0.0,0.0,0.0,0.0,0.0,0.0,0.0,0.0,0.0,0.0,0.0,0.0,0.0,0.0,0.0,-0.5683,-0.5652,-0.5669,-0.5657,0.0,0.0,-0.4683,-0.4404,-0.4248,0.0,0.0,0.0,0.0,0.0,0.0,0.0,0.0,0.0,0.0,0.0,0.0,0.0,0.0,0.0,0.0,0.0,0.0,0.0,0.0,0.0,0.0,0.0,0.0,0.0,0.0,0.0,0.0,0.0,0.0,0.0,0.0,0.0,0.0,0.0,0.0,0.0,0.0,0.0,0.0,0.0,0.0,0.0,0.0,0.0,0.0,0.0,0.0,0.0,0.0,0.0,0.0,0.0,0.0,0.0,-0.6862,-0.6969,-0.7468,-0.7522,-0.711,-0.7097,-0.665,-0.5722,-0.5378,-0.4677,0.0,0.0,0.0,0.0,0.0,0.0,0.0,0.0,0.0,0.0,0.0,0.0,0.0,0.0,0.0,0.0,0.0,0.0,0.0,0.0,0.0,0.0,0.0,0.0,0.0,0.0,0.0,0.0,0.0,0.0,0.0,0.0,0.0,0.0,0.0,0.0,0.0,0.0,0.0,0.0,0.0,0.0,-0.5994,-0.6155,0.0,0.0,0.0,-0.5197,-0.4789,0.0,0.0,0.0,0.0,0.0,0.0,0.0,0.0,0.0,0.0,0.0,0.0,0.0,0.0,0.0,0.0,0.0,0.0,0.0,0.0,0.0,0.0,0.0,0.0,0.0,0.0,0.0,0.0,0.0,0.0,0.0,0.0,0.0,0.0,0.0,0.0,0.0,0.0,0.0,0.0,0.0,0.0,0.0,0.0,0.0,0.0,0.0,0.0,0.0,0.0,0.0,0.0,0.0,0.0,0.0,0.0,0.0,-0.7078,-0.749,-0.7537,-0.7255,-0.7188,-0.676,-0.5913,-0.5549,0.0,0.0,0.0,0.0,0.0,0.0,0.0,0.0,0.0,0.0,0.0,0.0,0.0,0.0,0.0,0.0,0.0,0.0,0.0,0.0,0.0,0.0,0.0,0.0,0.0,0.0,0.0,-0.2009,0.0,0.0,0.0,0.0,0.0,0.0,0.0,0.0,0.0,0.0,0.0,0.0,0.0,0.0,-0.6593,-0.6422,-0.6645,-0.6721,0.0,0.0,-0.5771,-0.5374,-0.5107,-0.4915,0.0,0.0,0.0,0.0,0.0,0.0,0.0,0.0,0.0,0.0,0.0,0.0,0.0,0.0,0.0,0.0,0.0,0.0,0.0,0.0,0.0,0.0,0.0,0.0,0.0,0.0,0.0,0.0,0.0,0.0,0.0,0.0,0.0,0.0,0.0,0.0,0.0,0.0,0.0,0.0,0.0,0.0,0.0,0.0,0.0,0.0,0.0,0.0,0.0,0.0,0.0,0.0,0.0,0.0,0.0,-0.7528,-0.7649,-0.768,-0.7646,-0.741,-0.6977,-0.6365,-0.5778,-0.5131,0.0,0.0,0.0,0.0,0.0,0.0,0.0,0.0,0.0,0.0,0.0,0.0,0.0,0.0,0.0,0.0,0.0,0.0,0.0,0.0,0.0,0.0,0.0,0.0,0.0,0.0,0.0,0.0,0.0,0.0,0.0,0.0,0.0,0.0,0.0,0.0,0.0,0.0,0.0,0.0,0.0,-0.6826,-0.6924,-0.7106,-0.7104,0.0,0.0,-0.6446,-0.6165,-0.5836,-0.5575,-0.5464,0.0,0.0,0.0,0.0,0.0,0.0,0.0,0.0,0.0,0.0,0.0,0.0,0.0,0.0,0.0,0.0,0.0,0.0,0.0,0.0,0.0,0.0,0.0,0.0,0.0,0.0,0.0,0.0,0.0,0.0,0.0,0.0,0.0,0.0,0.0,0.0,0.0,0.0,0.0,0.0,0.0,0.0,0.0,0.0,0.0,0.0,0.0,0.0,0.0,0.0,0.0,0.0,0.0,-0.6956,-0.7602,-0.7576,-0.762,-0.7702,-0.7448,-0.7014,-0.6411,-0.5812,-0.5169,0.0,0.0,0.0,0.0,0.0,0.0,0.0,0.0,0.0,0.0,0.0,0.0,0.0,0.0,0.0,0.0,0.0,0.0,0.0,0.0,0.0,0.0,0.0,0.0,0.0,0.0,0.0,0.0,-0.2767,-0.3203,-0.3861,0.0,0.0,0.0,0.0,0.0,0.0,0.0,0.0,0.0,0.0,-0.7147,-0.7299,-0.7314,0.0,0.0,-0.6867,-0.6501,-0.6234,-0.6011,-0.5918,-0.6041,-0.5883,0.0,0.0,0.0,0.0,0.0,0.0,0.0,0.0,0.0,0.0,0.0,0.0,0.0,0.0,0.0,0.0,0.0,0.0,0.0,0.0,0.0,0.0,0.0,0.0,0.0,0.0,0.0,0.0,0.0,0.0,0.0,0.0,0.0,0.0,0.0,0.0,0.0,0.0,0.0,0.0,0.0,0.0,0.0,0.0,0.0,0.0,0.0,0.0,0.0,0.0,0.0,0.0,-0.7017,-0.7677,-0.7604,-0.7689,-0.7896,-0.7615,-0.7201,-0.6665,-0.6022,-0.5414,0.0,0.0,0.0,0.0,0.0,0.0,0.0,0.0,0.0,0.0,0.0,0.0,0.0,0.0,0.0,0.0,0.0,0.0,0.0,0.0,0.0,0.0,0.0,0.0,0.0,0.0,0.0,0.0,-0.2966,-0.3423,-0.4203,0.0,0.0,0.0,0.0,0.0,0.0,0.0,0.0,0.0,0.0,-0.7431,-0.7492,-0.7462,-0.745,-0.7496,-0.712,-0.6726,-0.6514,-0.6326,-0.6249,-0.6452,0.0,0.0,0.0,0.0,0.0,0.0,0.0,0.0,0.0,0.0,0.0,0.0,0.0,0.0,0.0,0.0,0.0,0.0,0.0,0.0,0.0,0.0,0.0,0.0,0.0,0.0,0.0,0.0,0.0,0.0,-0.3583,0.0,0.0,0.0,0.0,0.0,0.0,0.0,0.0,0.0,0.0,0.0,0.0,0.0,0.0,0.0,0.0,0.0,0.0,0.0,0.0,0.0,0.0,-0.7034,-0.7855,-0.7773,-0.7926,-0.8363,-0.8055,-0.7687,-0.7262,-0.6501,-0.5926,-0.5547,0.0,0.0,0.0,0.0,0.0,0.0,0.0,0.0,0.0,0.0,0.0,0.0,0.0,0.0,0.0,0.0,0.0,0.0,0.0,0.0,0.0,0.0,0.0,0.0,0.0,0.0,-0.2878,-0.3365,-0.3883,0.0,0.0,0.0,0.0,0.0,0.0,0.0,0.0,0.0,0.0,-0.7538,-0.7641,-0.7544,-0.7618,-0.7641,-0.7515,-0.7375,-0.7235,-0.7085,-0.6849,-0.6704,0.0,0.0,0.0,0.0,0.0,0.0,0.0,0.0,0.0,0.0,0.0,0.0,0.0,0.0,0.0,0.0,0.0,0.0,0.0,0.0,0.0,0.0,0.0,0.0,0.0,0.0,0.0,-0.3756,-0.3982,0.0,0.0,0.0,0.0,0.0,0.0,0.0,0.0,0.0,0.0,0.0,-0.5297,-0.5297,0.0,0.0,0.0,0.0,0.0,0.0,0.0,0.0,0.0,0.0,0.0,0.0,-0.7422,-0.7862,-0.7939,-0.8113,-0.8382,-0.8082,-0.7714,-0.7311,-0.6659,-0.5903,-0.5029,0.0,0.0,0.0,0.0,0.0,0.0,0.0,0.0,0.0,0.0,0.0,0.0,0.0,0.0,0.0,0.0,0.0,0.0,0.0,0.0,0.0,0.0,0.0,0.0,0.0,-0.2765,0.0,0.0,0.0,0.0,0.0,0.0,0.0,0.0,0.0,0.0,0.0,-0.7125,-0.7515,-0.7641,-0.7714,-0.7748,-0.7723,-0.7589,0.0,0.0,0.0,0.0,0.0,0.0,0.0,0.0,0.0,0.0,0.0,0.0,0.0,0.0,-0.7073,-0.6708,-0.6535,-0.6463,-0.6639,0.0,0.0,0.0,0.0,0.0,0.0,0.0,0.0,0.0,0.0,0.0,0.0,0.0,0.0,-0.4164,0.0,-0.4457,0.0,0.0,0.0,0.0,0.0,0.0,0.0,0.0,-0.5056,-0.5096,-0.5227,-0.5227,-0.53,0.0,-0.5599,-0.5599,0.0,0.0,0.0,0.0,0.0,0.0,0.0,0.0,-0.7554,-0.7893,-0.8002,-0.8133,-0.8309,-0.8109,-0.7794,-0.7392,-0.6728,-0.5952,-0.5014,-0.4566,-0.4207,0.0,0.0,0.0,0.0,0.0,0.0,0.0,0.0,0.0,0.0,0.0,0.0,0.0,0.0,0.0,0.0,0.0,0.0,0.0,0.0,0.0,0.0,0.0,-0.3127,0.0,0.0,0.0,0.0,0.0,0.0,0.0,0.0,0.0,-0.7289,-0.7333,-0.7404,-0.7684,-0.768,-0.775,-0.7877,0.0,0.0,0.0,0.0,0.0,0.0,0.0,-0.6977,-0.7063,-0.704,-0.7036,-0.7223,-0.7347,-0.7405,-0.733,0.0,0.0,-0.7243,-0.7031,-0.6979,-0.7203,-0.724,-0.7269,-0.7291,-0.7313,-0.7253,0.0,0.0,0.0,0.0,0.0,0.0,0.0,0.0,-0.4451,-0.4474,0.0,-0.4629,0.0,0.0,0.0,0.0,0.0,-0.5429,0.0,0.0,-0.496,-0.4816,-0.4721,-0.4725,-0.4771,-0.4927,-0.5179,-0.5437,-0.5678,-0.6018,0.0,0.0,0.0,0.0,0.0,0.0,-0.7384,-0.7873,-0.7911,-0.7992,-0.8182,-0.8168,-0.7955,-0.7488,-0.6702,-0.6047,-0.5535,-0.516,-0.4812,-0.4404,-0.3952,0.0,0.0,0.0,0.0,0.0,0.0,0.0,0.0,0.0,0.0,0.0,0.0,0.0,0.0,0.0,0.0,0.0,0.0,0.0,0.0,-0.3267,0.0,0.0,0.0,0.0,0.0,0.0,0.0,0.0,0.0,0.0,-0.7079,-0.745,-0.7683,-0.7695,0.0,0.0,0.0,0.0,-0.6999,-0.6729,-0.6707,-0.6707,-0.6674,-0.668,-0.6674,-0.6701,0.0,0.0,-0.7434,-0.7681,-0.7777,-0.7542,-0.7702,-0.7766,-0.7358,-0.7278,-0.7373,-0.7629,-0.7656,-0.773,-0.7845,-0.7792,-0.7653,-0.4185,0.0,0.0,0.0,0.0,-0.3962,-0.4105,-0.4271,-0.4277,-0.4373,-0.4512,-0.4702,0.0,0.0,0.0,0.0,0.0,0.0,-0.5161,-0.5024,-0.4892,-0.4826,-0.4862,-0.4835,-0.4919,-0.503,-0.522,-0.5365,-0.5511,-0.5831,-0.6167,-0.6468,0.0,0.0,0.0,0.0,-0.7697,-0.7753,-0.7997,-0.8029,-0.7863,-0.7836,-0.7595,-0.709,-0.6571,-0.6066,-0.5596,-0.5224,-0.4883,-0.4628,-0.4177,0.0,0.0,0.0,0.0,0.0,0.0,0.0,0.0,0.0,0.0,0.0,0.0,0.0,0.0,0.0,0.0,0.0,0.0,0.0,-0.3172,-0.3371,-0.3606,0.0,0.0,0.0,0.0,0.0,0.0,0.0,0.0,0.0,-0.7085,-0.7391,-0.7642,0.0,0.0,-0.767,-0.7628,-0.7327,-0.6923,-0.6413,-0.6413,0.0,0.0,-0.6404,-0.6376,-0.6463,-0.6739,-0.7009,-0.7192,-0.7273,-0.7386,-0.7467,-0.7408,-0.7357,-0.7431,-0.7362,-0.7381,-0.7511,-0.7559,-0.7559,-0.7583,-0.7607,-0.7622,-0.4623,-0.4345,-0.4281,-0.426,-0.429,-0.4324,-0.4406,-0.449,-0.4537,-0.4642,-0.4746,-0.4866,-0.4927,-0.4938,-0.5124,0.0,0.0,0.0,-0.5123,-0.5032,-0.4949,-0.4913,-0.4923,-0.4901,-0.4951,-0.5033,-0.5173,-0.525,-0.5368,-0.5712,-0.6046,-0.6375,0.0,0.0,-0.7002,-0.7385,-0.7605,-0.7636,-0.777,-0.7741,-0.7547,-0.7434,-0.7219,-0.6901,-0.6526,-0.6142,-0.5731,-0.5363,-0.5004,-0.4658,-0.4357,-0.4053,0.0,0.0,0.0,0.0,0.0,0.0,0.0,0.0,0.0,0.0,0.0,-0.3017,0.0,0.0,0.0,0.0,-0.2851,-0.3019,-0.329,-0.3467,0.0,0.0,0.0,0.0,0.0,0.0,0.0,-0.63,-0.6618,-0.6896,-0.7067,-0.7364,-0.7585,-0.7626,-0.7568,-0.7521,-0.7521,0.0,-0.6734,-0.6146,-0.6168,-0.6223,-0.6168,-0.6087,-0.6109,-0.6305,-0.6472,-0.6717,-0.6923,-0.7025,-0.7112,-0.7166,-0.7058,-0.7004,-0.7225,-0.7269,-0.7346,-0.7541,-0.7585,-0.7616,-0.7747,-0.7772,-0.7822,-0.4924,-0.4942,-0.4802,-0.4731,-0.4721,-0.486,-0.4918,-0.4918,-0.5029,-0.509,-0.5083,-0.5089,-0.5083,-0.5045,-0.503,0.0,-0.506,-0.522,-0.5221,-0.509,-0.509,-0.5002,-0.4918,-0.4918,-0.4906,-0.4918,-0.5024,-0.5148,-0.5294,-0.5637,-0.5936,-0.6183,-0.6278,-0.6539,-0.6899,-0.7044,-0.7234,-0.7461,-0.7338,-0.7263,-0.7263,-0.7014,-0.6852,-0.6852,-0.6549,-0.6204,-0.589,-0.5558,-0.5154,-0.4657,-0.4523,-0.4263,-0.3845,0.0,0.0,0.0,0.0,0.0,0.0,0.0,0.0,0.0,0.0,0.0,0.0,0.0,0.0,0.0,-0.3026,0.0,-0.3317,-0.3547,0.0,0.0,0.0,-0.4934,-0.5258,-0.552,-0.5803,-0.6076,0.0,0.0,-0.7026,-0.729,-0.7447,-0.7441,-0.7376,-0.7338,-0.7461,-0.7047,-0.6492,-0.5967,-0.594,-0.595,-0.5862,-0.5813,-0.5877,-0.6091,-0.6173,-0.6337,-0.6598,-0.6864,-0.6923,-0.6788,-0.668,-0.6707,-0.6852,-0.7074,-0.7333,-0.754,-0.7652,-0.7765,-0.7992,-0.8066,-0.8059,-0.5286,-0.5286,-0.5252,-0.5105,-0.484,-0.487,-0.4918,-0.4918,-0.4948,-0.4948,-0.4975,-0.5054,-0.5165,-0.531,-0.5302,-0.5306,-0.5318,-0.5202,-0.5118,-0.509,-0.5006,-0.4918,-0.4918,-0.4918,-0.4901,-0.4927,-0.5037,-0.5109,-0.5162,-0.5577,-0.5843,-0.5931,-0.6432,-0.6809,-0.7063,-0.7078,-0.7138,-0.7187,-0.7063,-0.696,-0.6842,-0.6756,-0.6625,-0.6369,-0.6309,-0.6048,-0.5605,-0.5392,-0.5125,-0.4832,-0.4525,-0.4448,-0.4687,-0.4385,0.0,0.0,0.0,0.0,0.0,0.0,0.0,0.0,0.0,-0.379,-0.3665,0.0,-0.3678,0.0,-0.3444,-0.3509,-0.3613,-0.3652,0.0,0.0,-0.463,-0.4914,-0.5119,-0.54,-0.5708,-0.6133,-0.6264,-0.6436,-0.6756,-0.6998,-0.7107,-0.7107,-0.7209,-0.7257,-0.7198,-0.7058,-0.6749,-0.6274,-0.6127,-0.6006,-0.5836,-0.5716,-0.5681,-0.5732,-0.6009,-0.6228,-0.6309,-0.6598,-0.6783,-0.6701,-0.649,-0.644,-0.6712,-0.6788,-0.6842,-0.6945,-0.7268,-0.7574,-0.7655,-0.7681,-0.7708,-0.559,-0.5593,-0.5593,-0.546,-0.5301,-0.5176,-0.5114,-0.5118,-0.5114,-0.5114,-0.5111,-0.5099,-0.5126,-0.5161,-0.5191,-0.5197,-0.5257,-0.5164,-0.5168,-0.5234,-0.5146,-0.5118,-0.5118,-0.5114,-0.5081,-0.4985,-0.5071,-0.5095,-0.5124,-0.5366,-0.5582,-0.5793,-0.619,-0.6556,-0.6956,-0.7022,-0.7053,-0.7048,-0.679,-0.6603,-0.6468,-0.6495,-0.6364,-0.6119,-0.6114,-0.5928,-0.5575,-0.5341,-0.5126,-0.4877,-0.4619,-0.4535,-0.4688,-0.4468,-0.4323,0.0,0.0,0.0,0.0,0.0,0.0,0.0,0.0,0.0,0.0,0.0,-0.3781,-0.3622,-0.3695,-0.3798,-0.3815,-0.3885,-0.4054,-0.4419,-0.4597,-0.4789,-0.4987,-0.5251,-0.5537,-0.5892,-0.6114,-0.6342,-0.6568,-0.6774,-0.6915,-0.691,-0.7008,-0.7081,-0.7106,-0.7066,-0.6929,-0.6626,-0.6358,-0.6149,-0.5885,-0.5702,-0.5634,-0.5686,-0.582,-0.5955,-0.6014,-0.625,-0.6436,-0.6305,-0.6141,-0.6064,-0.6282,-0.6359,-0.6408,-0.6495,-0.6766,-0.7036,-0.7198,-0.7225,-0.7284,-0.58,-0.58,-0.58,-0.58,-0.5779,-0.5559,-0.545,-0.545,-0.5433,-0.5412,-0.5385,-0.522,-0.5091,-0.4945,-0.4975,-0.5043,-0.5155,-0.5127,-0.5233,-0.5392,-0.5395,-0.5395,-0.5395,-0.5395,-0.5291,-0.5162,-0.5127,-0.5122,-0.5119,-0.5149,-0.5395,-0.58,-0.5865,-0.6167,-0.6766,-0.6895,-0.6932,-0.6934,-0.66,-0.6361,-0.6205,-0.62,-0.6119,-0.5978,-0.5978,-0.5841,-0.5536,-0.5368,-0.5114,-0.4795,-0.4714,-0.4525,-0.4284,-0.4367,-0.4404,0.0,-0.4407,0.0,0.0,0.0,0.0,0.0,0.0,0.0,0.0,-0.3946,-0.3732,-0.3776,-0.3945,-0.407,-0.4024,-0.4128,-0.4288,-0.449,-0.4582,-0.4728,-0.4888,-0.5151,-0.5398,-0.5599,-0.6,-0.6303,-0.6442,-0.6655,-0.6768,-0.6773,-0.6831,-0.6908,-0.7017,-0.7036,-0.6991,-0.6865,-0.658,-0.6216,-0.5898,-0.5746,-0.5678,-0.5748,-0.5708,-0.5665,-0.5816,-0.6009,-0.6096,-0.5877,-0.5768,-0.5768,-0.5795,-0.5896,-0.6009,-0.6119,-0.625,-0.6468,-0.6793,-0.6906,-0.6928,-0.58,-0.58,-0.58,-0.58,-0.5796,-0.5742,-0.5718,-0.5711,-0.5599,-0.5511,-0.5395,-0.5365,-0.5337,-0.531,-0.531,-0.5294,-0.5318,-0.5351,-0.5368,-0.5395,-0.5395,-0.5395,-0.5395,-0.5395,-0.5382,-0.5318,-0.5347,-0.537,-0.5343,-0.5466,-0.5629,-0.5896,-0.6152,-0.6444,-0.6694,0.0,0.0,0.0,-0.6525,-0.6393,-0.6214,-0.62,-0.6096,-0.585,-0.585,0.0,-0.5203,-0.5063,-0.4878,-0.4636,-0.4528,0.0,0.0,0.0,0.0,0.0,0.0,0.0,0.0,0.0,0.0,0.0,-0.4625,-0.4594,-0.4307,-0.4024,-0.3924,-0.4083,-0.431,-0.4331,-0.4193,-0.418,-0.429,-0.4484,-0.4703,-0.4851,-0.4912,-0.5166,-0.5471,-0.5737,-0.5835,-0.6027,-0.6289,-0.6498,-0.6621,-0.6635,-0.6767,-0.6865,-0.6845,-0.6849,-0.6755,-0.6522,-0.6357,-0.6104,-0.5718,-0.5769,-0.5771,-0.5688,-0.5714,-0.5751,-0.5791,-0.5827,-0.5882,-0.58,-0.5576,-0.5494,-0.5713,-0.5818,-0.5845,-0.5877,-0.5905,-0.6064,-0.6598,-0.6734,-0.6734,-0.6064,0.0,-0.6067,-0.6027,0.0,-0.6064,-0.6027,-0.605,-0.5793,-0.5685,-0.5579,-0.5579,-0.5614,-0.5579,-0.5614,-0.5576,-0.5508,-0.5508,-0.5467,-0.5395,-0.5395,-0.5395,-0.5395,-0.5395,-0.5395,-0.5395,-0.5395,-0.5395,-0.5395,-0.5458,-0.5587,-0.5752,-0.602,-0.6284,-0.6544,-0.6683,-0.6635,-0.6398,-0.6327,-0.6256,-0.6155,-0.6064,-0.59,-0.5704,0.0,0.0,0.0,0.0,0.0,0.0,0.0,0.0,0.0,0.0,0.0,-0.4224,-0.4371,-0.4433,-0.4408,-0.4525,-0.4582,-0.4501,-0.4566,-0.4502,-0.4283,-0.419,-0.4151,-0.419,-0.4391,-0.4491,-0.4442,-0.4467,-0.45,-0.467,-0.4817,-0.4925,-0.4932,-0.5111,-0.5338,-0.557,-0.5643,-0.5825,-0.6077,-0.6185,-0.6274,-0.625,-0.6355,-0.6416,-0.6408,-0.6636,-0.6748,-0.6437,-0.6188,-0.5997,-0.5812,-0.5716,-0.5732,-0.5616,-0.5593,-0.5618,-0.5606,-0.5588,-0.5546,-0.5566,-0.5417,-0.5384,-0.5494,-0.5576,-0.5603,-0.5681,-0.5704,-0.5818,-0.6168,-0.625,-0.6245,-0.63,-0.63,-0.63,-0.63,-0.63,-0.63,-0.63,-0.6279,0.0,0.0,0.0,-0.58,-0.58,-0.58,-0.58,-0.5735,-0.563,-0.5627,-0.5593,-0.5477,-0.547,-0.546,-0.5436,-0.5433,-0.5423,-0.5395,-0.5395,-0.5395,-0.5395,-0.5395,-0.5491,-0.5617,-0.5752,-0.602,-0.6321,-0.6585,-0.6563,-0.6231,-0.6185,-0.6113,-0.6048,-0.5867,-0.5688,-0.5513,-0.5513,-0.5348,-0.5042,-0.5046,-0.4899,-0.4608,-0.4575,-0.4525,-0.4372,-0.4378,-0.4417,-0.4445,-0.4466,-0.4536,-0.4631,-0.4567,-0.4522,-0.4523,-0.4469,-0.4386,-0.4288,-0.4376,-0.4389,-0.4287,-0.4457,-0.4624,-0.4718,-0.4731,-0.4779,-0.4908,-0.4942,-0.4928,-0.4958,-0.5071,-0.5237,-0.5407,-0.5556,-0.5664,-0.5855,-0.591,-0.5892,-0.5888,-0.5951,-0.5892,-0.5958,-0.6346,-0.6568,-0.6317,-0.6071,-0.5881,-0.5833,-0.5773,-0.5655,-0.5612,-0.5518,-0.5418,-0.5434,-0.5374,-0.5332,-0.5413,-0.5368,-0.5322,-0.5274,-0.5274,-0.5329,-0.5494,-0.5513,-0.554,-0.5654,-0.5681,-0.5709,-0.63,-0.63,-0.63,-0.63,-0.63,-0.63,-0.63,-0.6282,-0.6074,-0.5888,-0.5803,-0.58,-0.58,-0.58,-0.58,-0.5789,-0.5772,-0.5772,-0.5762,-0.5739,-0.5739,-0.5674,-0.5559,-0.5559,-0.5521,-0.5402,-0.5395,-0.5395,-0.5395,-0.5395,-0.5455,-0.5583,-0.5617,-0.5752,-0.5954,-0.602,-0.5997,-0.5948,-0.6232,-0.6202,-0.5859,-0.5702,-0.5474,-0.5191,-0.5183,-0.5042,-0.4774,-0.477,-0.4677,-0.4515,-0.4512,-0.4446,-0.4252,-0.4339,-0.4357,-0.426,-0.4342,-0.4412,-0.4441,-0.4547,-0.4613,-0.4664,-0.4559,-0.4532,-0.4627,-0.4538,-0.4519,-0.4613,-0.4758,-0.486,-0.4854,-0.4857,-0.4897,-0.4904,-0.4999,-0.5069,-0.5073,-0.5242,-0.5382,-0.5537,-0.5585,-0.5683,-0.5811,-0.5855,-0.5855,-0.5892,-0.5826,-0.5859,-0.5892,-0.5958,-0.602,-0.5991,-0.5925,-0.5822,-0.5683,-0.5774,-0.5738,-0.5617,-0.5577,-0.5542,-0.5542,-0.5463,-0.5378,-0.5397,-0.5378,-0.531,-0.5187,-0.5117,-0.5174,-0.5214,-0.5203,-0.5227,-0.5246,-0.5238,-0.5321,-0.63,-0.63,-0.63,-0.63,-0.63,-0.63,-0.63,-0.6293,-0.6186,-0.6115,-0.6057,-0.6085,-0.6088,-0.6051,-0.6088,-0.6003,-0.5888,-0.5925,-0.5841,-0.5803,-0.58,-0.5766,-0.5711,-0.5705,-0.5702,-0.5599,-0.5556,-0.5518,-0.5515,-0.5436,-0.5428,-0.5488,-0.5583,-0.5719,-0.5892,-0.5892,-0.5892,-0.5885,-0.5949,-0.5876,-0.5692,-0.5445,-0.5256,-0.5095,-0.5036,-0.4904,-0.4715,-0.4691,-0.4632,-0.4519,-0.4491,-0.446,-0.4372,-0.4412,-0.4411,-0.4376,-0.4418,-0.4467,-0.447,-0.4511,-0.4551,-0.4598,-0.4597,-0.4642,-0.4702,-0.4594,-0.4552,-0.4687,-0.4969,-0.5121,-0.5012,-0.5002,-0.5067,-0.5184,-0.522,-0.5257,-0.5264,-0.5344,-0.5425,-0.5491,-0.5488,-0.5524,-0.5624,-0.5627,-0.5624,-0.5624,-0.5624,-0.5624,-0.5657,-0.5624,-0.5657,-0.5719,-0.569,-0.5594,-0.5524,-0.5557,-0.5591,-0.5488,-0.5498,-0.5488,-0.5481,-0.5446,-0.5413,-0.5408,-0.5413,-0.5369,-0.5258,-0.5259,-0.5214,-0.5116,-0.5095,-0.5072,-0.5025,-0.4987,-0.5069,-0.63,-0.63,-0.63,-0.63,-0.63,-0.63,-0.63,-0.63,-0.6296,-0.63,-0.63,-0.63,-0.63,-0.63,-0.63,-0.6231,-0.6091,-0.6043,-0.5983,-0.5911,-0.5905,-0.5888,-0.5854,-0.5854,-0.5837,-0.5793,-0.5688,-0.5637,-0.562,-0.5518,-0.5426,-0.5399,-0.5524,-0.5617,-0.5793,-0.5793,-0.5793,-0.5782,-0.5632,-0.5548,-0.5533,-0.5264,-0.51,-0.5053,-0.4933,-0.4793,-0.471,-0.4681,-0.4605,-0.4491,-0.4491,-0.4491,-0.4491,-0.4491,-0.4491,-0.4491,-0.4491,-0.4491,-0.4491,-0.4491,-0.4505,-0.4542,-0.4623,-0.4704,-0.4728,-0.4665,-0.4658,-0.4802,-0.5135,-0.5337,-0.5206,-0.5182,-0.5233,-0.5378,-0.5395,-0.5385,-0.5392,-0.5395,-0.5395,-0.5395,-0.5395,-0.5395,-0.5395,-0.5395,-0.5428,-0.5428,-0.5395,-0.5395,-0.5395,-0.5395,-0.5458,-0.5521,-0.5458,-0.5428,-0.5395,-0.5428,-0.5428,-0.5395,-0.5392,-0.5411,-0.5415,-0.5422,-0.5391,-0.5417,-0.5404,-0.5359,-0.5337,-0.5333,-0.5268,-0.5129,-0.5086,-0.5005,-0.4882,-0.4818,-0.4846,-0.6306,-0.63,-0.6306,-0.63,-0.63,-0.63,-0.63,-0.63,-0.63,-0.63,-0.63,-0.63,-0.63,-0.63,-0.63,-0.6289,-0.6269,-0.6276,-0.6262,-0.6245,-0.6255,-0.6146,-0.6017,-0.5973,-0.5899,-0.5823,-0.5789,-0.5783,-0.5776,-0.564,-0.5535,-0.5409,-0.5392,-0.5432,-0.5462,-0.5462,-0.5462,-0.5462,-0.5448,-0.544,-0.5399,-0.5199,-0.5026,-0.4931,-0.4807,-0.4699,-0.4696,-0.4566,-0.4522,-0.4491,-0.4494,-0.4491,-0.4491,-0.4491,-0.4491,-0.4491,-0.4491,-0.4491,-0.4494,-0.4491,-0.4559,-0.4682,-0.4687,-0.4762,-0.4884,-0.4887,-0.4908,-0.5081,-0.5286,-0.5378,-0.5375,-0.5365,-0.5368,-0.5385,-0.5395,-0.5395,-0.5395,-0.5395,-0.5395,-0.5395,-0.5405,-0.5395,-0.5412,-0.5426,-0.5419,-0.5443,-0.545,-0.545,-0.5443,-0.5443,-0.544,-0.5452,-0.5402,-0.5399,-0.5399,-0.5395,-0.5395,-0.5395,-0.5395,-0.5395,-0.5395,-0.5395,-0.5415,-0.5387,-0.5401,-0.5353,-0.5218,-0.5136,-0.5151,-0.51,-0.5003,-0.489,-0.4741,-0.4643,-0.4671,-0.6519,-0.6552,-0.6424,-0.6375,-0.6303,-0.63,-0.63,-0.63,-0.63,-0.63,-0.63,-0.63,-0.63,-0.63,-0.63,-0.63,-0.63,-0.63,-0.63,-0.63,-0.63,-0.6265,-0.6173,-0.6166,-0.6129,-0.6067,-0.5983,-0.5939,-0.5911,-0.5786,-0.564,-0.5545,-0.5528,-0.5487,-0.5402,-0.5395,-0.5395,-0.5395,-0.5395,-0.5397,-0.5397,-0.5208,-0.5073,-0.5005,-0.4901,-0.4826,-0.4823,-0.4762,-0.4691,-0.4638,-0.4627,-0.4583,-0.4494,-0.4491,-0.4491,-0.4494,-0.458,-0.4627,-0.4624,-0.468,-0.4758,-0.4823,-0.4874,-0.4979,-0.504,-0.5128,-0.5209,-0.5296,-0.5358,-0.5395,-0.5395,-0.5395,-0.5395,-0.5395,-0.5395,-0.5395,-0.5395,-0.5395,-0.5395,-0.5402,-0.5477,-0.5532,-0.5542,-0.5572,-0.5616,-0.5623,-0.5655,-0.5606,-0.5616,-0.5623,-0.5623,-0.5613,-0.559,-0.5491,-0.5426,-0.5395,-0.5395,-0.5395,-0.5395,-0.5395,-0.5395,-0.5395,-0.5395,-0.5395,-0.5395,-0.5378,-0.5324,-0.5257,-0.5252,-0.5158,-0.4982,-0.4841,-0.4715,-0.4656,-0.4653,-0.6702,-0.6681,-0.658,-0.6515,-0.6419,-0.6371,-0.6358,-0.6351,-0.6317,-0.63,-0.63,-0.63,-0.63,-0.63,-0.63,-0.63,-0.63,-0.63,-0.63,-0.63,-0.63,-0.6296,-0.63,-0.63,-0.63,-0.6282,-0.6149,-0.6033,-0.5986,-0.5925,-0.5793,-0.5664,-0.561,-0.5569,-0.5467,-0.5423,-0.5395,-0.5395,-0.5395,-0.5395,-0.5378,-0.5254,-0.516,-0.5182,-0.5019,-0.4948,-0.4948,-0.4911,-0.487,-0.4758,-0.4752,-0.4733,-0.4624,-0.459,-0.4573,-0.4583,-0.4674,-0.4755,-0.4755,-0.4857,-0.4908,-0.4948,-0.5046,-0.512,-0.5203,-0.5298,-0.5388,-0.5392,-0.5395,-0.5395,-0.5395,-0.5395,-0.5395,-0.5395,-0.5395,-0.5405,-0.5453,-0.546,-0.5481,-0.5518,-0.5589,-0.5647,-0.5661,-0.5728,-0.5779,-0.5779,-0.5789,-0.58,-0.58,-0.5789,-0.5789,-0.58,-0.5705,-0.5596,-0.5491,-0.5416,-0.5405,-0.5395,-0.5395,-0.5395,-0.5395,-0.5395,-0.5395,-0.5395,-0.5395,-0.5388,-0.5368,-0.5368,-0.5344,-0.5169,-0.5012,-0.4925,-0.4812,-0.4758,-0.4687,-0.6702,-0.6705,-0.6695,-0.6678,-0.6664,-0.6525,-0.6464,-0.6494,-0.6368,-0.6303,-0.631,-0.63,-0.63,-0.63,-0.6257,-0.63,-0.63,-0.63,-0.63,-0.63,-0.63,-0.63,-0.63,-0.63,-0.63,-0.63,-0.6282,-0.6166,-0.6044,-0.599,-0.5905,-0.5796,-0.5677,-0.5599,-0.5562,-0.5477,-0.5399,-0.5412,-0.5399,-0.5395,-0.5392,-0.5385,-0.5371,-0.5358,-0.5203,-0.5093,-0.5076,-0.4961,-0.4918,-0.4881,-0.4877,-0.487,-0.488,-0.4825,-0.4774,-0.4791,-0.4847,-0.4908,-0.4908,-0.4904,-0.4961,-0.5066,-0.5138,-0.5196,-0.5347,-0.5378,-0.5392,-0.5395,-0.5419,-0.5426,-0.5412,-0.5423,-0.5416,-0.5416,-0.5412,-0.5477,-0.5566,-0.5614,-0.5647,-0.5732,-0.5772,-0.5803,-0.58,-0.5796,-0.5833,-0.5837,-0.582,-0.583,-0.585,-0.5833,-0.5837,-0.5837,-0.5806,-0.5742,-0.5638,-0.5515,-0.5429,-0.5395,-0.5395,-0.5395,-0.5395,-0.5395,-0.5395,-0.5395,-0.5395,-0.5395,-0.5395,-0.5368,-0.5324,-0.5213,-0.5137,-0.506,-0.4931,-0.4914,-0.4843,-0.6883,-0.6848,-0.6848,-0.6793,-0.6695,-0.6641,-0.6617,-0.6603,-0.6501,-0.6436,-0.6419,-0.634,-0.63,-0.63,-0.6138,-0.6138,-0.6257,-0.63,-0.63,-0.63,-0.63,-0.63,-0.63,-0.63,-0.63,-0.63,-0.6296,-0.6272,-0.6186,-0.6176,-0.6098,-0.5966,-0.5898,-0.5827,-0.5715,-0.5614,-0.5542,-0.5532,-0.545,-0.5395,-0.5399,-0.5395,-0.5395,-0.5392,-0.5341,-0.5281,-0.531,-0.5262,-0.5159,-0.5029,-0.5022,-0.4978,-0.4897,-0.4884,-0.4891,-0.4982,-0.5016,-0.5022,-0.5032,-0.5148,-0.5255,-0.5267,-0.5277,-0.5327,-0.5382,-0.5395,-0.5395,-0.5419,-0.5549,-0.5638,-0.5559,-0.5542,-0.5542,-0.5552,-0.562,-0.5654,-0.5708,-0.5725,-0.5749,-0.5803,-0.5878,-0.5979,-0.6054,-0.6129,-0.6132,-0.6132,-0.6132,-0.6122,-0.6129,-0.6129,-0.6115,-0.6071,-0.601,-0.5895,-0.5855,-0.5654,-0.5525,-0.5433,-0.5395,-0.5395,-0.5399,-0.5395,-0.5395,-0.5395,-0.5395,-0.5395,-0.5395,-0.5388,-0.5337,-0.5334,-0.5257,-0.5186,-0.5052,-0.5064,-0.4986,-0.7041,-0.696,-0.6953,-0.6896,-0.6844,-0.6793,-0.6773,-0.6756,-0.661,-0.6546,-0.6519,-0.6354,-0.6254,-0.6205,-0.5925,-0.5906,-0.6067,-0.6064,-0.6064,-0.6067,-0.6064,-0.6064,-0.6067,-0.6067,-0.6103,-0.6064,-0.6141,-0.618,-0.618,-0.6257,-0.6203,-0.6108,-0.6023,-0.5946,-0.5867,-0.5732,-0.5657,-0.563,-0.5545,-0.547,-0.5463,-0.5419,-0.5395,-0.5395,-0.5395,-0.5395,-0.5395,-0.5395,-0.5351,-0.5223,-0.5203,-0.5162,-0.5074,-0.506,-0.5091,-0.5184,-0.5189,-0.5203,-0.5216,-0.5304,-0.5392,-0.5395,-0.5392,-0.5395,-0.5395,-0.5395,-0.5395,-0.542,-0.5484,-0.5581,-0.559,-0.5544,-0.557,-0.5649,-0.5745,-0.5823,-0.5864,-0.5838,-0.5901,-0.5962,-0.6047,-0.6152,-0.6276,-0.6289,-0.6286,-0.63,-0.63,-0.63,-0.63,-0.63,-0.63,-0.6289,-0.6166,-0.6078,-0.601,-0.5837,-0.564,-0.5535,-0.5477,-0.5457,-0.5409,-0.5405,-0.5395,-0.5395,-0.5395,-0.5395,-0.5395,-0.5395,-0.5395,-0.5395,-0.5371,-0.5313,-0.523,-0.5209,-0.5121,-0.7095,-0.7085,-0.7095,-0.7075,-0.7041,-0.6976,-0.6886,-0.6902,-0.6724,-0.666,-0.6599,-0.6343,-0.6191,-0.6122,-0.5783,-0.5607,-0.5598,-0.5559,-0.5598,-0.564,-0.5637,-0.5637,-0.5637,-0.5679,-0.5679,-0.5676,-0.5825,-0.5899,-0.5902,-0.6103,-0.6212,-0.6227,-0.6033,-0.5938,-0.5993,-0.5848,-0.5767,-0.5776,-0.5664,-0.5589,-0.561,-0.5491,-0.5416,-0.5409,-0.5402,-0.5395,-0.5395,-0.5395,-0.5388,-0.5382,-0.5382,-0.5392,-0.5358,-0.5358,-0.5378,-0.5365,-0.5382,-0.5388,-0.5348,-0.5388,-0.5359,-0.5329,-0.5362,-0.5329,-0.5329,-0.5349,-0.5386,-0.5336,-0.5339,-0.5307,-0.5445,-0.5455,-0.5547,-0.5725,-0.5768,-0.5835,-0.5922,-0.5996,-0.6084,-0.6193,-0.6272,-0.6293,-0.6296,-0.63,-0.63,-0.63,-0.63,-0.63,-0.63,-0.63,-0.63,-0.63,-0.6269,-0.6176,-0.6101,-0.5976,-0.584,-0.5684,-0.5593,-0.5528,-0.547,-0.5436,-0.5402,-0.5395,-0.5395,-0.5395,-0.5395,-0.5395,-0.5395,-0.5395,-0.5392,-0.5388,-0.5358,-0.5284,-0.5254,-0.7095,-0.7095,-0.7095,-0.7095,-0.7092,-0.7048,-0.7031,-0.697,-0.6744,-0.6639,-0.6528,-0.6239,-0.6003,-0.5879,-0.5624,-0.5404,-0.5207,-0.5051,-0.5207,-0.5521,-0.5562,-0.5562,-0.5562,-0.5562,-0.5601,-0.5598,-0.5673,-0.5676,-0.5712,-0.5792,-0.5834,-0.5819,-0.5748,-0.5803,-0.5902,-0.5809,-0.5808,-0.5905,-0.581,-0.5735,-0.5722,-0.5593,-0.5518,-0.5539,-0.5453,-0.5395,-0.5395,-0.5395,-0.5395,-0.5395,-0.5395,-0.5395,-0.5395,-0.5395,-0.5395,-0.5395,-0.5395,-0.5326,-0.5223,-0.519,-0.5126,-0.5027,-0.4994,-0.4997,-0.5016,-0.5185,-0.5225,-0.5184,-0.5225,-0.533,-0.5259,-0.5418,-0.5503,-0.5529,-0.5601,-0.5698,-0.5736,-0.5832,-0.605,-0.6244,-0.63,-0.63,-0.63,-0.63,-0.6257,-0.63,-0.63,-0.63,-0.63,-0.63,-0.63,-0.63,-0.6293,-0.6289,-0.6186,-0.6132,-0.6034,-0.5871,-0.5759,-0.5616,-0.5552,-0.544,-0.5409,-0.5395,-0.5395,-0.5395,-0.5395,-0.5395,-0.5395,-0.5395,-0.5392,-0.5392,-0.5395,-0.5371,-0.5334,-0.7095,-0.7095,-0.7095,-0.7095,-0.7095,-0.701,-0.6966,-0.6956,-0.6649,-0.652,-0.6452,-0.6123,-0.5853,-0.5641,-0.5398,-0.5108,-0.4796,-0.468,-0.4776,-0.5126,-0.5165,-0.5168,-0.5168,-0.5129,-0.5207,-0.5285,-0.5362,-0.5401,-0.5482,-0.5562,-0.5601,-0.5601,-0.5601,-0.5634,-0.5783,-0.5704,-0.5736,-0.5827,-0.5707,-0.5629,-0.5603,-0.5493,-0.5457,-0.5437,-0.532,-0.5248,-0.5241,-0.5196,-0.5196,-0.5259,-0.5229,-0.5229,-0.5359,-0.5263,-0.5163,-0.5163,-0.516,-0.5093,-0.499,-0.496,-0.496,-0.4827,-0.4794,-0.4825,-0.4879,-0.5038,-0.5076,-0.5136,-0.5069,-0.5043,-0.4896,-0.5018,-0.5123,-0.5061,-0.5381,-0.5556,-0.5598,-0.5712,-0.5944,-0.6145,-0.6145,-0.6145,-0.6222,-0.618,-0.6219,-0.6257,-0.63,-0.63,-0.63,-0.63,-0.6296,-0.6296,-0.6296,-0.6296,-0.6296,-0.6272,-0.6252,-0.6112,-0.5928,-0.5752,-0.5599,-0.5481,-0.5395,-0.5395,-0.5395,-0.5395,-0.5395,-0.5395,-0.5395,-0.5395,-0.5395,-0.5395,-0.5395,-0.5395,-0.5368,-0.7095,-0.7095,-0.7095,-0.7054,-0.7007,-0.6833,-0.6748,-0.6748,-0.6514,-0.6372,-0.6257,-0.5947,-0.5671,-0.5406,-0.5041,-0.4737,-0.4485,-0.433,-0.4279,-0.4311,-0.4307,-0.4345,-0.4501,-0.454,-0.4621,-0.4737,-0.489,-0.5046,-0.5165,-0.5323,-0.5521,-0.5443,-0.5443,-0.5559,-0.5556,-0.5592,-0.5583,-0.5639,-0.55,-0.5442,-0.5435,-0.531,-0.5237,-0.5267,-0.5115,-0.5044,-0.5064,-0.4928,-0.4913,-0.5024,-0.496,-0.4997,-0.5196,-0.4997,-0.4831,-0.4797,-0.4794,-0.4827,-0.4794,-0.4761,-0.4731,-0.4694,-0.4651,-0.4824,-0.4798,-0.478,-0.4885,-0.4997,-0.4825,-0.4577,-0.4448,-0.4496,-0.4496,-0.4538,-0.5043,-0.5404,-0.5559,-0.5559,-0.5754,-0.6025,-0.5909,-0.5715,-0.6064,-0.5944,-0.6022,-0.6141,-0.618,-0.6183,-0.6261,-0.6261,-0.6257,-0.6257,-0.6257,-0.6257,-0.6257,-0.6293,-0.6276,-0.6228,-0.6064,-0.5922,-0.5725,-0.5559,-0.5467,-0.5457,-0.5405,-0.5402,-0.5395,-0.5395,-0.5395,-0.5395,-0.5395,-0.5395,-0.5395,-0.5395,-0.5395,-0.701,-0.6881,-0.6881,-0.6745,-0.6609,-0.652,-0.6476,-0.6476,-0.6257,-0.6077,-0.5844,-0.5648,-0.5321,-0.4988,-0.4716,-0.4404,-0.4087,-0.3831,-0.362,-0.3458,-0.345,-0.3841,-0.4268,-0.4384,-0.4384,-0.4462,-0.4501,-0.4618,-0.4618,-0.4735,-0.4776,-0.4696,-0.4896,-0.5049,-0.5162,-0.5285,-0.5482,-0.5559,-0.5571,-0.5502,-0.5481,-0.5373,-0.5343,-0.5328,-0.5174,-0.5143,-0.5128,-0.4874,-0.4756,-0.4867,-0.4861,-0.4864,-0.4927,-0.4831,-0.4664,-0.4498,-0.4631,-0.4761,-0.4628,-0.4537,-0.4403,-0.4236,-0.4212,-0.4166,-0.4194,-0.4326,-0.4436,-0.4556,-0.4487,-0.4348,-0.4272,-0.4309,-0.4345,-0.4423,-0.4698,-0.4971,-0.5165,-0.5321,-0.5518,-0.5715,-0.5637,-0.5521,-0.5443,-0.5556,-0.5712,-0.5792,-0.5831,-0.5909,-0.6067,-0.599,-0.5909,-0.6141,-0.618,-0.618,-0.6219,-0.6257,-0.6296,-0.6293,-0.619,-0.6118,-0.5922,-0.5735,-0.5678,-0.5627,-0.5487,-0.5443,-0.5412,-0.5395,-0.5395,-0.5395,-0.5395,-0.5395,-0.5395,-0.5395,-0.5395,-0.6741,-0.6656,-0.6656,-0.6564,-0.6387,-0.6299,-0.621,-0.6077,-0.5902,-0.5633,-0.5411,-0.5193,-0.4938,-0.4575,-0.4311,-0.4028,-0.372,-0.3401,-0.3145,-0.3029,-0.2918,-0.3256,-0.3724,-0.3841,-0.388,-0.3992,-0.3995,-0.4073,-0.4231,-0.427,-0.4307,-0.4423,-0.4504,-0.4657,-0.4735,-0.4851,-0.4971,-0.5087,-0.509,-0.509,-0.5082,-0.5021,-0.4988,-0.4958,-0.4867,-0.475,-0.4651,-0.4512,-0.4509,-0.4641,-0.4564,-0.4498,-0.4564,-0.4428,-0.4295,-0.4097,-0.4261,-0.4325,-0.4272,-0.417,-0.4102,-0.3983,-0.3888,-0.3857,-0.3876,-0.3948,-0.4,-0.4128,-0.4037,-0.3871,-0.3726,-0.3763,-0.3841,-0.3841,-0.4034,-0.4345,-0.4693,-0.4851,-0.5049,-0.5249,-0.5287,-0.521,-0.4979,-0.5287,-0.5443,-0.5562,-0.564,-0.5754,-0.587,-0.5715,-0.5598,-0.5715,-0.5909,-0.5909,-0.5909,-0.5948,-0.599,-0.6028,-0.6057,-0.6008,-0.5996,-0.5805,-0.5723,-0.5622,-0.5535,-0.5443,-0.541,-0.5379,-0.5395,-0.5395,-0.5395,-0.5395,-0.5362,-0.5329,-0.5329,-0.6384,-0.6387,-0.6343,-0.6343,-0.6254,-0.608,-0.5813,-0.563,-0.5413,-0.5193,-0.4921,-0.4703,-0.4429,-0.4204,-0.3829,-0.3568,-0.3328,-0.2971,-0.2829,-0.2665,-0.2544,-0.2668,-0.2943,-0.31,-0.3215,-0.3329,-0.3368,-0.3567,-0.3804,-0.3923,-0.4077,-0.4114,-0.4229,-0.4304,-0.4304,-0.4343,-0.4345,-0.4387,-0.4465,-0.4465,-0.4501,-0.4487,-0.4518,-0.4506,-0.4375,-0.4201,-0.4056,-0.4007,-0.411,-0.4445,-0.4162,-0.4134,-0.419,-0.3969,-0.3837,-0.3816,-0.3859,-0.3888,-0.3813,-0.3827,-0.3795,-0.3741,-0.3634,-0.3683,-0.367,-0.3636,-0.3603,-0.3697,-0.3485,-0.3253,-0.302,-0.3022,-0.3139,-0.3215,-0.337,-0.3682,-0.4112,-0.4307,-0.4504,-0.4859,-0.4781,-0.4781,-0.4898,-0.509,-0.5243,-0.5129,-0.5207,-0.5323,-0.544,-0.5365,-0.5249,-0.5212,-0.5404,-0.5598,-0.5601,-0.564,-0.5679,-0.5679,-0.5718,-0.5758,-0.5876,-0.5798,-0.5686,-0.5605,-0.5389,-0.5295,-0.5309,-0.5312,-0.5316,-0.5259,-0.516,-0.5229,-0.5296,-0.5196,-0.5163,-0.6299,-0.6124,-0.5944,-0.5766,-0.5591,-0.5322,-0.5188,-0.5144,-0.4926,-0.4703,-0.4433,-0.4164,-0.3851,-0.3448,-0.3206,-0.2914,-0.2701,-0.24,-0.2192,-0.2109,-0.2064,-0.2045,-0.22,-0.2434,-0.2707,-0.2863,-0.2902,-0.3061,-0.3256,-0.3335,-0.3335,-0.3411,-0.3604,-0.3641,-0.372,-0.3878,-0.3919,-0.3958,-0.4077,-0.4116,-0.4155,-0.4268,-0.4307,-0.4304,-0.4167,-0.3957,-0.373,-0.3672,-0.3691,-0.3714,-0.3819,-0.3911,-0.3944,-0.3916,-0.3777,-0.3612,-0.3641,-0.371,-0.3685,-0.3444,-0.3285,-0.3294,-0.3213,-0.316,-0.3174,-0.3198,-0.3191,-0.3217,-0.3061,-0.2787,-0.2628,-0.2589,-0.2668,-0.2787,-0.2902,-0.302,-0.3374,-0.3843,-0.4196,-0.4314,-0.4426,-0.4426,-0.4392,-0.4506,-0.4621,-0.4659,-0.4737,-0.4815,-0.4896,-0.4976,-0.4937,-0.4859,-0.5012,-0.5246,-0.5285,-0.5285,-0.5285,-0.5285,-0.5326,-0.5401,-0.5522,-0.5594,-0.5473,-0.5322,-0.5185,-0.516,-0.522,-0.5063,-0.5032,-0.4979,-0.496,-0.4994,-0.503,-0.4997,-0.4994,-0.5677,-0.5589,-0.5411,-0.5319,-0.5191,-0.4968,-0.4788,-0.4654,-0.4431,-0.421,-0.3941,-0.3582,-0.3269,-0.3047,-0.2734,-0.245,-0.2249,-0.1917,-0.1655,-0.1473,-0.1364,-0.1271,-0.1336,-0.1609,-0.1923,-0.2318,-0.2356,-0.2473,-0.2628,-0.2707,-0.2707,-0.2824,-0.302,-0.3136,-0.3214,-0.3372,-0.3452,-0.3491,-0.3569,-0.361,-0.3649,-0.3726,-0.3802,-0.3763,-0.3684,-0.3503,-0.339,-0.3386,-0.3322,-0.3293,-0.3388,-0.3611,-0.3747,-0.3621,-0.3416,-0.3381,-0.331,-0.3318,-0.3239,-0.3092,-0.293,-0.2893,-0.2731,-0.2644,-0.2581,-0.2575,-0.2549,-0.2514,-0.2435,-0.2316,-0.2238,-0.2239,-0.2277,-0.2356,-0.2395,-0.2435,-0.2631,-0.318,-0.3688,-0.3767,-0.3841,-0.3841,-0.388,-0.3997,-0.4153,-0.4309,-0.4348,-0.4428,-0.4582,-0.4659,-0.4659,-0.4659,-0.4735,-0.4851,-0.4929,-0.4932,-0.4854,-0.4854,-0.4854,-0.4893,-0.4985,-0.5082,-0.5139,-0.5098,-0.5079,-0.5104,-0.5107,-0.4946,-0.4785,-0.4846,-0.4831,-0.4794,-0.4794,-0.4831,-0.4827,-0.4921,-0.4921,-0.483,-0.483,-0.483,-0.4614,-0.4346,-0.4074,-0.3849,-0.3628,-0.3408,-0.2959,-0.2778,-0.2644,-0.2288,-0.2064,-0.1829,-0.1535,-0.1192,-0.1039,-0.0821,-0.0768,-0.0797,-0.0951,-0.1184,-0.1692,-0.1848,-0.2003,-0.2158,-0.2158,-0.2276,-0.2393,-0.255,-0.2628,-0.2708,-0.2787,-0.2866,-0.2866,-0.2943,-0.2982,-0.2982,-0.3022,-0.3059,-0.2981,-0.2981,-0.2942,-0.2856,-0.2856,-0.2898,-0.2906,-0.2749,-0.3033,-0.3324,-0.325,-0.2845,-0.2934,-0.2835,-0.2832,-0.2759,-0.2636,-0.255,-0.2551,-0.236,-0.219,-0.2156,-0.2117,-0.2081,-0.2004,-0.2004,-0.1887,-0.1848,-0.1808,-0.1808,-0.1887,-0.1887,-0.1887,-0.2005,-0.2514,-0.2906,-0.31,-0.3255,-0.337,-0.3409,-0.3487,-0.3724,-0.3882,-0.3921,-0.4038,-0.4192,-0.4229,-0.419,-0.4192,-0.4268,-0.4423,-0.4543,-0.4657,-0.4579,-0.454,-0.4462,-0.454,-0.4582,-0.4724,-0.4856,-0.5029,-0.5067,-0.4989,-0.4835,-0.463,-0.4546,-0.4675,-0.4597,-0.4428,-0.4495,-0.4631,-0.4628,-0.4614,-0.4389,-0.4162,-0.4072,-0.4026,-0.3853,-0.3631,-0.336,-0.3181,-0.2914,-0.2693,-0.2423,-0.2198,-0.1973,-0.1705,-0.1346,-0.1116,-0.0924,-0.0824,-0.0727,-0.0591,-0.0538,-0.0569,-0.0604,-0.072,-0.0947,-0.1297,-0.169,-0.1847,-0.1964,-0.1886,-0.1964,-0.2043,-0.2082,-0.2082,-0.2082,-0.2201,-0.2278,-0.2356,-0.2431,-0.2431,-0.2511,-0.255,-0.2431,-0.2431,-0.2354,-0.22,-0.2123,-0.2083,-0.2082,-0.2082,-0.2149,-0.236,-0.2469,-0.2369,-0.2264,-0.2291,-0.238,-0.2349,-0.2171,-0.2069,-0.2033,-0.1959,-0.1924,-0.1886,-0.1847,-0.1767,-0.1846,-0.1767,-0.1612,-0.1415,-0.1375,-0.1493,-0.1573,-0.1612,-0.1651,-0.1807,-0.1964,-0.2159,-0.2315,-0.2588,-0.2863,-0.2902,-0.2981,-0.3098,-0.3255,-0.3294,-0.3528,-0.3841,-0.3722,-0.3526,-0.3565,-0.3645,-0.3921,-0.4155,-0.427,-0.4348,-0.4268,-0.4229,-0.427,-0.4348,-0.4423,-0.4552,-0.4517,-0.4576,-0.4524,-0.4382,-0.428,-0.4213,-0.4269,-0.4128,-0.4028,-0.4125,-0.4228,-0.4095,-0.4034,-0.3898,-0.3628,-0.3537,-0.3494,-0.3184,-0.296,-0.2825,-0.2601,-0.2466,-0.2243,-0.1974,-0.1705,-0.1525,-0.1211,-0.0897,-0.0715,-0.0578,-0.0527,-0.0522,-0.0387,-0.0296,-0.0331,-0.0369,-0.0445,-0.056,-0.0871,-0.114,-0.1218,-0.1218,-0.1297,-0.1415,-0.1533,-0.1651,-0.1769,-0.1887,-0.1848,-0.1925,-0.1963,-0.2041,-0.2041,-0.2159,-0.212,-0.208,-0.2041,-0.2003,-0.1926,-0.1887,-0.1887,-0.1887,-0.1808,-0.1808,-0.1847,-0.1728,-0.1649,-0.161,-0.1846,-0.2041,-0.2002,-0.1847,-0.1728,-0.1572,-0.1493,-0.1336,-0.1258,-0.1218,-0.1296,-0.1295,-0.1335,-0.114,-0.0943,-0.0943,-0.0982,-0.1061,-0.11,-0.1179,-0.1218,-0.1258,-0.1375,-0.1609,-0.1963,-0.2238,-0.2318,-0.2395,-0.2512,-0.2589,-0.2668,-0.2981,-0.3372,-0.3215,-0.2979,-0.3018,-0.3137,-0.3333,-0.3569,-0.3684,-0.3839,-0.38,-0.3839,-0.388,-0.388,-0.388,-0.3763,-0.3632,-0.3736,-0.3991,-0.4177,-0.4155,-0.4006,-0.3822,-0.3806,-0.3801,-0.3794,-0.3758,-0.3661,-0.3363,-0.3318,-0.3094,-0.3004,-0.2959,-0.2603,-0.2424,-0.2334,-0.2109,-0.1974,-0.193,-0.148,-0.1256,-0.1166,-0.0897,-0.0628,-0.0583,-0.0403,-0.0311,-0.0264,0.0,0.0,0.0,-0.0125,-0.0247,-0.0286,-0.0401,-0.0552,-0.0708,-0.0707,-0.0746,-0.0904,-0.11,-0.1218,-0.1375,-0.1454,-0.1612,-0.1651,-0.1651,-0.1651,-0.1651,-0.1651,-0.1651,-0.1651,-0.1651,-0.1611,-0.1533,-0.1533,-0.1533,-0.1493,-0.1454,-0.1493,-0.1612,-0.1179,-0.0904,-0.1061,-0.1415,-0.1612,-0.1572,-0.1492,-0.1297,-0.114,-0.0982,-0.0786,-0.0707,-0.0746,-0.0707,-0.0589,-0.0589,-0.0668,-0.0668,-0.0629,-0.0629,-0.0629,-0.0668,-0.0629,-0.0707,-0.0746,-0.0825,-0.11,-0.1415,-0.165,-0.1847,-0.2044,-0.22,-0.2238,-0.2277,-0.2356,-0.2708,-0.2669,-0.2512,-0.2511,-0.2628,-0.2785,-0.2942,-0.302,-0.3096,-0.3136,-0.3136,-0.3176,-0.3176,-0.3178,-0.3061,-0.302,-0.3248,-0.355,-0.3791,-0.3893,-0.3625,-0.3455,-0.3551,-0.3504,-0.336,-0.3291,-0.3257,-0.2513,-0.2378,-0.2333,-0.2288,-0.2333,-0.2244,-0.2064,-0.184,-0.1615,-0.1391,-0.1256,-0.0942,-0.0807,-0.0718,-0.0538,-0.0314,0.0,0.0,0.0,0.0,0.0,0.0,0.0,0.0,0.0,0.0,0.0,-0.0281,-0.0476,-0.0553,-0.0589,-0.0668,-0.0668,-0.0746,-0.0864,-0.0943,-0.0746,-0.0786,-0.0786,-0.0825,-0.0825,-0.0864,-0.0864,-0.0825,-0.0825,-0.0864,-0.0904,-0.0943,-0.0904,-0.0864,-0.0786,-0.0943,-0.1218,-0.0904,-0.0471,-0.0354,-0.0471,-0.0746,-0.0825,-0.0864,-0.0825,-0.0746,-0.0668,-0.0629,-0.055,-0.055,-0.055,-0.0589,-0.0354,-0.0275,-0.0471,-0.055,-0.0589,-0.055,-0.0511,-0.0511,-0.055,-0.0432,-0.0511,-0.0589,-0.0943,-0.1258,-0.1493,-0.173,-0.1926,-0.1925,-0.1925,-0.1964,-0.2043,-0.2043,-0.2161,-0.22,-0.2238,-0.2434,-0.2472,-0.2511,-0.2511,-0.255,-0.255,-0.2589,-0.2628,-0.2669,-0.2589,-0.2589,-0.2823,-0.2966,-0.3102,-0.3101,-0.3042,-0.3004,-0.3009,-0.2927,-0.2788,-0.2787,-0.2822,-0.175,-0.22,-0.2064,-0.1885,-0.175,-0.1615,-0.1436,-0.1166,-0.1076,-0.0942,-0.0852,-0.0628,-0.0449,-0.0314,-0.018,-0.009,0.0,0.0,0.0,0.0,0.0,0.0,0.0,0.0,0.0,0.0,0.0,-0.0083,0.0,0.0,-0.0314,-0.0433,-0.0432,-0.0511,-0.055,-0.0589,-0.0629,-0.0629,-0.0629,-0.0629,-0.0629,-0.0589,-0.0589,-0.0589,-0.0589,-0.0589,-0.0589,-0.0629,-0.0629,-0.0629,-0.0629,-0.0668,-0.0786,-0.0589,-0.0275,-0.0079,-0.0157,-0.0393,-0.0589,-0.0589,-0.0511,-0.0432,-0.0393,-0.0393,-0.0314,0.0,0.0,-0.0236,-0.0118,0.0,0.0,-0.0236,-0.0275,0.0,0.0,0.0,0.0,0.0,-0.0236,-0.0354,-0.0471,-0.0746,-0.0983,-0.11,-0.1258,-0.1297,-0.1296,-0.1375,-0.1493,-0.1572,-0.1768,-0.1965,-0.2004,-0.2082,-0.2121,-0.212,-0.2121,-0.2121,-0.2121,-0.2161,-0.2199,-0.2199,-0.2119,-0.2081,-0.2159,-0.2261,-0.2352,-0.2534,-0.2616,-0.2552,-0.2454,-0.2444,-0.24,-0.2285,-0.2252,-0.1122,-0.1795,-0.1615,-0.1391,-0.1211,-0.1076,-0.0897,-0.0718,-0.0673,-0.0628,-0.0538,-0.0404,-0.018,0.0,0.0,0.0,0.0,0.0,0.0,0.0,0.0,0.0,0.0,0.0,0.0,0.0,0.0,0.0,0.0,0.0,-0.012,-0.0238,-0.0239,-0.0316,-0.0393,-0.0393,-0.0393,-0.0393,-0.0393,-0.0432,-0.0432,-0.0432,-0.0432,-0.0432,-0.0432,0.0,-0.0432,-0.0432,-0.0432,-0.0432,-0.0393,-0.0432,-0.0432,-0.0314,-0.0157,0.0,0.0,-0.0157,-0.0314,-0.0393,-0.0354,-0.0275,-0.0196,0.0,0.0,0.0,0.0,0.0,0.0,0.0,0.0,0.0,0.0,0.0,0.0,0.0,0.0,0.0,0.0,-0.0157,-0.0236,-0.0275,-0.0432,-0.0471,-0.055,-0.0629,-0.0707,-0.0786,-0.0943,-0.114,-0.1218,-0.1454,-0.1454,-0.1492,-0.1492,-0.1533,-0.1572,-0.1651,-0.1651,-0.1611,-0.161,-0.1689,-0.1689,-0.165,-0.1533,-0.1489,-0.1518,-0.1911,-0.2251,-0.2149,-0.2089,-0.2077,-0.201,-0.1893,-0.1817,-0.0718,-0.0807,-0.0762,-0.0762,-0.0762,-0.0762,-0.0718,-0.0628,-0.0493,-0.0404,-0.0359,0.0,0.0,0.0,0.0,0.0,0.0,0.0,0.0,0.0,0.0,0.0,0.0,0.0,0.0,0.0,0.0,0.0,0.0,0.0,0.0,0.0,0.0,0.0,0.0,0.0,0.0,0.0,0.0,0.0,0.0,0.0,0.0,0.0,0.0,0.0,0.0,0.0,0.0,0.0,0.0,0.0,0.0,0.0,0.0,0.0,0.0,0.0,0.0,0.0,0.0,0.0,0.0,0.0,0.0,0.0,0.0,0.0,0.0,0.0,0.0,0.0,0.0,0.0,0.0,0.0,0.0,0.0,0.0,0.0,0.0,0.0,0.0,0.0,0.0,-0.0393,-0.0432,-0.055,-0.0589,-0.0707,-0.0707,-0.0786,-0.0786,-0.0786,-0.0786,-0.0864,-0.1061,-0.11,-0.11,-0.0982,-0.0864,-0.0982,-0.1257,-0.1061,-0.0943,-0.0786,-0.0784,-0.1274,-0.1627,-0.1727,-0.1716,-0.1575,-0.1539,-0.1418,-0.1447,-0.0269,-0.0269,-0.0269,-0.0359,-0.0538,-0.0493,-0.0404,-0.0269,-0.018,-0.018,0.0,0.0,0.0,0.0,0.0,0.0,0.0,0.0,0.0,0.0,0.0,0.0,0.0,0.0,0.0,0.0,0.0,0.0,0.0,0.0,0.0,0.0,0.0,0.0,0.0,0.0,0.0,0.0,0.0,0.0,0.0,0.0,0.0,0.0,0.0,0.0,0.0,0.0,0.0,0.0,0.0,0.0,0.0,0.0,0.0,0.0,0.0,0.0,0.0,0.0,0.0,0.0,0.0,0.0,0.0,0.0,0.0,0.0,0.0,0.0,0.0,0.0,0.0,0.0,0.0,0.0,0.0,0.0,0.0,0.0,0.0,0.0,0.0,0.0,0.0,-0.0196,-0.0236,-0.0275,-0.0354,-0.0393,-0.0432,-0.0471,-0.0471,-0.0511,-0.0511,-0.055,0.0,-0.0589,-0.055,-0.055,-0.0511,-0.0629,-0.0786,-0.055,-0.0432,-0.0432,-0.0588,-0.0857,-0.1034,-0.1156,-0.109,-0.0956,-0.0935,-0.0979,-0.1044,0.0,0.0,0.0,-0.009,-0.0269,-0.0269,-0.018,0.0,0.0,0.0,0.0,0.0,0.0,0.0,0.0,0.0,0.0,0.0,0.0,0.0,0.0,0.0,0.0,0.0,0.0,0.0135,0.018,0.0,0.0,0.0,0.0,0.0,0.0,0.0,0.0,0.0,0.0,0.0,0.0,0.0,0.0,0.0,0.0,0.0,0.0,0.0,0.0,0.0,0.0,0.0,0.0,0.0,0.0,0.0,0.0,0.0,0.0,0.0,0.0,0.0,0.0,0.0,0.0,0.0,0.0,0.0,0.0,0.0,0.0,0.0196,0.0196,0.0,0.0,0.0,0.0,0.0,0.0,0.0,0.0,0.0,0.0,0.0,0.0,0.0,0.0,-0.0039,-0.0118,-0.0157,-0.0157,-0.0236,-0.0236,-0.0275,-0.0314,-0.0354,-0.0393,0.0,0.0,-0.0314,-0.0314,-0.0354,-0.0354,0.0,0.0,-0.0314,-0.0236,-0.0196,0.0,0.0,0.0,-0.0645,-0.0625,-0.0637,-0.0656,-0.0708,-0.064,0.0,0.0,0.0,0.0,0.0,0.0,0.0,0.0,0.0,0.0,0.0,0.0,0.0,0.0,0.0,0.0,0.0,0.0,0.0,0.0,0.0,0.0,0.0,0.0269,0.0359,0.0448,0.0493,0.0583,0.0628,0.0583,0.0582,0.0622,0.0521,0.0,0.0,0.0,0.0,0.0,0.0,0.0,0.0,0.0,0.0,0.0,0.0,0.0,0.0,0.0,0.0,0.0,0.0,0.0,0.0,0.0,0.0,0.0,0.0,0.0,0.0,0.0,0.0,0.0,0.0,0.0,0.0,0.0,0.0118,0.0236,0.0471,0.055,0.0589,0.055,0.0511,0.0511,0.0471,0.0471,0.0471,0.0471,0.0432,0.0393,0.0511,0.0,0.0,0.0,0.0,0.0118,0.0039,0.0,-0.0039,-0.0079,-0.0118,0.0,0.0,0.0,0.0,0.0,0.0,0.0,0.0,0.0,0.0,0.0,0.0,0.0,0.0,0.0,0.0,0.0,0.0,-0.038,-0.0437,-0.0457,-0.048,0.0,0.0,0.0,0.0,0.0,0.0,0.0,0.0,0.0,0.0,0.0,0.0,0.0,0.0,0.0,0.0,0.0,0.0135,0.0269,0.0269,0.0269,0.0449,0.0404,0.0,0.0493,0.0494,0.0628,0.0628,0.0673,0.0762,0.0673,0.0807,0.0762,0.0714,0.0836,0.06,0.0,0.0448,0.0,0.0,0.0,0.0,0.0393,0.0393,0.0393,0.0354,0.0354,0.0354,0.0354,0.0354,0.0354,0.0354,0.0354,0.0354,0.0354,0.0354,0.0393,0.0393,0.0393,0.0393,0.0393,0.0,0.0,0.0157,0.0118,0.0196,0.0196,0.0039,0.0196,0.0511,0.0864,0.0864,0.0668,0.0629,0.0589,0.0589,0.055,0.055,0.055,0.055,0.055,0.055,0.0589,0.0668,0.0668,0.0668,0.0511,0.0314,0.0236,0.0079,0.0,0.0,0.0,0.0,0.0,0.0,0.0,0.0,0.0,0.0,0.0,0.0,0.0,0.0,0.0,0.0,0.0,0.0,0.0,0.0,0.0,-0.0151,0.0,0.0,0.0,0.0,0.0,0.0,0.0,0.0,0.0,0.0,0.0,0.0,0.0,0.0,0.0,0.0,0.0,0.0,0.0,0.0224,0.0314,0.0493,0.0493,0.0538,0.0718,0.0673,0.0673,0.0673,0.0807,0.0852,0.0852,0.1031,0.1121,0.1166,0.1211,0.1301,0.1297,0.1195,0.1314,0.1201,0.1009,0.0659,0.0616,0.061,0.0604,0.06,0.0597,0.0634,0.0591,0.0589,0.0589,0.0589,0.0629,0.0629,0.0629,0.0629,0.0629,0.0629,0.0629,0.0629,0.0629,0.0589,0.0589,0.0589,0.0589,0.0432,0.0275,0.0354,0.0393,0.0393,0.0314,0.0432,0.0746,0.1179,0.1218,0.1022,0.0943,0.1021,0.1021,0.1021,0.1061,0.1061,0.11,0.11,0.1021,0.0983,0.0982,0.0904,0.0864,0.0825,0.0629,0.0432,0.0275,0.0157,0.0118,0.0079,0.0,0.0,0.0,0.0,0.0,0.0,0.0,0.0,0.0,0.0,0.0,0.0,0.0,0.0,0.0,0.0,0.0,0.0,0.0,0.0,0.0,0.0,0.0,0.0,0.0,0.0,0.0,0.0,0.0,0.0,0.0,0.0,0.0,0.0,0.009,0.0314,0.0404,0.0448,0.0583,0.0673,0.0718,0.0762,0.0807,0.0852,0.0987,0.0897,0.0987,0.1122,0.1256,0.1346,0.148,0.166,0.1795,0.184,0.1974,0.2064,0.1923,0.1913,0.1714,0.1384,0.1017,0.1011,0.1001,0.1031,0.102,0.0936,0.0969,0.0921,0.0913,0.091,0.0869,0.0867,0.0826,0.0786,0.0746,0.0707,0.0668,0.0629,0.0668,0.0668,0.0746,0.0786,0.0825,0.0864,0.0825,0.0786,0.0746,0.0668,0.0629,0.0668,0.0825,0.11,0.1493,0.1573,0.1573,0.165,0.1768,0.1768,0.1807,0.1847,0.1847,0.1847,0.1807,0.1768,0.173,0.1651,0.1454,0.1375,0.1218,0.11,0.0943,0.0707,0.055,0.0314,0.0275,0.0,0.0,0.0,0.0,0.0,0.0,0.0,0.0,0.0,0.0,0.0,0.0,0.0,0.0,0.0,0.0,0.0,0.0,0.0,0.0,0.0,0.0,0.0,0.0,0.0269,0.0314,0.0449,0.0494,0.0494,0.0494,0.0449,0.0314,0.0269,0.0359,0.0494,0.0583,0.0628,0.0628,0.0673,0.0852,0.0987,0.1166,0.1346,0.1436,0.157,0.1705,0.1749,0.1794,0.1885,0.1929,0.2018,0.2154,0.2109,0.2244,0.2244,0.22,0.2334,0.2289,0.2189,0.1906,0.179,0.168,0.166,0.1558,0.1588,0.1583,0.1571,0.1519,0.1497,0.1491,0.1486,0.1466,0.1421,0.1496,0.1494,0.1493,0.1533,0.1533,0.1533,0.1533,0.1533,0.1533,0.1533,0.1533,0.1493,0.1454,0.1453,0.1297,0.1218,0.114,0.1258,0.1533,0.1807,0.1964,0.2004,0.2081,0.2199,0.2238,0.2277,0.2316,0.2316,0.2316,0.2316,0.2239,0.22,0.2083,0.1925,0.1807,0.169,0.1572,0.1415,0.1218,0.0943,0.0707,0.0471,0.0354,0.0275,0.0236,0.0157,0.0,0.0,0.0,0.0,0.0,0.0,0.0,0.0,0.0,0.0,0.0,0.0,0.0,0.0,0.0,0.0,0.0,0.0,0.0,0.0,0.0538,0.0538,0.0628,0.0718,0.0718,0.0718,0.0673,0.0673,0.0538,0.0583,0.0673,0.0807,0.0897,0.1031,0.1122,0.1301,0.157,0.166,0.1795,0.193,0.2244,0.2244,0.2288,0.2422,0.2466,0.2466,0.2556,0.2647,0.2602,0.2736,0.2781,0.2826,0.2736,0.2736,0.2777,0.2771,0.276,0.2552,0.235,0.2194,0.2137,0.2128,0.2121,0.2144,0.2112,0.2104,0.2053,0.2014,0.1994,0.1946,0.1902,0.1887,0.1887,0.1887,0.1925,0.1886,0.1847,0.1808,0.1808,0.1808,0.1926,0.2004,0.2042,0.2003,0.1847,0.1768,0.1806,0.1924,0.2199,0.2396,0.2395,0.2433,0.2511,0.2588,0.2628,0.2707,0.2746,0.2746,0.2668,0.2591,0.2512,0.2396,0.2318,0.22,0.2082,0.1924,0.1807,0.1651,0.1336,0.0983,0.0707,0.0511,0.0471,0.0432,0.0354,0.0314,0.0,0.0,0.0,0.0,0.0,0.0,0.0,0.0,0.0,0.0,0.0,0.0,0.0,0.0,0.0,0.0,0.0,0.0,0.0,0.0761,0.0762,0.0807,0.0897,0.0807,0.0897,0.1031,0.1122,0.0987,0.0807,0.0897,0.1076,0.1301,0.148,0.1705,0.1885,0.2109,0.2243,0.2333,0.2333,0.2602,0.2693,0.2782,0.2826,0.2914,0.3002,0.3136,0.3226,0.3361,0.3451,0.354,0.3674,0.3587,0.3542,0.354,0.3542,0.3487,0.3387,0.2975,0.2648,0.2404,0.226,0.2202,0.2297,0.2325,0.2275,0.2262,0.2193,0.2116,0.2098,0.2079,0.2096,0.2084,0.2123,0.2159,0.2159,0.2199,0.22,0.2201,0.22,0.2238,0.2276,0.2273,0.247,0.2473,0.2043,0.1963,0.2472,0.2787,0.2942,0.2979,0.3098,0.3176,0.3255,0.3294,0.3372,0.3411,0.3372,0.3256,0.3139,0.302,0.2904,0.2787,0.2708,0.2552,0.2354,0.2198,0.2043,0.1807,0.1414,0.1139,0.0864,0.0786,0.0746,0.0589,0.055,0.0471,0.0,0.0354,0.0,0.0,0.0,0.0,0.0,0.0,0.0,0.0,0.0,0.0,0.0,0.0,0.0,0.0,0.0,0.0,0.1062,0.1256,0.166,0.184,0.184,0.184,0.184,0.193,0.1885,0.1705,0.1615,0.1795,0.1974,0.2019,0.2243,0.2424,0.2512,0.2825,0.2914,0.3048,0.3229,0.3318,0.3365,0.3451,0.3494,0.3494,0.3628,0.3849,0.3985,0.4074,0.4121,0.4121,0.4121,0.4121,0.4121,0.4121,0.4121,0.4076,0.3892,0.3487,0.3244,0.3244,0.3233,0.3202,0.3185,0.3106,0.308,0.3081,0.3019,0.301,0.2994,0.2876,0.2714,0.2749,0.2747,0.2746,0.2747,0.2749,0.2749,0.2747,0.2787,0.2865,0.2942,0.3098,0.2902,0.2277,0.2277,0.2943,0.3333,0.3448,0.3565,0.3724,0.3843,0.3882,0.3921,0.3997,0.4036,0.3919,0.3843,0.3686,0.3528,0.345,0.3333,0.3176,0.2982,0.2824,0.2707,0.255,0.2354,0.2041,0.1806,0.1532,0.1218,0.114,0.0943,0.0825,0.0786,0.0629,0.055,0.0511,0.0432,0.0393,0.0314,0.0393,0.0,0.0393,0.0354,0.0,0.0,0.0393,0.0354,0.0314,0.0354,0.0,0.0,0.1519,0.1725,0.2056,0.22,0.22,0.2289,0.2334,0.2378,0.2556,0.2556,0.2422,0.2378,0.2423,0.2511,0.2735,0.2915,0.3005,0.336,0.3449,0.3583,0.3853,0.4036,0.4123,0.4121,0.4255,0.4253,0.434,0.4474,0.461,0.461,0.461,0.461,0.461,0.461,0.461,0.461,0.461,0.4612,0.461,0.4431,0.4166,0.4032,0.3942,0.3877,0.3859,0.3827,0.3803,0.3798,0.3736,0.3658,0.3617,0.3289,0.3159,0.3217,0.3452,0.3528,0.3489,0.3413,0.3413,0.3413,0.3413,0.3452,0.3532,0.3686,0.3839,0.3331,0.3215,0.3763,0.3917,0.4034,0.4034,0.4114,0.4153,0.4192,0.4192,0.4229,0.4229,0.4192,0.4116,0.4001,0.3921,0.3958,0.3841,0.3726,0.353,0.3372,0.3215,0.2942,0.2744,0.2666,0.2433,0.2159,0.1847,0.1611,0.1493,0.1297,0.11,0.0982,0.0825,0.0707,0.0629,0.0589,0.0589,0.0707,0.0746,0.0589,0.0589,0.0668,0.0629,0.0511,0.055,0.055,0.0629,0.0668,0.0544,0.2125,0.2219,0.235,0.2372,0.2423,0.2558,0.2648,0.2736,0.3093,0.3272,0.3226,0.2959,0.2959,0.3047,0.327,0.3496,0.3719,0.3985,0.4072,0.4164,0.4476,0.4569,0.4659,0.4835,0.4835,0.4879,0.4966,0.501,0.5102,0.5102,0.5102,0.5099,0.5099,0.5099,0.5099,0.5099,0.5102,0.5102,0.5102,0.5102,0.4879,0.4656,0.4478,0.4389,0.4387,0.4389,0.436,0.4324,0.4313,0.4217,0.4109,0.3786,0.3638,0.3724,0.4036,0.419,0.3995,0.3919,0.388,0.388,0.3958,0.4038,0.4116,0.4233,0.4345,0.4384,0.427,0.4311,0.4465,0.4504,0.4504,0.4501,0.4501,0.454,0.4579,0.4579,0.4579,0.4579,0.4467,0.4392,0.435,0.4426,0.435,0.4235,0.4077,0.388,0.3684,0.3372,0.3137,0.3098,0.2982,0.2708,0.2435,0.2239,0.1964,0.173,0.1493,0.1415,0.1258,0.0983,0.0825,0.0943,0.1022,0.1061,0.1022,0.0864,0.0786,0.0864,0.0786,0.0746,0.0786,0.0864,0.0904,0.0904,0.0864,0.2639,0.2951,0.3141,0.3265,0.3312,0.3363,0.3408,0.3452,0.3673,0.376,0.3851,0.4166,0.4123,0.3715,0.3985,0.421,0.4344,0.461,0.4743,0.4877,0.4966,0.4968,0.5055,0.5233,0.5191,0.528,0.5413,0.5419,0.5547,0.5549,0.5552,0.5549,0.5549,0.5552,0.5552,0.5552,0.5552,0.5549,0.5549,0.5552,0.546,0.5191,0.4921,0.4877,0.4877,0.4877,0.4868,0.4858,0.48,0.4739,0.4587,0.4359,0.4228,0.4231,0.4504,0.4698,0.4543,0.4426,0.4387,0.4387,0.4465,0.4465,0.4504,0.4543,0.4696,0.4813,0.4776,0.4826,0.4904,0.4904,0.4904,0.5012,0.5049,0.5168,0.5246,0.5246,0.5246,0.5207,0.5171,0.5012,0.4932,0.4893,0.4818,0.4662,0.4426,0.4307,0.4268,0.3956,0.3645,0.3608,0.353,0.3295,0.3022,0.2589,0.2235,0.2043,0.1847,0.1808,0.1691,0.1454,0.1335,0.1375,0.1454,0.1415,0.1336,0.1218,0.1179,0.114,0.1179,0.1179,0.1179,0.1179,0.1218,0.1218,0.1218]}]]